[[{"header":{"parameterUnit":"m.s-1","parameterCategory":1,"la1":30.6,"la2":28.766,"lo1":-90.7593,"lo2":-88.6598,"dy":0.0162,"dx":0.0183,"nx":116,"ny":114,"refTime":"2023-03-09T06:00:00:Z","depth":0,"parameterNumber":2,"parameterNumberName":"U-component_of_WINDS"},"data":[0.0,0.0,0.0,0.0,0.0,0.0,0.0,0.0,0.0,0.0,0.0,0.0,0.0,0.0,0.0,0.0,0.0,0.0,0.0,0.0,0.0,0.0,0.0,0.0,0.0,0.0,0.0,0.0,0.0,0.0,0.0,0.0,0.0,0.0,0.0,0.0,0.0,0.0,0.0,0.0,0.0,0.0,0.0,0.0,0.0,0.0,0.0,0.0,0.0,0.0,0.0,0.0,0.0,0.0,0.0,0.0,0.0,0.0,0.0,0.0,0.0,0.0,0.0,0.0,0.0,0.0,0.0,0.0,0.0,0.0,0.0,0.0,0.0,0.0,0.0,0.0,0.0,0.0,0.0,0.0,0.0,0.0,0.0,0.0,0.0,0.0,0.0,0.0,0.0,0.0,0.0,0.0,0.0,0.0,0.0,0.0,0.0,0.0,0.0,0.0,0.0,0.0,0.0,0.0,0.0,0.0,0.0,0.0,0.0,0.0,0.0,0.0,0.0,0.0,0.0,0.0,0.0,0.0,0.0,0.0,0.0,0.0,0.0,0.0,0.0,0.0,0.0,0.0,0.0,0.0,0.0,0.0,0.0,0.0,0.0,0.0,0.0,0.0,0.0,0.0,0.0,0.0,0.0,0.0,0.0,0.0,0.0,0.0,0.0,0.0,0.0,0.0,0.0,0.0,0.0,0.0,0.0,0.0,0.0,0.0,0.0,0.0,0.0,0.0,0.0,0.0,0.0,0.0,0.0,0.0,0.0,0.0,0.0,0.0,0.0,0.0,0.0,0.0,0.0,0.0,0.0,0.0,0.0,0.0,0.0,0.0,0.0,0.0,0.0,0.0,0.0,0.0,0.0,0.0,0.0,0.0,0.0,0.0,0.0,0.0,0.0,0.0,0.0,0.0,0.0,0.0,0.0,0.0,0.0,0.0,0.0,0.0,0.0,0.0,0.0,0.0,0.0,0.0,0.0,0.0,0.0,0.0,0.0,0.0,0.0,0.0,0.0,0.0,0.0,0.0,0.0,0.0,0.0,0.0,0.0,0.0,0.0,0.0,0.0,0.0,0.0,0.0,0.0,0.0,0.0,0.0,0.0,0.0,0.0,0.0,0.0,0.0,0.0,0.0,0.0,0.0,0.0,0.0,0.0,0.0,0.0,0.0,0.0,0.0,0.0,0.0,0.0,0.0,0.0,0.0,0.0,0.0,0.0,0.0,0.0,0.0,0.0,0.0,0.0,0.0,0.0,0.0,0.0,0.0,0.0,0.0,0.0,0.0,0.0,0.0,0.0,0.0,0.0,0.0,0.0,0.0,0.0,0.0,0.0,0.0,0.0,0.0,0.0,0.0,0.0,0.0,0.0,0.0,0.0,0.0,0.0,0.0,0.0,0.0,0.0,0.0,0.0,0.0,0.0,0.0,0.0,0.0,0.0,0.0,0.0,0.0,0.0,0.0,0.0,0.0,0.0,0.0,0.0,0.0,0.0,0.0,0.0,0.0,0.0,0.0,0.0,0.0,0.0,0.0,0.0,0.0,0.0,0.0,0.0,0.0,0.0,0.0,0.0,0.0,0.0,0.0,0.0,0.0,0.0,0.0,0.0,0.0,0.0,0.0,0.0,0.0,0.0,0.0,0.0,0.0,0.0,0.0,0.0,0.0,0.0,0.0,0.0,0.0,0.0,0.0,0.0,0.0,0.0,0.0,0.0,0.0,0.0,0.0,0.0,0.0,0.0,0.0,0.0,0.0,0.0,0.0,0.0,0.0,0.0,0.0,0.0,0.0,0.0,0.0,0.0,0.0,0.0,0.0,0.0,0.0,0.0,0.0,0.0,0.0,0.0,0.0,0.0,0.0,0.0,0.0,0.0,0.0,0.0,0.0,0.0,0.0,0.0,0.0,0.0,0.0,0.0,0.0,0.0,0.0,0.0,0.0,0.0,0.0,0.0,0.0,0.0,0.0,0.0,0.0,0.0,0.0,0.0,0.0,0.0,0.0,0.0,0.0,0.0,0.0,0.0,0.0,0.0,0.0,0.0,0.0,0.0,0.0,0.0,0.0,0.0,0.0,0.0,0.0,0.0,0.0,0.0,0.0,0.0,0.0,0.0,0.0,0.0,0.0,0.0,0.0,0.0,0.0,0.0,0.0,0.0,0.0,0.0,0.0,0.0,0.0,0.0,0.0,0.0,0.0,0.0,0.0,0.0,0.0,0.0,0.0,0.0,0.0,0.0,0.0,0.0,0.0,0.0,0.0,0.0,0.0,0.0,0.0,0.0,0.0,0.0,0.0,0.0,0.0,0.0,0.0,0.0,0.0,0.0,0.0,0.0,0.0,0.0,0.0,0.0,0.0,0.0,0.0,0.0,0.0,0.0,0.0,0.0,0.0,0.0,0.0,0.0,0.0,0.0,0.0,0.0,0.0,0.0,0.0,0.0,0.0,0.0,0.0,0.0,0.0,0.0,0.0,0.0,0.0,0.0,0.0,0.0,0.0,0.0,0.0,0.0,0.0,0.0,0.0,0.0,0.0,0.0,0.0,0.0,0.0,0.0,0.0,0.0,0.0,0.0,0.0,0.0,0.0,0.0,0.0,0.0,0.0,0.0,0.0,0.0,0.0,0.0,0.0,0.0,0.0,0.0,0.0,0.0,0.0,0.0,0.0,0.0,0.0,0.0,0.0,0.0,0.0,0.0,0.0,0.0,0.0,0.0,0.0,0.0,0.0,0.0,0.0,0.0,0.0,0.0,0.0,0.0,0.0,0.0,0.0,0.0,0.0,0.0,0.0,0.0,0.0,0.0,0.0,0.0,0.0,0.0,0.0,0.0,0.0,0.0,0.0,0.0,0.0,0.0,0.0,0.0,0.0,0.0,0.0,0.0,0.0,0.0,0.0,0.0,0.0,0.0,0.0,0.0,0.0,0.0,0.0,0.0,0.0,0.0,0.0,0.0,0.0,0.0,0.0,0.0,0.0,0.0,0.0,0.0,0.0,0.0,0.0,0.0,0.0,0.0,0.0,0.0,0.0,0.0,0.0,0.0,0.0,0.0,0.0,0.0,0.0,0.0,0.0,0.0,0.0,0.0,0.0,0.0,0.0,0.0,0.0,0.0,0.0,0.0,0.0,0.0,0.0,0.0,0.0,0.0,0.0,0.0,0.0,0.0,0.0,0.0,0.0,0.0,0.0,0.0,0.0,0.0,0.0,0.0,0.0,0.0,0.0,0.0,0.0,0.0,0.0,0.0,0.0,0.0,0.0,0.0,0.0,0.0,0.0,0.0,0.0,0.0,0.0,0.0,0.0,0.0,0.0,0.0,0.0,0.0,0.0,0.0,0.0,0.0,0.0,0.0,0.0,0.0,0.0,0.0,0.0,0.0,0.0,0.0,0.0,0.0,0.0,0.0,0.0,0.0,0.0,0.0,0.0,0.0,0.0,0.0,0.0,0.0,0.0,0.0,0.0,0.0,0.0,0.0,0.0,0.0,0.0,0.0,0.0,0.0,0.0,0.0,0.0,0.0,0.0,0.0,0.0,0.0,0.0,0.0,0.0,0.0,0.0,0.0,0.0,0.0,0.0,0.0,0.0,0.0,0.0,0.0,0.0,0.0,0.0,0.0,0.0,0.0,0.0,0.0,0.0,0.0,0.0,0.0,0.0,0.0,0.0,0.0,0.0,0.0,0.0,0.0,0.0,0.0,0.0,0.0,0.0,0.0,0.0,0.0,0.0,0.0,0.0,0.0,0.0,0.0,0.0,0.0,0.0,0.0,0.0,0.0,0.0,0.0,0.0,0.0,0.0,0.0,0.0,0.0,0.0,0.0,0.0,0.0,0.0,0.0,0.0,0.0,0.0,0.0,0.0,0.0,0.0,0.0,0.0,0.0,0.0,0.0,0.0,0.0,0.0,0.0,0.0,0.0,0.0,0.0,0.0,0.0,0.0,0.0,0.0,0.0,0.0,0.0,0.0,0.0,0.0,0.0,0.0,0.0,0.0,0.0,0.0,0.0,0.0,0.0,0.0,0.0,0.0,0.0,0.0,0.0,0.0,0.0,0.0,0.0,0.0,0.0,0.0,0.0,0.0,0.0,0.0,0.0,0.0,0.0,0.0,0.0,0.0,0.0,0.0,0.0,0.0,0.0,0.0,0.0,0.0,0.0,0.0,0.0,0.0,0.0,0.0,0.0,0.0,0.0,0.0,0.0,0.0,0.0,0.0,0.0,0.0,0.0,0.0,0.0,0.0,0.0,0.0,0.0,0.0,0.0,0.0,0.0,0.0,0.0,0.0,0.0,0.0,0.0,0.0,0.0,0.0,0.0,0.0,0.0,0.0,0.0,0.0,0.0,0.0,0.0,0.0,0.0,0.0,0.0,0.0,0.0,0.0,0.0,0.0,0.0,0.0,0.0,0.0,0.0,0.0,0.0,0.0,0.0,0.0,0.0,0.0,0.0,0.0,0.0,0.0,0.0,0.0,0.0,0.0,0.0,0.0,0.0,0.0,0.0,0.0,0.0,0.0,0.0,0.0,0.0,0.0,0.0,0.0,0.0,0.0,0.0,0.0,0.0,0.0,0.0,0.0,0.0,0.0,0.0,0.0,0.0,0.0,0.0,0.0,0.0,0.0,0.0,0.0,0.0,0.0,0.0,0.0,0.0,0.0,0.0,0.0,0.0,0.0,0.0,0.0,0.0,0.0,0.0,0.0,0.0,0.0,0.0,0.0,0.0,0.0,0.0,0.0,0.0,0.0,0.0,0.0,0.0,0.0,0.0,0.0,0.0,0.0,0.0,0.0,0.0,0.0,0.0,0.0,0.0,0.0,0.0,0.0,0.0,0.0,0.0,0.0,0.0,0.0,0.0,0.0,0.0,0.0,0.0,0.0,0.0,0.0,0.0,0.0,0.0,0.0,0.0,0.0,0.0,0.0,0.0,0.0,0.0,0.0,0.0,0.0,0.0,0.0,0.0,0.0,0.0,0.0,0.0,0.0,0.0,0.0,0.0,0.0,0.0,0.0,0.0,0.0,0.0,0.0,0.0,0.0,0.0,0.0,0.0,0.0,0.0,0.0,0.0,0.0,0.0,0.0,0.0,0.0,0.0,0.0,0.0,0.0,0.0,0.0,0.0,0.0,0.0,0.0,0.0,0.0,0.0,0.0,0.0,0.0,0.0,0.0,0.0,0.0,0.0,0.0,0.0,0.0,0.0,0.0,0.0,0.0,0.0,0.0,0.0,0.0,0.0,0.0,0.0,0.0,0.0,0.0,0.0,0.0,0.0,0.0,0.0,0.0,0.0,0.0,0.0,0.0,0.0,0.0,0.0,0.0,0.0,0.0,0.0,0.0,0.0,0.0,0.0,0.0,0.0,0.0,0.0,0.0,0.0,0.0,0.0,0.0,0.0,0.0,0.0,0.0,0.0,0.0,0.0,0.0,0.0,0.0,0.0,0.0,0.0,0.0,0.0,0.0,0.0,0.0,0.0,0.0,0.0,0.0,0.0,0.0,0.0,0.0,0.0,0.0,0.0,0.0,0.0,0.0,0.0,0.0,0.0,0.0,0.0,0.0,0.0,0.0,0.0,0.0,0.0,0.0,0.0,0.0,0.0,0.0,0.0,0.0,0.0,0.0,0.0,0.0,0.0,0.0,0.0,0.0,0.0,0.0,0.0,0.0,0.0,0.0,0.0,0.0,0.0,0.0,0.0,0.0,0.0,0.0,0.0,0.0,0.0,0.0,0.0,0.0,0.0,0.0,0.0,0.0,0.0,0.0,0.0,0.0,0.0,0.0,0.0,0.0,0.0,0.0,0.0,0.0,0.0,0.0,0.0,0.0,0.0,0.0,0.0,0.0,0.0,0.0,0.0,0.0,0.0,0.0,0.0,0.0,0.0,0.0,0.0,0.0,0.0,0.0,0.0,0.0,0.0,0.0,0.0,0.0,0.0,0.0,0.0,0.0,0.0,0.0,0.0,0.0,0.0,0.0,0.0,0.0,0.0,0.0,0.0,0.0,0.0,0.0,0.0,0.0,0.0,0.0,0.0,0.0,0.0,0.0,0.0,0.0,0.0,0.0,0.0,0.0,0.0,0.0,0.0,0.0,0.0,0.0,0.0,0.0,0.0,0.0,1.2027,0.0,0.0,0.0,0.0,0.0,0.0,0.0,0.0,0.0,0.0,0.0,0.0,0.0,0.0,0.0,0.0,0.0,0.0,0.0,0.0,0.0,0.0,0.0,0.0,0.0,0.0,0.0,0.0,0.0,0.0,0.0,0.0,0.0,0.0,0.0,0.0,0.0,0.0,0.0,0.0,0.0,0.0,0.0,0.0,0.0,0.0,0.0,0.0,0.0,0.0,0.0,0.0,0.0,0.0,0.0,0.0,0.0,0.0,0.0,0.0,0.0,0.0,0.0,0.0,0.0,0.0,0.0,0.0,0.0,0.0,0.0,0.0,0.0,0.0,0.0,0.0,0.0,0.0,0.0,0.0,0.0,0.0,0.0,0.0,0.0,0.0,0.0,0.0,0.0,0.0,0.0,0.0,0.0,0.0,0.0,0.0,0.0,0.0,0.0,0.0,0.0,0.0,0.0,0.0,0.0,0.0,0.0,0.0,0.0,0.0,0.0,0.0,0.0,0.0,0.0,0.0,1.151,0.0,0.0,0.0,0.0,0.0,0.0,0.0,0.0,0.0,0.0,0.0,0.0,0.0,0.0,0.0,0.0,0.0,0.0,0.0,0.0,0.0,0.0,0.0,0.0,0.0,0.0,0.0,0.0,0.0,0.0,0.0,0.0,0.0,0.0,0.0,0.0,0.0,0.0,0.0,0.0,0.0,0.0,0.0,0.0,0.0,0.0,0.0,0.0,0.0,0.0,0.0,0.0,0.0,0.0,0.0,0.0,0.0,0.0,0.0,0.0,0.0,0.0,0.0,0.0,0.0,0.0,0.0,0.0,0.0,0.0,0.0,0.0,0.0,0.0,0.0,0.0,0.0,0.0,0.0,0.0,0.0,0.0,0.0,0.0,0.0,0.0,0.0,0.0,0.0,0.0,0.0,0.0,0.0,0.0,0.0,0.0,0.0,0.0,0.0,0.0,0.0,0.0,0.0,0.0,0.0,0.0,0.0,0.0,1.0346,1.0242,0.9301,1.0098,1.0496,1.0487,1.036,1.0248,0.9971,0.9131,0.0,0.0,0.0,0.0,0.0,0.0,0.0,0.0,0.0,0.0,0.0,0.0,0.0,0.0,0.0,0.0,0.0,0.0,0.0,0.0,0.0,0.0,0.0,0.0,0.0,0.0,0.0,0.0,0.0,0.0,0.0,0.0,0.0,0.0,0.0,0.0,0.0,0.0,2.0977,2.1355,2.1431,2.1183,0.0,0.0,0.0,0.0,0.0,0.0,0.0,0.0,0.0,0.0,0.0,0.0,0.0,0.0,0.0,0.0,0.0,0.0,0.0,0.0,0.0,0.0,0.0,0.0,0.0,0.0,0.0,0.0,0.0,0.0,0.0,0.0,0.0,0.0,0.0,0.0,0.0,0.0,0.0,0.0,0.0,0.0,0.0,0.0,1.5082,1.5082,0.0,0.0,0.0,0.0,0.0,0.0,0.0,0.0,0.0,0.0,0.0,0.0,0.0,1.1061,1.1218,1.1126,1.0875,1.0404,0.9802,0.9351,0.8939,0.8411,0.8254,0.8261,0.8286,0.0,0.9317,0.8128,0.0,0.0,0.0,0.0,0.0,0.0,0.0,0.0,0.0,0.0,0.0,0.0,0.0,0.0,0.0,0.0,0.0,0.0,0.0,0.0,0.0,0.0,0.0,0.0,0.0,0.0,0.0,0.0,0.0,0.0,0.0,0.0,0.0,0.0,0.0,0.0,1.9969,2.0209,2.0282,2.0601,2.042,1.9811,1.9899,2.032,2.1047,2.072,0.0,0.0,0.0,0.0,0.0,0.0,0.0,0.0,0.0,0.0,0.0,0.0,0.0,0.0,0.0,0.0,0.0,0.0,0.0,0.0,0.0,0.0,0.0,0.0,0.0,0.0,0.0,0.0,0.0,0.0,0.0,0.0,0.0,0.0,0.0,0.0,0.0,0.0,0.0,1.5467,1.5363,1.5253,1.5459,1.5527,0.0,0.0,0.0,0.0,0.0,0.0,0.0,0.0,0.0,1.122,1.0459,0.9965,0.9854,0.9606,0.9401,0.9159,0.8951,0.8744,0.8682,0.8327,0.8187,0.8191,0.8258,0.8516,0.8755,0.7938,0.7611,0.7594,0.0,0.0,0.0,0.0,0.8355,0.8453,0.0,0.0,0.0,0.0,0.0,0.0,0.0,0.0,0.0,0.0,0.0,0.0,0.0,0.0,0.0,0.0,0.0,0.0,0.0,0.0,0.0,0.0,0.0,0.0,0.0,0.0,0.0,0.0,1.9402,1.9506,1.9291,1.9403,1.9201,1.8752,1.8736,1.9297,2.014,1.9303,1.9497,0.0,0.0,0.0,0.0,0.0,0.0,0.0,0.0,0.0,0.0,0.0,0.0,0.0,0.0,0.0,0.0,0.0,0.0,0.0,0.0,0.0,0.0,0.0,0.0,0.0,0.0,0.0,0.0,0.0,0.0,0.0,0.0,0.0,0.0,0.0,0.0,0.0,0.0,1.5493,1.5524,1.5329,1.5531,1.5486,0.0,0.0,0.0,0.0,0.0,0.0,1.2052,1.1141,1.0538,1.0325,0.9501,0.9042,0.8788,0.8547,0.8292,0.8153,0.8377,0.8482,0.8482,0.8523,0.854,0.854,0.854,0.854,0.8509,0.8096,0.7889,0.7821,0.7784,0.7794,0.7828,0.7858,0.7892,0.7926,0.0,0.0,0.0,0.0,0.0,0.0,0.0,0.0,0.0,0.0,0.0,0.0,0.0,0.0,0.0,0.0,0.0,0.0,0.0,0.0,0.0,0.0,0.0,0.0,0.0,0.0,0.0,1.8181,1.8565,1.8377,1.7754,1.8099,1.8468,1.8724,1.7619,1.7571,1.8309,1.8407,1.871,1.9186,0.0,0.0,0.0,0.0,0.0,0.0,0.0,0.0,0.0,0.0,0.0,0.0,0.0,0.0,0.0,0.0,0.0,0.0,0.0,0.0,0.0,0.0,0.0,0.0,0.0,0.0,0.0,0.0,0.0,0.0,0.0,0.0,0.0,0.0,0.0,0.0,0.0,0.0,0.0,1.5006,1.522,0.0,0.0,0.0,0.0,1.1727,1.1335,1.1038,1.0699,0.9829,0.9355,0.9391,0.8494,0.8218,0.8481,0.8501,0.8458,0.8462,0.8476,0.8482,0.8486,0.8632,0.8699,0.8699,0.8699,0.8699,0.8676,0.8374,0.8323,0.8425,0.8289,0.8319,0.8404,0.813,0.8123,0.8187,0.0,0.0,0.0,0.0,0.0,0.0,0.0,0.0,0.0,0.0,0.0,0.0,0.0,0.0,0.0,0.0,0.0,0.0,0.0,0.0,0.0,0.0,0.0,0.0,0.0,0.0,1.8574,1.7464,1.807,1.8387,1.8398,1.8521,1.8443,1.812,1.7817,1.744,1.6955,1.6579,1.7017,1.7766,1.6806,1.7632,0.0,0.0,0.0,0.0,0.0,0.0,0.0,0.0,0.0,0.0,0.0,0.0,0.0,0.0,0.0,0.0,0.0,0.0,0.0,0.0,0.0,0.0,0.0,0.0,0.0,0.0,0.0,0.0,0.0,0.0,0.0,0.0,0.0,0.0,0.0,0.0,0.0,1.4242,1.3613,0.0,1.2268,1.2127,1.1846,1.1433,1.0547,1.0162,1.0234,0.9338,0.8877,0.8948,0.8731,0.8686,0.8719,0.9018,0.9045,0.8913,0.9011,0.9059,0.9062,0.9117,0.9089,0.9001,0.91,0.9032,0.8855,0.8842,0.8696,0.8476,0.8425,0.8438,0.8469,0.8364,0.836,0.8384,0.0,0.0,0.0,0.0,0.0,0.0,0.0,0.0,0.0,0.0,0.0,0.0,0.0,0.0,0.0,0.0,0.0,0.0,0.0,0.0,0.0,0.0,0.0,0.0,0.0,1.825,1.7901,1.6873,1.7526,1.7807,1.7788,1.7903,1.7695,1.7232,1.7551,1.7173,1.6449,1.6016,1.6199,1.6602,1.568,1.6765,1.8669,0.0,0.0,0.0,0.0,0.0,0.0,0.0,0.0,0.0,0.0,0.0,0.0,0.0,0.0,0.0,0.0,0.0,0.0,0.0,0.0,0.0,0.0,0.0,0.0,0.0,0.0,0.0,0.0,0.0,0.0,0.0,0.0,0.0,0.0,0.0,1.359,1.3341,1.2599,1.186,1.1231,1.1067,1.0845,1.0416,0.9697,0.9326,0.9549,0.892,0.8652,0.8852,0.8957,0.9035,0.9086,0.9283,0.933,0.9232,0.9334,0.9381,0.9381,0.9381,0.9323,0.9235,0.9337,0.9269,0.9093,0.9191,0.9025,0.8703,0.8655,0.8635,0.8628,0.8577,0.8591,0.8628,0.0,0.0,0.0,0.0,0.0,0.0,0.0,0.0,0.0,0.0,0.0,0.0,0.0,0.0,0.0,0.0,0.0,0.0,0.0,0.0,0.0,0.0,0.0,0.0,1.7464,1.7683,1.7312,1.6352,1.675,1.6536,1.5845,1.6139,1.6279,1.6299,1.658,1.6707,1.6707,1.6727,1.6406,1.5885,1.5845,1.661,1.775,0.0,0.0,0.0,0.0,0.0,0.0,0.0,0.0,0.0,0.0,0.0,0.0,0.0,0.0,0.0,0.0,0.0,0.0,0.0,0.0,0.0,0.0,0.0,0.0,0.0,0.0,0.0,0.0,0.0,0.0,0.0,0.0,0.0,1.3525,1.3813,1.3566,1.2321,1.2236,1.1787,1.046,1.035,0.9855,0.8648,0.8545,0.8568,0.8726,0.873,0.8866,0.9157,0.9167,0.9242,0.9395,0.9395,0.9395,0.9395,0.9395,0.9395,0.9395,0.9395,0.9391,0.9388,0.9395,0.9391,0.9381,0.9388,0.93,0.9147,0.9008,0.8947,0.892,0.8777,0.8815,0.8916,0.0,0.0,0.0,0.0,0.0,0.0,0.0,0.0,0.0,0.0,0.0,0.0,0.0,0.0,0.0,0.0,0.0,0.0,0.0,0.0,0.0,0.0,0.0,0.0,1.6515,1.6707,1.6455,1.5629,1.6016,1.6137,1.6152,1.6239,1.6386,1.6593,1.712,1.7382,1.7417,1.786,1.7722,1.7367,1.6504,1.6497,1.6899,0.0,0.0,0.0,0.0,0.0,0.0,0.0,0.0,0.0,0.0,0.0,0.0,0.0,0.0,0.0,0.0,0.0,0.0,0.0,0.0,0.0,0.0,0.0,0.0,0.0,0.0,0.0,0.0,0.0,0.0,0.0,0.0,1.5448,1.4056,1.3001,1.1962,1.1004,1.0058,0.9381,0.904,0.9152,0.9113,0.8831,0.892,0.9066,0.9191,0.9198,0.9286,0.9479,0.9486,0.9554,0.9696,0.97,0.97,0.97,0.97,0.97,0.97,0.97,0.9642,0.9554,0.9656,0.9578,0.9391,0.95,0.9456,0.9313,0.9276,0.9127,0.8947,0.9008,0.8991,0.8933,0.0,0.0,0.0,0.0,0.0,0.0,0.0,0.0,0.0,0.0,0.0,0.0,0.0,0.0,0.0,0.0,0.0,0.0,0.0,0.0,0.0,0.0,0.0,1.7084,1.6211,1.602,1.5812,1.5578,1.5745,1.5979,1.6279,1.6393,1.6613,1.6901,1.751,1.7804,1.783,1.8297,1.8354,1.8147,1.747,1.7592,1.8052,1.6968,1.752,1.8696,1.7137,1.7662,1.8872,1.7729,0.0,0.0,0.0,0.0,0.0,0.0,0.0,0.0,0.0,0.0,0.0,0.0,0.0,0.0,0.0,0.0,0.0,0.0,0.0,0.0,0.0,0.0,0.0,0.0,1.5322,1.4874,1.3795,1.2771,1.1578,0.9915,0.9127,0.8732,0.8792,0.891,0.8987,0.905,0.9266,0.9317,0.9469,0.9476,0.9544,0.9693,0.9696,0.9737,0.9822,0.9822,0.9822,0.9822,0.9822,0.9822,0.9822,0.9822,0.9774,0.9703,0.9785,0.9724,0.9574,0.9659,0.9612,0.0,0.0,0.0,0.0,0.0,0.9062,0.8947,0.0,0.0,0.0,0.0,0.0,0.0,0.0,0.0,0.0,0.0,0.0,1.8845,1.7935,0.0,0.0,0.0,0.0,0.0,0.0,0.0,0.0,1.7369,1.6873,1.6529,1.63,1.5734,1.5571,1.5832,1.5865,1.6032,1.6326,1.662,1.6934,1.7275,1.7822,1.8101,1.8118,1.8439,1.8632,1.87,1.87,1.9115,1.974,1.8263,1.8547,1.9626,1.8133,1.7455,1.7315,1.6888,0.0,0.0,0.0,0.0,0.0,0.0,0.0,0.0,0.0,0.0,0.0,0.0,0.0,0.0,0.0,0.0,0.0,0.0,0.0,0.0,0.0,0.0,0.0,0.0,1.4545,1.3551,1.2842,1.2729,1.1661,0.9106,0.8906,0.9039,0.9167,0.9178,0.9242,0.9395,0.9408,0.9473,0.9625,0.0,0.0,0.0,0.0,0.9822,0.9822,0.9822,0.9822,0.9822,0.9822,0.9822,0.9822,0.9822,0.9822,0.9822,0.9822,0.9822,0.9822,0.9822,0.9737,0.9581,0.9293,0.9191,0.9201,0.9184,0.9086,0.8984,0.0,0.0,0.0,0.0,0.0,0.0,0.0,0.0,0.0,1.8008,1.8447,1.8689,1.8475,1.8257,1.8221,0.0,0.0,0.0,0.0,0.0,1.7191,1.6285,1.632,1.6195,1.5572,1.5685,1.5772,1.5832,1.6072,1.6339,1.6627,1.6927,1.7355,1.7883,1.8211,1.8536,1.8773,1.9259,1.9523,1.9502,1.9502,1.9225,1.8757,1.8122,1.8114,1.8302,1.7796,1.7914,1.8105,1.761,1.7889,1.8295,1.754,0.0,0.0,0.0,0.0,0.0,0.0,0.0,0.0,0.0,0.0,0.0,0.0,0.0,0.0,0.0,0.0,0.0,0.0,0.0,0.0,1.4293,1.3665,1.2802,1.1663,1.1647,1.1159,0.9478,0.9276,0.9306,0.9334,0.9337,0.9401,0.9554,0.9564,0.9629,0.9771,0.9781,0.9791,0.9822,0.9822,0.9822,0.9822,0.9822,0.9822,0.9822,0.0,0.0,0.9822,0.9822,0.9822,0.9822,0.9822,0.9822,0.9822,0.9822,0.9737,0.9591,0.9408,0.9412,0.9507,0.9384,0.9242,0.9133,0.0,0.0,0.0,0.0,0.0,0.0,0.0,0.0,0.0,0.0,1.8564,1.8877,1.8662,1.8508,1.8512,1.8601,1.8128,0.0,0.0,1.7562,1.7147,1.6146,1.6116,1.5982,1.5825,1.5972,1.6126,1.6266,1.6413,1.6714,1.7148,1.7295,1.7689,1.8277,1.8554,1.887,1.916,1.9638,1.9838,1.9965,1.9965,1.9696,1.935,1.892,1.8706,1.8706,1.8577,1.8577,1.8622,1.8302,1.8346,1.8428,1.8151,1.7767,1.7303,0.0,0.0,0.0,0.0,0.0,0.0,0.0,0.0,0.0,0.0,0.0,0.0,0.0,0.0,1.5029,0.0,0.0,1.3293,1.3556,1.2814,1.1981,1.1657,1.1059,1.0358,0.9514,0.9381,0.9412,0.949,0.9496,0.9557,0.9703,0.9717,0.9747,0.9819,0.9822,0.9822,0.9822,0.9822,0.9822,0.9822,0.9822,0.9822,0.9822,0.9897,0.9934,0.9934,0.9934,0.9934,0.993,0.9852,0.9822,0.9822,0.9822,0.9778,0.9707,0.9632,0.9557,0.9496,0.9496,0.9398,0.9289,0.0,0.0,0.0,0.0,0.0,0.0,0.0,0.0,0.0,0.0,0.0,1.8906,1.8555,1.8828,1.8896,0.0,0.0,0.0,0.0,1.7691,1.7344,1.6684,1.6178,1.6025,1.6266,1.6326,1.6473,1.6707,1.682,1.7121,1.7589,1.7702,1.805,1.8584,1.885,1.9129,1.9458,1.9821,2.0047,2.0258,2.0258,2.0258,2.0294,1.9787,1.9559,1.9502,1.9495,1.9229,1.8964,1.8971,1.879,1.8626,1.8754,1.8483,1.812,1.755,1.7402,0.0,0.0,0.0,0.0,0.0,0.0,0.0,0.0,0.0,1.6361,1.611,1.5279,1.4447,1.441,1.3158,1.2388,1.2841,1.1858,1.1228,1.1503,1.0612,0.9812,0.9544,0.9486,0.9527,0.968,0.9696,0.9741,0.9856,0.9866,0.9852,0.9822,0.9822,0.9822,0.9822,0.9822,0.9822,0.9822,0.9822,0.9836,0.9866,0.9988,1.0066,1.0093,1.0093,1.0076,1.0039,0.9886,0.9822,0.9822,0.9822,0.9822,0.9822,0.9822,0.9676,0.9483,0.9605,0.9554,0.9449,0.0,0.0,0.0,0.0,0.0,0.0,0.0,0.0,0.0,0.0,0.0,0.0,0.0,0.0,0.0,0.0,0.0,0.0,0.0,1.796,1.7565,1.7535,1.671,1.6239,1.6273,1.6526,1.6673,1.6707,1.7228,1.7515,1.7595,1.8136,1.8564,1.8878,1.9197,1.948,1.9795,2.0389,2.0588,2.0676,2.0676,2.0676,2.0663,2.0255,2.0133,2.0027,1.9884,1.9366,1.8964,1.9229,1.9184,1.8975,1.948,1.9448,1.9069,1.817,0.0,1.7001,1.6079,1.5879,1.5972,1.6366,1.6343,1.6498,0.0,0.0,1.6806,1.5575,1.5217,1.4702,1.3321,1.2113,1.1532,1.177,1.088,1.0105,1.0263,1.0266,1.0164,0.9995,0.9852,0.9832,0.9985,0.9998,1.0008,1.0022,1.0022,0.9964,0.9829,0.9822,0.9822,0.9822,0.9822,0.9822,0.9822,0.9822,0.989,1.0025,1.0039,1.012,1.0253,1.0253,1.0178,1.0039,0.9886,0.9822,0.9822,0.9822,0.9822,0.9822,0.9822,0.9802,0.9774,0.9791,0.9707,0.9605,0.0,0.0,0.0,0.0,0.0,0.0,0.0,0.0,0.0,0.0,0.0,0.0,0.0,0.0,0.0,0.0,0.0,0.0,1.8708,1.8667,1.8801,1.9103,1.8737,1.8705,1.9094,1.9239,1.9506,1.991,1.9367,1.927,1.9628,1.9049,1.8991,1.9426,1.9605,1.9925,2.0305,2.0645,2.0799,2.0963,2.0963,2.0963,2.0963,2.0543,2.0244,1.9883,1.9469,1.8978,0.0,0.0,1.88,1.8746,1.9412,1.9727,1.9734,1.8989,1.9131,0.0,1.7779,1.6814,1.6373,0.0,1.6914,1.7368,1.7615,1.7936,1.7766,1.6198,1.5421,1.4456,1.2718,1.1535,1.0771,0.0,1.0471,1.0212,1.0297,1.0215,1.0154,1.0181,1.0049,1.0015,1.0168,1.0103,1.0086,1.0178,1.0185,1.0158,1.009,1.0002,0.9954,0.9954,0.9866,0.9822,0.9822,0.9822,0.9897,1.0049,1.0141,1.0219,1.0283,1.0365,1.0273,1.0039,0.9886,0.9822,0.9822,0.9822,0.9822,0.9822,0.9822,0.9822,0.9822,0.9822,0.9785,0.9741,0.0,0.0,0.0,0.0,0.0,0.0,0.0,0.0,0.0,0.0,0.0,0.0,0.0,0.0,0.0,0.0,0.0,0.0,0.0,1.9255,1.963,2.022,2.0297,0.0,2.1039,2.1346,2.1777,2.2316,2.1046,2.0629,2.1092,1.9742,1.9392,1.98,1.9983,2.0298,2.0693,2.073,2.0963,2.1109,2.1109,2.1102,2.0963,2.0543,2.0065,1.9543,1.9011,1.8558,0.0,0.0,1.8672,1.8836,1.9754,2.042,2.0674,1.9962,2.0295,2.0498,1.892,0.0,0.0,1.7103,1.7622,1.821,1.8377,1.8804,1.8596,1.6417,1.5392,1.426,1.2008,1.0918,1.028,1.028,1.0314,1.0361,1.0426,1.0283,1.0181,1.0212,1.008,1.0063,1.0259,1.0215,1.0219,1.0331,1.0337,1.0321,1.0283,1.0175,1.0114,1.0114,0.9964,0.9883,0.9883,0.9883,0.9961,1.0114,1.0226,1.03,1.0341,1.0361,1.0253,1.0039,0.9886,0.9822,0.9822,0.9822,0.9822,0.9822,0.9822,0.9822,0.9822,0.9822,0.9822,0.9822,0.0,0.0,0.0,0.0,0.0,0.0,0.0,0.0,0.0,0.0,0.0,0.0,0.0,0.0,0.0,0.0,0.0,0.0,0.0,1.9589,1.982,2.0629,2.0644,2.057,2.0586,2.1736,2.2299,2.2316,2.1503,2.1062,2.11,2.0178,1.978,1.982,2.0422,2.0672,2.0693,2.1,2.1109,2.1109,2.1109,2.0963,2.0676,2.0106,1.944,1.8887,1.8861,0.0,0.0,0.0,1.9212,1.9312,2.1052,2.1841,0.0,2.1031,2.0189,0.0,0.0,0.0,1.8389,1.8075,1.823,1.8624,1.9199,1.9559,1.8873,1.5915,1.5355,1.4185,1.0688,1.0175,1.028,1.028,1.0395,1.0439,1.0304,1.0395,1.0375,1.009,0.992,0.9947,0.0,1.0399,1.048,1.0483,1.0483,1.0426,1.0287,1.0276,1.0273,1.0273,1.0124,1.0042,1.0042,1.0042,1.012,1.0273,1.028,1.0351,1.0477,1.0192,1.0059,1.0039,0.9886,0.9822,0.9822,0.9822,0.9822,0.9822,0.9822,0.9822,0.9822,0.9822,0.9822,0.9822,0.0,0.0,0.0,0.0,0.0,0.0,0.0,0.0,0.0,0.0,0.0,0.0,0.0,0.0,0.0,0.0,0.0,0.0,0.0,1.9908,2.0704,2.1836,2.2447,2.3019,2.3558,2.3985,2.4081,2.393,2.27,2.2299,2.2871,2.0748,2.0488,2.151,2.1011,2.147,2.2588,2.1498,2.169,2.2701,2.2413,2.2258,2.2082,2.2009,2.1553,2.0923,0.0,0.0,0.0,0.0,0.0,0.0,2.0323,0.0,0.0,2.2282,0.0,0.0,0.0,0.0,1.9817,1.9067,1.9285,1.9753,2.0147,2.0461,1.9747,1.6239,1.536,1.4108,1.053,0.9941,0.9975,0.9975,1.0185,1.0334,1.0287,1.0232,1.0161,1.0063,1.0005,0.0,0.0,0.0,0.0,1.047,1.049,1.0514,1.0568,1.0477,1.0422,1.0422,1.0178,1.01,1.0202,1.0002,1.0029,1.028,1.0175,1.0205,1.0341,1.0036,0.9951,1.0039,0.9886,0.9822,0.9822,0.9822,0.9822,0.9822,0.9822,0.9822,0.9822,0.9822,0.9822,0.9822,0.0,0.0,0.0,0.0,0.0,0.0,0.0,0.0,0.0,0.0,0.0,0.0,0.0,0.0,0.0,0.0,0.0,0.0,0.0,0.0,2.0547,2.1543,2.2412,2.3135,2.3682,2.415,2.4373,2.4424,2.3175,2.306,2.3903,2.1744,2.1472,2.282,2.2164,2.2645,2.3909,2.287,2.2948,2.3794,2.3311,2.2941,2.2596,2.2366,2.1895,0.0,0.0,0.0,0.0,0.0,0.0,0.0,0.0,0.0,0.0,0.0,0.0,0.0,0.0,2.0712,2.0559,1.9972,2.0114,2.0468,2.0768,2.0895,1.9965,1.6396,1.5729,1.471,1.0998,1.0676,1.0981,1.0981,1.1172,1.1122,1.0878,1.0678,1.0411,1.0036,1.0002,0.9988,0.0,0.0,0.0,1.0385,1.0463,1.0534,1.0633,1.0599,1.0571,1.0571,1.0334,1.0256,1.0354,1.011,1.0056,1.0198,1.0151,1.0127,1.011,0.991,0.9876,0.9961,0.9863,0.9822,0.9822,0.9822,0.9822,0.9822,0.9822,0.9822,0.9822,0.9822,0.9822,0.9822,0.0,0.0,0.0,0.0,0.0,0.0,0.0,0.0,0.0,0.0,0.0,0.0,0.0,0.0,0.0,0.0,0.0,0.0,0.0,0.0,0.0,1.9863,2.0732,2.1221,2.126,2.2451,2.3222,2.3699,2.3052,2.3126,2.3985,2.2825,2.2738,2.362,2.3893,2.4217,2.4722,2.4594,2.4351,2.4086,2.3604,2.3016,2.2215,2.1329,0.0,0.0,0.0,0.0,0.0,0.0,0.0,0.0,0.0,0.0,0.0,0.0,0.0,2.1965,2.1008,2.0713,2.0829,2.0774,2.0702,2.0768,2.1029,2.0862,1.9677,1.6258,1.6177,1.5682,0.0,0.0,1.3019,1.3029,1.2957,1.2565,1.1674,1.15,1.116,0.0,0.0,0.0,0.0,0.0,0.0,1.0259,0.0,1.0487,1.0504,1.0639,1.0721,1.0721,1.0571,1.0493,1.0504,1.0365,1.0205,1.0039,1.0195,1.011,0.9822,0.9822,0.9822,0.9822,0.9822,0.9822,0.9822,0.9822,0.9822,0.9822,0.9822,0.9822,0.9822,0.9822,0.9822,0.9822,0.0,0.0,0.0,0.0,0.0,0.0,0.0,0.0,0.0,0.0,0.0,0.0,0.0,0.0,0.0,0.0,0.0,0.0,0.0,0.0,0.0,0.0,0.0,0.0,0.0,0.0,0.0,0.0,0.0,2.2191,2.2681,2.1736,2.2022,2.3392,2.2881,2.3378,2.4525,2.3343,2.3202,2.3937,0.0,2.3431,2.3057,0.0,0.0,0.0,0.0,0.0,0.0,0.0,0.0,0.0,0.0,0.0,2.078,0.0,0.0,2.2209,2.1331,2.1663,2.2122,2.1237,2.0995,2.0962,2.0822,2.0555,1.9516,1.6773,1.609,1.5121,0.0,0.0,0.0,1.1476,1.0954,0.0,1.039,1.0521,0.0,1.0212,0.0,1.0178,1.0219,1.0185,0.0,0.0,1.0314,1.0429,1.0649,1.07,1.0721,1.0721,1.0571,1.0548,1.066,1.0514,1.0249,0.988,1.0032,1.0008,0.9822,0.9822,0.9822,0.9822,0.9822,0.9822,0.9822,0.9822,0.9822,0.9822,0.9822,0.9822,0.9822,0.9822,0.9822,0.9822,0.0,0.0,0.0,0.0,0.0,0.0,0.0,0.0,0.0,0.0,0.0,0.0,0.0,0.0,0.0,0.0,0.0,0.0,0.0,0.0,0.0,0.0,0.0,0.0,0.0,0.0,0.0,0.0,0.0,0.0,0.0,2.1467,2.2022,2.3165,2.3001,2.3466,2.4461,0.0,0.0,0.0,0.0,0.0,0.0,0.0,0.0,0.0,0.0,0.0,0.0,0.0,0.0,2.0615,2.0243,2.0181,2.0313,2.0624,0.0,2.1578,2.1067,2.1477,2.1582,2.0245,1.9973,1.9776,1.9252,1.8854,1.8083,1.634,1.6089,0.0,1.3543,0.0,0.0,0.0,0.0,0.0,1.0767,1.0834,1.0771,0.0,1.0375,0.0,1.0375,1.0375,1.0375,0.0,1.0375,1.0446,1.0612,1.0683,1.0721,1.0721,1.0636,1.0602,1.0619,1.0602,1.0365,0.9924,1.0076,1.007,0.992,0.9849,0.9859,0.9917,0.9849,0.9822,0.9822,0.9822,0.9822,0.9822,0.9822,0.9822,0.9822,0.9822,0.9822,0.9822,0.0,0.0,0.0,0.0,0.0,0.0,0.0,0.0,0.0,0.0,0.0,0.0,0.0,0.0,0.0,0.0,0.0,0.0,0.0,0.0,0.0,0.0,0.0,0.0,0.0,0.0,0.0,0.0,0.0,0.0,0.0,0.0,0.0,0.0,0.0,0.0,0.0,0.0,0.0,0.0,0.0,0.0,0.0,0.0,0.0,0.0,0.0,0.0,0.0,0.0,1.9682,1.9795,2.0006,2.0178,2.0405,2.0406,2.0467,2.0544,2.0551,2.0648,2.0355,1.9048,1.8518,1.8173,1.7505,1.685,1.6257,1.569,0.0,1.6149,1.4568,1.4242,1.4073,1.4089,0.0,1.2372,1.1492,1.1491,1.129,1.0599,1.0521,1.0521,1.0521,1.0521,1.0521,1.0521,1.0521,1.0521,1.0521,1.0649,1.0721,1.0721,1.0721,1.0646,1.0493,1.0622,1.0473,1.0049,1.0185,1.0168,1.0015,0.988,0.9893,1.0012,0.988,0.9822,0.9822,0.9822,0.9822,0.9822,0.9822,0.9822,0.9822,0.9822,0.9822,0.9822,0.0,0.0,0.0,0.0,0.0,0.0,0.0,0.0,0.0,0.0,1.8682,1.8008,0.0,0.0,0.0,0.0,0.0,0.0,0.0,0.0,0.0,0.0,0.0,0.0,0.0,0.0,0.0,0.0,0.0,0.0,0.0,0.0,0.0,0.0,0.0,0.0,0.0,0.0,0.0,0.0,0.0,0.0,0.0,0.0,0.0,0.0,0.0,0.0,0.0,0.0,1.8535,1.8671,1.8263,1.8254,1.8548,1.904,1.9428,1.9775,2.012,2.0488,2.0688,2.0355,1.9267,1.824,1.8551,1.7235,0.0,0.0,1.6381,1.6155,1.5569,1.4716,1.3881,1.3158,0.0,0.0,0.0,0.0,1.0708,0.0,0.0,0.0,0.0,0.0,0.0,0.0,1.068,1.068,1.068,1.0707,1.0721,1.0721,1.0721,1.0646,1.0493,1.0517,1.0368,1.0049,1.0076,1.0008,0.9859,0.9832,0.9836,0.9859,0.9832,0.0,0.9822,0.9822,0.9822,0.9822,0.9822,0.9822,0.9822,0.9822,0.9822,0.9822,0.0,0.0,0.0,0.0,0.0,0.0,0.0,2.0643,2.0553,2.1022,2.0159,1.9123,1.8429,1.8144,1.8008,0.0,0.0,0.0,0.0,0.0,0.0,0.0,0.0,0.0,0.0,0.0,0.0,0.0,0.0,0.0,0.0,0.0,0.0,0.0,0.0,0.0,0.0,0.0,0.0,0.0,0.0,0.0,0.0,0.0,0.0,0.0,0.0,0.0,0.0,0.0,1.7909,1.7596,1.7596,1.7796,1.819,1.8938,1.9259,1.9492,2.0074,2.0334,2.0189,1.9309,1.8143,1.7208,1.7122,0.0,0.0,0.0,1.6139,1.5999,1.5852,1.4886,0.0,0.0,0.0,0.0,0.0,0.0,0.0,0.0,0.0,0.0,0.0,0.0,0.0,1.0721,1.0721,1.0721,1.0721,1.0721,1.0721,1.0721,1.0721,1.0683,1.0612,1.0531,1.0385,1.0168,1.009,1.0012,0.9937,0.9859,0.9866,0.9934,0.9856,0.9822,0.9822,0.9822,0.9822,0.9822,0.9822,0.9822,0.9822,0.9822,0.9822,0.9822,0.0,0.0,0.0,0.0,0.0,0.0,0.0,2.1793,2.1944,2.2548,2.1867,2.0783,1.9494,1.8794,1.8368,0.0,0.0,0.0,0.0,0.0,0.0,0.0,0.0,0.0,0.0,0.0,0.0,0.0,0.0,0.0,0.0,0.0,0.0,0.0,0.0,0.0,0.0,0.0,0.0,0.0,0.0,0.0,0.0,0.0,0.0,0.0,0.0,0.0,0.0,0.0,1.719,1.67,1.7228,1.7689,1.8176,1.8878,1.9172,1.9386,1.9907,2.0094,1.9752,1.8331,1.7274,1.6339,1.5873,1.4978,0.0,0.0,1.5832,1.5832,1.5832,0.0,0.0,0.0,0.0,0.0,0.0,0.0,0.0,0.0,0.0,0.0,0.0,0.0,0.0,1.0717,1.0721,1.0721,1.0721,1.0721,1.0721,1.0721,1.0721,1.0721,1.0721,1.0568,1.0422,1.028,1.0124,1.0032,0.9995,0.9876,0.9886,0.9992,0.9873,0.9822,0.9822,0.9822,0.9822,0.9822,0.9822,0.9822,0.9822,0.9822,0.9822,0.9822,0.0,0.0,0.0,0.0,0.0,0.0,0.0,2.3059,2.2953,2.3893,2.3363,2.2587,2.1749,2.0525,1.9547,0.0,0.0,0.0,0.0,0.0,0.0,0.0,0.0,0.0,0.0,0.0,0.0,0.0,0.0,0.0,0.0,0.0,0.0,0.0,0.0,0.0,0.0,0.0,0.0,0.0,0.0,0.0,0.0,0.0,0.0,0.0,0.0,0.0,0.0,0.0,0.0,1.6366,1.6687,1.7355,1.8036,1.8136,0.0,0.0,1.9359,1.9639,1.978,1.9389,1.7798,1.6471,1.6885,0.0,0.0,1.5606,1.5832,1.5832,1.5832,0.0,0.0,0.0,0.0,0.0,0.0,0.0,0.0,0.0,0.0,0.0,0.0,0.0,0.0,1.0711,1.0721,1.0721,1.0721,1.0721,1.0721,1.0721,1.0721,1.0721,1.0721,1.0568,1.0422,1.028,1.0124,0.9978,0.9842,0.9829,0.9829,0.9842,0.9825,0.9822,0.0,0.9822,0.9822,0.9822,0.9822,0.9822,0.9822,0.9822,0.9822,0.9822,0.0,0.0,0.0,0.0,0.0,0.0,2.3916,2.3729,2.3968,2.5369,2.4823,2.4378,2.4662,2.3409,2.1834,2.0227,0.0,0.0,0.0,0.0,0.0,0.0,0.0,0.0,0.0,0.0,0.0,0.0,0.0,0.0,0.0,0.0,0.0,0.0,0.0,0.0,0.0,0.0,0.0,0.0,0.0,0.0,0.0,0.0,0.0,0.0,0.0,0.0,0.0,0.0,0.0,0.0,1.6139,1.654,0.0,0.0,1.8063,1.8497,1.8971,1.9319,1.9466,1.9172,1.8053,1.7135,1.7164,0.0,1.5281,1.5757,1.5832,1.5534,1.4752,1.4262,0.0,0.0,0.0,0.0,0.0,0.0,0.0,0.0,0.0,0.0,0.0,0.0,1.0426,1.0571,1.0582,1.0622,1.0714,1.0721,1.0721,1.0721,1.0721,1.0721,1.0721,1.0568,1.0422,1.028,1.0219,1.0059,0.9825,0.9917,0.991,0.9822,0.9822,0.9822,0.0,0.9822,0.9822,0.9822,0.9822,0.9822,0.9822,0.9822,0.9822,0.9822,0.0,0.0,0.0,0.0,0.0,2.3009,2.3841,2.4004,2.4469,2.5799,2.5541,2.5489,2.6133,2.508,2.3747,2.2238,2.0642,0.0,0.0,0.0,0.0,0.0,0.0,0.0,0.0,0.0,0.0,0.0,0.0,0.0,0.0,0.0,0.0,0.0,0.0,0.0,0.0,0.0,0.0,0.0,0.0,0.0,0.0,0.0,0.0,0.0,0.0,0.0,0.0,0.0,0.0,0.0,0.0,0.0,0.0,0.0,1.7535,1.7996,1.8417,1.8811,1.9018,1.8624,1.7983,1.7355,0.0,0.0,1.5832,1.5832,1.5832,1.5534,1.4657,1.4166,1.3295,0.0,0.0,1.0341,0.9847,0.0,0.0,0.0,0.0,0.0,0.0,0.0,1.0385,1.0483,1.0534,1.0605,1.0714,1.0721,1.0721,1.0721,1.0721,1.0721,1.0721,1.0612,1.0466,1.028,1.028,1.012,0.9825,0.9934,0.9924,0.9822,0.9822,0.9822,0.0,0.9822,0.9822,0.9822,0.9822,0.9822,0.9822,0.9822,0.9822,0.9822,0.0,0.0,0.0,0.0,0.0,0.0,2.3779,2.4004,2.4205,2.477,2.5285,2.5611,2.5598,2.5146,2.4968,2.5523,2.2486,0.0,0.0,0.0,0.0,0.0,0.0,0.0,0.0,0.0,0.0,1.9277,0.0,0.0,0.0,0.0,0.0,0.0,0.0,0.0,0.0,0.0,0.0,0.0,0.0,0.0,0.0,0.0,0.0,0.0,0.0,0.0,0.0,0.0,0.0,0.0,0.0,0.0,0.0,0.0,1.6907,1.7589,1.7595,1.8043,1.8357,1.7742,1.7375,1.7001,0.0,0.0,0.0,1.5832,1.5832,1.5832,1.5825,1.4752,1.3872,1.3872,0.0,0.0,0.0,0.0,0.0,0.0,0.0,0.0,0.0,0.0,1.049,1.049,1.0633,0.0,1.0721,1.0721,1.0721,1.0721,1.0721,1.0721,1.0721,1.0717,1.0571,1.028,1.028,1.012,0.9822,0.9822,0.9822,0.9822,0.9822,0.9822,0.0,0.9822,0.9822,0.9822,0.9822,0.9822,0.9822,0.9822,0.9822,0.9822,0.0,0.0,0.0,0.0,0.0,0.0,0.0,2.2899,2.3105,2.463,2.4971,2.4987,2.4774,2.4226,2.3706,2.3152,2.1799,0.0,0.0,0.0,0.0,0.0,0.0,0.0,0.0,0.0,0.0,1.9687,2.0167,2.0602,0.0,0.0,0.0,0.0,0.0,0.0,0.0,0.0,0.0,0.0,0.0,0.0,0.0,0.0,0.0,0.0,0.0,0.0,0.0,0.0,0.0,0.0,0.0,0.0,0.0,0.0,0.0,0.0,1.7228,1.7575,1.7776,1.7382,1.7061,1.6747,1.6359,0.0,0.0,1.5832,1.5832,1.5534,1.4657,1.4166,1.3642,1.3035,0.0,0.0,0.0,0.0,0.0,0.0,0.0,0.0,0.0,0.0,1.172,1.1956,1.0919,1.0395,1.0704,1.0622,1.0612,1.0717,1.0721,1.0721,1.0721,1.0721,1.0571,1.0283,1.0378,1.0212,0.9825,0.993,0.992,0.9822,0.9822,0.9822,0.9822,0.9822,0.9822,0.9822,0.9822,0.9822,0.9822,0.9822,0.9822,0.9822,0.0,0.0,0.0,0.0,0.0,0.0,0.0,2.2199,2.2428,2.3966,2.4192,2.4124,2.403,2.3435,2.2963,2.2691,2.1732,0.0,0.0,0.0,0.0,0.0,0.0,0.0,0.0,0.0,2.0107,2.0161,2.0635,2.1073,2.1494,2.1214,2.076,0.0,0.0,0.0,0.0,0.0,0.0,0.0,0.0,0.0,1.7398,0.0,0.0,0.0,0.0,0.0,0.0,0.0,0.0,0.0,0.0,0.0,0.0,0.0,0.0,0.0,0.0,1.7027,1.7181,1.6894,1.668,0.0,0.0,0.0,0.0,0.0,0.0,0.0,1.4752,1.4657,1.4418,1.3803,1.3635,0.0,0.0,0.0,0.0,0.0,0.0,0.0,0.0,1.3263,1.225,1.1662,1.0649,1.0531,1.1519,1.0928,1.0791,1.1534,1.1083,1.0694,1.0633,1.0633,1.0487,1.0195,1.0283,1.0148,0.9825,0.992,0.991,0.9822,0.9822,0.9822,0.0,0.9822,0.9822,0.9822,0.9822,0.9822,0.9822,0.9822,0.9822,0.9822,0.0,0.0,0.0,0.0,0.0,0.0,0.0,2.1815,2.2125,2.3005,2.3078,2.3146,2.3287,2.2746,2.2666,2.3301,0.0,0.0,0.0,0.0,0.0,0.0,0.0,0.0,0.0,1.9081,1.9715,2.0575,2.0988,2.1469,2.1924,2.1814,2.0961,1.9586,0.0,0.0,0.0,0.0,0.0,0.0,0.0,0.0,0.0,0.0,0.0,0.0,0.0,0.0,0.0,0.0,0.0,0.0,0.0,0.0,0.0,0.0,0.0,0.0,0.0,0.0,0.0,0.0,0.0,0.0,0.0,0.0,0.0,0.0,0.0,0.0,0.0,1.5832,1.5838,1.5858,0.0,0.0,0.0,0.0,0.0,0.0,0.0,0.0,0.0,1.3508,1.2174,1.0305,1.0171,1.1071,1.2755,1.1357,1.1228,1.2896,1.1388,1.0619,1.0477,1.0477,1.0331,1.0049,1.0049,0.9968,0.9822,0.9822,0.9822,0.0,0.9822,0.9822,0.9822,0.9822,0.9815,0.9805,0.9819,0.9815,0.9805,0.9819,0.9822,0.9822,0.0,0.0,0.0,0.0,0.0,0.0,0.0,0.0,0.0,0.0,2.3078,2.2665,2.1433,2.1149,2.0864,0.0,0.0,0.0,0.0,0.0,0.0,0.0,0.0,0.0,0.0,1.8929,1.971,2.0575,2.1034,2.1627,2.232,2.1065,2.0153,1.956,1.8599,0.0,0.0,0.0,0.0,0.0,0.0,0.0,0.0,0.0,0.0,0.0,1.473,1.4816,0.0,0.0,0.0,0.0,0.0,0.0,0.0,0.0,1.473,0.0,0.0,0.0,0.0,0.0,0.0,0.0,0.0,0.0,0.0,0.0,0.0,0.0,0.0,0.0,0.0,0.0,0.0,0.0,0.0,0.0,0.0,0.0,0.0,0.0,1.6138,1.4914,1.3597,1.2,1.0584,1.0167,1.0944,1.0468,1.0331,1.0955,1.0618,1.0368,1.0331,1.0331,1.0236,1.0049,1.0049,0.9968,0.9822,0.9822,0.9822,0.9822,0.9822,0.9822,0.9822,0.9822,0.9758,0.9669,0.9778,0.9754,0.9673,0.9781,0.9822,0.9822,0.0,0.0,0.0,0.0,0.0,0.0,0.0,0.0,0.0,0.0,0.0,0.0,0.0,0.0,0.0,0.0,0.0,0.0,0.0,0.0,0.0,0.0,0.0,0.0,0.0,1.8943,1.9847,2.0883,2.108,2.1761,2.2795,2.1655,2.0428,1.9032,1.6967,0.0,0.0,0.0,0.0,0.0,1.7305,0.0,0.0,0.0,0.0,0.0,1.4429,1.4509,0.0,1.4576,1.4522,1.4522,0.0,0.0,0.0,0.0,1.4436,0.0,0.0,0.0,1.5237,1.5391,1.5531,1.5591,0.0,0.0,0.0,0.0,0.0,0.0,0.0,0.0,0.0,0.0,1.5583,0.0,0.0,0.0,0.0,0.0,0.0,0.0,0.0,1.4018,1.295,1.1275,1.035,1.0285,1.1272,1.0461,1.0457,1.1283,1.0545,1.0175,1.0175,1.0175,1.0097,0.9944,0.9944,0.99,0.9822,0.9822,0.9822,0.9822,0.9822,0.9785,0.9724,0.9724,0.9639,0.9513,0.9588,0.9615,0.9618,0.9696,0.9764,0.9822,0.0,0.0,0.0,0.0,0.0,0.0,0.0,0.0,0.0,0.0,0.0,0.0,0.0,0.0,0.0,0.0,0.0,0.0,0.0,0.0,0.0,0.0,0.0,1.8213,1.8623,1.8982,1.9829,2.1088,2.1137,2.178,2.3028,2.2562,2.0889,1.8241,1.5769,0.0,0.0,0.0,0.0,0.0,1.6757,0.0,0.0,0.0,0.0,0.0,0.0,0.0,0.0,1.4456,1.4456,1.4456,1.4456,0.0,0.0,0.0,0.0,0.0,1.4389,1.4669,1.491,1.495,1.515,1.5264,1.5023,0.0,0.0,0.0,0.0,0.0,0.0,1.5832,0.0,0.0,0.0,0.0,0.0,0.0,0.0,0.0,0.0,0.0,1.2397,1.2335,1.1776,0.995,0.9822,1.0479,1.2073,1.0743,1.0623,1.2082,1.0743,1.0015,1.0015,1.0015,0.9947,0.9822,0.9822,0.9822,0.9822,0.9822,0.9822,0.9822,0.9822,0.0,0.9608,0.9608,0.9507,0.9347,0.9371,0.9445,0.9547,0.9591,0.9686,0.9791,0.0,0.0,0.0,0.0,0.0,0.0,0.0,0.0,0.0,0.0,0.0,0.0,0.0,0.0,0.0,0.0,0.0,0.0,0.0,0.0,0.0,0.0,1.8193,1.8213,1.8623,1.8685,1.9344,2.0675,2.1059,2.1664,2.2572,2.1876,1.9878,1.7118,1.7315,1.648,1.4986,1.6139,1.6142,1.5337,1.5609,0.0,0.0,0.0,0.0,0.0,0.0,0.0,0.0,1.4155,1.4155,1.4155,1.4155,0.0,0.0,0.0,0.0,0.0,1.4142,1.4362,1.4649,1.4903,1.4997,1.5017,1.4977,0.0,0.0,0.0,0.0,0.0,0.0,1.5832,1.5832,0.0,0.0,0.0,0.0,0.0,0.0,0.0,0.0,1.4134,1.2111,1.2149,1.1526,0.9943,0.9822,0.995,1.0214,0.9974,0.9978,1.0214,0.9974,0.9856,0.9856,0.9856,0.9842,0.9822,0.9822,0.9822,0.9822,0.9822,0.9822,0.9822,0.0,0.9741,0.9608,0.9608,0.9442,0.9201,0.933,0.9317,0.9256,0.9513,0.9625,0.9659,0.0,0.0,0.0,0.0,0.0,0.0,0.0,0.0,0.0,0.0,0.0,0.0,0.0,0.0,0.0,0.0,0.0,0.0,0.0,0.0,0.0,0.0,1.8557,1.8389,1.8587,1.8844,1.9616,2.0913,2.1124,2.1457,2.1816,2.036,1.9058,1.7766,1.702,1.6037,1.473,1.541,1.5562,1.519,0.0,0.0,0.0,0.0,0.0,0.0,0.0,0.0,0.0,0.0,1.4088,1.4088,1.4088,0.0,0.0,0.0,0.0,0.0,1.4088,1.4182,1.4355,1.4649,1.4843,1.4877,1.4563,0.0,0.0,0.0,0.0,0.0,0.0,0.0,1.4526,0.0,0.0,0.0,0.0,0.0,0.0,0.0,0.0,1.2312,1.0898,1.0857,1.066,0.9822,0.9822,0.9822,0.9822,0.9822,0.9822,0.9822,0.9822,0.9822,0.9822,0.9822,0.9822,0.9822,0.9822,0.9822,0.9822,0.9822,0.9822,0.9819,0.0,0.9622,0.9479,0.9398,0.9235,0.9052,0.9201,0.9266,0.9313,0.9612,0.9724,0.9734,0.0,0.0,0.0,0.0,0.0,0.0,0.0,0.0,0.0,0.0,0.0,0.0,0.0,0.0,0.0,0.0,0.0,0.0,0.0,0.0,1.8616,1.9249,1.8934,1.8784,1.8927,1.9233,2.0022,2.122,2.1038,2.1006,2.1102,1.9939,1.9085,1.8437,1.7207,1.5797,1.4536,1.5014,1.5116,1.4903,0.0,0.0,0.0,0.0,0.0,0.0,0.0,0.0,0.0,0.0,0.0,0.0,0.0,0.0,0.0,1.4088,1.4088,1.4088,1.4088,1.4135,1.4222,1.4382,0.0,1.4676,1.4362,0.0,0.0,0.0,0.0,0.0,0.0,0.0,0.0,0.0,0.0,0.0,0.0,0.0,1.1798,1.1065,1.0984,1.0624,0.9919,0.9822,0.9822,0.9822,0.9822,0.9822,0.9822,0.9822,0.9822,0.9822,0.9822,0.9822,0.9822,0.9788,0.9788,0.9822,0.9788,0.9788,0.9819,0.9747,0.9737,0.9764,0.9618,0.9469,0.9317,0.9201,0.9069,0.8954,0.9096,0.9269,0.9459,0.9649,0.9761,0.9822,0.0,0.0,0.0,0.0,0.0,0.0,0.0,0.0,0.0,0.0,0.0,0.0,0.0,0.0,0.0,0.0,0.0,0.0,0.0,0.0,1.9239,1.933,1.9301,1.9403,1.9797,1.9839,2.0298,2.1195,2.0467,2.0288,2.0752,2.175,2.0717,1.8087,1.8941,1.7511,1.4603,1.5627,1.5469,1.4556,1.4596,0.0,0.0,0.0,0.0,0.0,0.0,0.0,0.0,0.0,0.0,0.0,0.0,0.0,1.4088,0.0,1.4088,1.4088,1.4088,1.4282,1.4429,1.4182,1.4135,0.0,1.4783,1.4736,0.0,1.5257,0.0,0.0,0.0,0.0,0.0,0.0,0.0,0.0,0.0,0.0,1.0002,0.9906,0.9909,0.9916,0.9819,0.9822,0.9822,0.9822,0.9822,0.9822,0.9822,0.9822,0.9822,0.9822,0.9822,0.9822,0.9822,0.969,0.969,0.9819,0.9686,0.9693,0.9812,0.9537,0.949,0.9615,0.9462,0.931,0.9167,0.9157,0.9069,0.8954,0.9096,0.9334,0.9578,0.9456,0.9585,0.9822,0.0,0.0,0.0,0.0,0.0,0.0,0.0,0.0,0.0,0.0,0.0,0.0,0.0,0.0,0.0,0.0,0.0,0.0,0.0,0.0,1.8757,1.9317,1.8985,1.9042,1.9506,1.9786,2.047,2.1623,2.1096,2.1194,2.1803,2.0555,1.9227,1.7954,1.7383,1.6058,1.4262,1.4854,1.4747,1.4282,1.4649,1.4509,0.0,0.0,0.0,0.0,0.0,0.0,0.0,0.0,1.4088,0.0,0.0,0.0,0.0,0.0,0.0,1.4088,1.4088,1.4302,1.4496,1.4382,0.0,0.0,0.0,0.0,0.0,0.0,0.0,0.0,0.0,0.0,0.0,0.0,0.0,0.0,1.2179,1.0778,0.9822,0.9822,0.9822,0.9822,0.9822,0.9822,0.9785,0.9696,0.969,0.9649,0.9551,0.9547,0.9591,0.9686,0.969,0.973,0.9822,0.968,0.9635,0.9686,0.954,0.9544,0.9683,0.9476,0.9412,0.9459,0.9306,0.9205,0.9147,0.9055,0.9042,0.9096,0.934,0.9507,0.9612,0.9642,0.9727,0.9822,0.0,0.0,0.0,0.0,0.0,0.0,0.0,0.0,0.0,0.0,0.0,0.0,0.0,0.0,0.0,0.0,0.0,0.0,0.0,1.8242,1.8446,1.9022,1.8873,1.8966,1.9266,1.9565,2.0313,2.1457,2.1455,2.1498,2.1457,2.0016,1.8771,1.7697,1.6711,1.5387,1.4102,1.4302,1.4269,1.4122,1.4522,1.4442,0.0,0.0,0.0,0.0,0.0,0.0,0.0,0.0,0.0,0.0,0.0,0.0,0.0,0.0,0.0,0.0,1.3948,1.4088,1.4242,0.0,0.0,0.0,0.0,0.0,0.0,0.0,0.0,0.0,0.0,0.0,0.0,0.0,0.0,1.2704,1.2901,1.1619,1.0422,0.9819,0.9822,0.9822,0.9822,0.9822,0.9764,0.9618,0.9608,0.9544,0.9391,0.9381,0.9429,0.9534,0.9537,0.9585,0.9683,0.9537,0.949,0.9537,0.9337,0.9344,0.953,0.933,0.9266,0.93,0.915,0.9086,0.9083,0.9028,0.9093,0.9239,0.9354,0.9483,0.9615,0.9663,0.9741,0.9822,0.0,0.0,0.0,0.0,0.0,0.0,0.0,0.0,0.0,0.0,0.0,0.0,0.0,0.0,0.0,0.0,0.0,0.0,0.0,1.8378,1.8574,1.8574,1.9026,1.9301,1.9301,1.9301,1.9717,2.0566,2.1493,2.1019,1.9477,2.0651,1.9841,1.7334,1.7253,1.6124,1.4088,1.4088,1.4088,1.4088,1.4088,1.4088,1.4088,0.0,0.0,0.0,0.0,0.0,0.0,0.0,0.0,0.0,0.0,0.0,0.0,0.0,1.3874,1.3559,1.3566,1.3566,0.0,0.0,0.0,0.0,0.0,0.0,1.5912,0.0,0.0,0.0,0.0,0.0,0.0,0.0,1.5902,1.4331,1.4564,1.3168,1.1615,0.9937,0.9819,0.9819,0.9819,0.9819,0.9758,0.9618,0.9608,0.954,0.9384,0.9378,0.9378,0.9381,0.9381,0.9381,0.9381,0.9228,0.9228,0.9374,0.9079,0.9093,0.9367,0.9072,0.9015,0.9144,0.9001,0.894,0.895,0.9093,0.9242,0.9347,0.9055,0.9215,0.9588,0.9439,0.9568,0.9819,0.0,0.0,0.0,0.0,0.0,0.0,0.0,0.0,0.0,0.0,0.0,0.0,0.0,0.0,0.0,0.0,0.0,0.0,0.0,1.8105,1.8193,1.8193,1.8291,1.8378,1.8378,1.8652,1.9423,2.0566,2.1491,2.151,2.0642,2.0258,1.95,1.839,1.6846,1.5786,1.522,1.4412,1.4088,1.4088,1.4088,1.4088,1.4088,0.0,0.0,0.0,0.0,0.0,0.0,0.0,0.0,0.0,0.0,0.0,0.0,0.0,1.3874,1.3687,1.3901,0.0,0.0,0.0,0.0,0.0,0.0,0.0,0.0,0.0,0.0,0.0,0.0,0.0,0.0,1.7583,1.6527,1.5248,1.4443,1.3067,1.143,0.9909,0.9578,0.9554,0.9663,0.9673,0.9608,0.9459,0.9449,0.9337,0.9083,0.9069,0.9117,0.9218,0.9222,0.9273,0.9381,0.9228,0.9174,0.9218,0.9028,0.9039,0.9215,0.9025,0.896,0.8998,0.8957,0.894,0.895,0.9093,0.912,0.9083,0.9201,0.9266,0.931,0.9479,0.9598,0.9673,0.0,0.0,0.0,0.0,0.0,0.0,0.0,0.0,0.0,0.0,0.0,0.0,0.0,0.0,0.0,0.0,0.0,0.0,0.0,0.0,1.8008,1.8008,1.8184,1.8241,1.8222,1.8652,1.9193,1.9798,2.0506,2.0827,2.0648,1.9995,1.9427,1.8957,1.7568,1.6511,1.5703,1.497,1.4496,1.4088,1.4088,1.4088,1.4088,0.0,0.0,0.0,0.0,0.0,0.0,0.0,0.0,0.0,0.0,0.0,0.0,1.3774,1.3763,1.3798,1.3669,0.0,0.0,0.0,0.0,0.0,0.0,0.0,0.0,0.0,0.0,0.0,0.0,0.0,0.0,1.7716,1.7284,1.6363,1.5129,1.4239,1.2859,1.0673,1.0237,1.0106,0.951,0.9517,0.9456,0.9303,0.9289,0.9188,0.895,0.894,0.8977,0.9066,0.9066,0.9113,0.9205,0.9113,0.9066,0.9066,0.892,0.8927,0.9066,0.8977,0.894,0.894,0.894,0.8971,0.9025,0.9055,0.9052,0.9035,0.9157,0.9184,0.9174,0.9361,0.9466,0.9517,0.0,0.0,0.0,0.0,0.0,0.0,0.0,0.0,0.0,0.0,0.0,0.0,0.0,0.0,0.0,0.0,0.0,0.0,0.0,0.0,1.8008,1.8008,1.8323,1.8536,1.8596,1.8968,1.8933,1.8447,1.8947,1.9424,1.9811,1.9775,1.9497,1.9061,1.9027,1.79,1.6026,1.5861,1.522,1.425,1.425,1.425,1.425,1.425,0.0,0.0,0.0,0.0,0.0,0.0,0.0,0.0,0.0,0.0,1.3581,1.3366,1.3677,1.396,0.0,0.0,0.0,0.0,0.0,0.0,0.0,0.0,0.0,0.0,0.0,0.0,0.0,1.7368,1.7361,1.7889,1.8016,1.7579,1.6245,1.6051,1.503,1.2082,1.1612,1.1159,0.9701,0.9589,0.9415,0.9164,0.9154,0.9089,0.8947,0.894,0.894,0.894,0.894,0.894,0.894,0.894,0.894,0.8937,0.8784,0.8781,0.8916,0.8916,0.8923,0.894,0.894,0.9011,0.9123,0.8991,0.9015,0.912,0.8991,0.9018,0.9133,0.9147,0.9242,0.9361,0.0,0.0,0.0,0.0,0.0,0.0,0.0,0.0,0.0,0.0,0.0,0.0,0.0,0.0,0.0,0.0,0.0,0.0,0.0,0.0,1.8008,1.8008,1.8065,1.8309,1.8611,1.8419,1.788,1.7018,1.784,1.8606,1.9404,1.9033,1.9088,1.9678,1.9215,1.8718,1.8221,1.7334,1.6355,1.5379,1.5379,1.5379,1.5379,1.5379,1.5869,0.0,0.0,0.0,0.0,0.0,0.0,0.0,1.3661,1.3512,1.3662,1.413,1.374,0.0,0.0,0.0,0.0,0.0,0.0,0.0,0.0,0.0,0.0,0.0,0.0,0.0,1.7569,1.7528,1.7528,1.7655,1.7883,1.7508,1.6003,1.5893,1.5226,1.3335,1.2966,1.2376,1.0972,1.0876,1.0412,0.9267,0.9154,0.9089,0.8947,0.894,0.894,0.894,0.894,0.894,0.894,0.894,0.894,0.8937,0.8784,0.8726,0.876,0.876,0.8825,0.894,0.894,0.8957,0.8981,0.895,0.8957,0.8981,0.895,0.8957,0.8998,0.9113,0.9174,0.9201,0.0,0.0,0.0,0.0,0.0,0.0,0.0,0.0,0.0,0.0,0.0,0.0,0.0,0.0,0.0,0.0,0.0,0.0,0.0,0.0,0.0,1.7859,1.7304,1.7367,1.8145,1.7394,1.6836,1.6636,1.6125,0.0,0.0,0.0,0.0,1.9437,0.0,1.9256,1.8957,1.839,1.7496,1.6437,1.6437,1.6437,1.6437,1.6437,1.6846,1.7253,1.6683,0.0,0.0,0.0,0.0,0.0,0.0,0.0,1.4532,1.4275,1.4538,0.0,0.0,0.0,0.0,0.0,0.0,0.0,0.0,0.0,0.0,0.0,0.0,0.0,1.7161,1.7281,1.7375,1.7375,1.7629,1.7495,1.6719,1.6719,1.6168,1.4641,1.431,1.3521,1.1453,1.1245,1.0552,0.9054,0.894,0.891,0.8832,0.876,0.8754,0.8825,0.8757,0.872,0.872,0.872,0.872,0.872,0.857,0.8499,0.8506,0.8645,0.8794,0.894,0.894,0.894,0.894,0.894,0.894,0.894,0.894,0.894,0.8947,0.9022,0.9052,0.9052,0.0,0.0,0.0,0.0,0.0,0.0,0.0,0.0,0.0,0.0,0.0,0.0,0.0,0.0,0.0,0.0,0.0,0.0,0.0,0.0,0.0,0.0,1.638,1.6245,1.737,1.6241,1.5812,1.607,0.0,0.0,0.0,0.0,0.0,1.8828,0.0,1.9591,1.9283,1.9116,1.831,1.7342,1.7342,1.7342,1.7342,1.7342,1.7504,1.7819,1.7415,1.7174,1.6896,1.6492,0.0,0.0,0.0,0.0,1.5266,1.4214,1.5234,0.0,0.0,0.0,0.0,0.0,0.0,0.0,0.0,0.0,0.0,0.0,0.0,1.6707,1.6707,1.6907,1.7074,1.7074,1.7275,1.7428,1.7428,1.7428,1.6892,1.5499,1.5282,1.4215,1.1328,1.1008,1.0409,0.8786,0.8672,0.8672,0.8672,0.855,0.854,0.8665,0.855,0.8482,0.8482,0.8482,0.8482,0.8479,0.8336,0.8272,0.8279,0.8523,0.8716,0.8862,0.8916,0.8923,0.8903,0.8927,0.894,0.894,0.894,0.894,0.894,0.894,0.894,0.894,0.0,0.0,0.0,0.0,0.0,0.0,0.0,0.0,0.0,0.0,0.0,0.0,0.0,0.0,0.0,0.0,0.0,0.0,0.0,0.0,0.0,1.7225,1.5982,1.5499,1.606,1.5563,1.4856,1.4099,0.0,0.0,0.0,0.0,0.0,1.804,0.0,0.0,2.0323,1.9362,1.831,1.7342,1.7342,1.7342,1.7342,1.7342,1.8461,1.9923,1.798,1.7661,1.8011,1.7334,1.6261,0.0,0.0,0.0,1.4759,1.4929,1.4625,0.0,0.0,0.0,0.0,0.0,0.0,0.0,0.0,0.0,0.0,0.0,1.6319,1.6707,1.6707,1.674,1.6767,1.6767,1.68,1.682,1.682,1.682,1.6302,1.5053,1.4849,1.3815,1.1028,1.0719,1.0088,0.8618,0.8513,0.8513,0.8513,0.8492,0.8489,0.8513,0.8492,0.8482,0.8482,0.8482,0.8482,0.8479,0.8336,0.8272,0.8272,0.8313,0.8408,0.8557,0.8821,0.8862,0.875,0.8882,0.894,0.894,0.894,0.894,0.894,0.894,0.894,0.894,0.0,0.0,0.0,0.0,0.0,0.0,0.0,0.0,0.0,0.0,0.0,0.0,0.0,0.0,0.0,0.0,0.0,0.0,0.0,0.0,0.0,1.6268,1.4558,1.396,1.4887,1.4048,1.3593,0.0,0.0,0.0,0.0,1.3431,1.4829,0.0,0.0,0.0,0.0,1.823,1.7738,1.7342,1.7342,1.7086,1.6913,1.7897,1.8677,1.9212,1.9187,1.9173,1.9164,1.8871,1.797,1.709,1.7058,0.0,0.0,0.0,1.4741,0.0,1.457,0.0,0.0,0.0,0.0,0.0,0.0,0.0,0.0,1.5832,1.6032,1.6219,1.6219,1.6353,1.6466,1.6466,1.66,1.6707,1.6707,1.6085,1.5462,1.485,1.485,1.4027,1.1981,1.1775,1.1111,0.9583,0.8767,0.8364,0.8364,0.8279,0.8272,0.836,0.8279,0.8235,0.8235,0.8235,0.8235,0.8231,0.817,0.814,0.8143,0.8231,0.8347,0.8489,0.8625,0.8645,0.8587,0.8655,0.8733,0.8811,0.8811,0.8862,0.894,0.894,0.894,0.894,0.0,0.0,0.0,0.0,0.0,0.0,0.0,0.0,0.0,0.0,0.0,0.0,0.0,0.0,0.0,0.0,0.0,0.0,0.0,0.0,0.0,1.5089,1.3278,1.2769,1.3664,1.2776,0.0,0.0,0.0,0.0,1.2318,1.2926,1.3791,0.0,1.5967,0.0,0.0,0.0,0.0,1.6782,1.6597,1.6337,1.6125,1.7372,1.7746,1.7721,1.9142,1.9497,1.9312,1.9759,1.896,1.7828,1.7723,1.6987,0.0,0.0,0.0,0.0,0.0,0.0,0.0,0.0,0.0,0.0,0.0,0.0,0.0,0.0,1.5718,1.5745,1.5812,1.6012,1.6159,1.6159,1.6339,1.648,1.648,1.5668,1.4953,1.4648,1.4548,1.4048,1.2532,1.243,1.1755,1.0305,0.9307,0.8613,0.8211,0.8102,0.8092,0.8208,0.8099,0.8038,0.8038,0.8038,0.8038,0.8038,0.8038,0.8038,0.8041,0.816,0.8269,0.8374,0.8448,0.8462,0.8431,0.8469,0.855,0.8655,0.8696,0.8781,0.8886,0.8923,0.894,0.894,0.0,0.0,0.0,0.0,0.0,0.0,0.0,0.0,0.0,0.0,0.0,0.0,0.0,0.0,0.0,1.551,1.4462,1.404,1.479,1.4148,1.3752,1.3837,1.2865,0.0,1.2399,1.2311,0.0,0.0,0.0,0.0,1.2318,1.2926,1.322,1.3412,1.5005,1.6226,1.6876,0.0,0.0,0.0,1.479,1.4706,1.4842,0.0,1.5247,0.0,0.0,1.7197,1.7579,1.9331,1.8044,1.5978,1.7278,1.6304,1.4672,0.0,0.0,0.0,0.0,0.0,0.0,0.0,0.0,0.0,0.0,0.0,0.0,0.0,1.5418,1.5504,1.5778,1.5838,1.5852,1.5852,1.5865,1.5872,1.5872,1.5777,1.5287,1.4112,1.3913,1.3431,1.2078,1.198,1.1389,1.0109,0.9916,0.9327,0.8052,0.8041,0.8041,0.8052,0.8041,0.8038,0.8038,0.8038,0.8038,0.8038,0.8038,0.8038,0.8038,0.8048,0.8055,0.8079,0.836,0.8408,0.8292,0.8428,0.8486,0.8509,0.8655,0.8716,0.874,0.8886,0.894,0.894,0.0,0.0,0.0,0.0,0.0,0.0,0.0,0.0,0.0,0.0,0.0,0.0,0.0,1.4967,1.4478,1.4162,1.3838,1.3687,1.3953,1.3621,1.3469,1.3425,1.2698,1.2305,1.2305,1.2305,0.0,0.0,0.0,1.2305,1.2311,1.2719,1.3019,1.3233,1.4221,1.4837,1.5039,1.4437,0.0,0.0,1.4052,1.3856,1.4126,0.0,0.0,0.0,0.0,0.0,1.708,1.7485,1.6934,1.5988,1.5899,1.5187,1.4234,1.3832,1.329,0.0,0.0,0.0,0.0,0.0,0.0,0.0,0.0,0.0,1.499,1.5097,1.5117,1.515,1.5257,1.5578,1.5832,1.5832,1.5832,1.5832,1.5832,1.5146,1.4364,1.3974,1.3878,1.3686,1.3199,1.2431,1.175,1.1263,0.9706,0.8528,0.8038,0.8038,0.8038,0.8038,0.8038,0.8038,0.8038,0.8038,0.8038,0.8038,0.8038,0.8038,0.8038,0.8038,0.8038,0.8045,0.815,0.817,0.8126,0.8177,0.8258,0.835,0.8408,0.8482,0.8581,0.8733,0.8794,0.8808,0.0,0.0,0.0,0.0,0.0,0.0,0.0,0.0,0.0,0.0,0.0,0.0,0.0,0.0,1.3705,1.2679,1.2499,1.2392,1.2382,1.2042,1.1893,1.1965,1.1883,1.1768,1.1768,1.215,0.0,0.0,0.0,0.0,0.0,1.2605,1.3083,1.3535,1.404,1.4324,0.0,0.0,0.0,1.5548,1.3522,1.3504,1.4599,0.0,0.0,0.0,0.0,0.0,0.0,1.6302,1.5994,1.5475,1.4911,1.4499,1.4052,1.3365,1.3066,0.0,1.2652,0.0,0.0,0.0,0.0,0.0,0.0,0.0,1.4549,1.4649,1.4669,1.473,1.493,1.5277,1.5571,1.5665,1.5685,1.5718,1.5812,1.5045,1.4555,1.4555,1.4555,1.4364,1.3974,1.3102,1.2237,1.1361,0.9645,0.8474,0.8038,0.7991,0.7987,0.8038,0.8038,0.8038,0.8038,0.8038,0.8038,0.8038,0.8038,0.8038,0.8038,0.8038,0.8038,0.8038,0.8038,0.8038,0.8038,0.8038,0.8099,0.8197,0.8252,0.833,0.8435,0.8635,0.871,0.873,0.0,0.0,0.0,0.0,0.0,0.0,0.0,0.0,0.0,0.0,0.0,0.0,0.0,0.0,0.0,1.1085,1.0364,1.0002,0.9837,0.9372,0.9155,0.9281,1.0265,1.0783,1.0783,1.1774,0.0,0.0,0.0,0.0,0.0,0.0,1.3258,1.4178,1.4498,1.4896,1.526,0.0,1.4668,1.6632,0.0,1.3769,1.6204,0.0,0.0,0.0,1.626,1.5834,0.0,1.5779,0.0,0.0,0.0,0.0,1.3955,1.3387,0.0,0.0,0.0,0.0,0.0,0.0,0.0,0.0,1.3641,0.0,1.3728,1.4015,1.4075,1.4249,1.4823,1.4923,1.5023,1.5317,1.5378,1.5484,1.5785,1.5818,1.5812,1.5812,1.5812,1.5324,1.4052,1.3855,1.2791,1.0275,0.9812,0.9212,0.8018,0.7889,0.7879,0.8028,0.8038,0.8038,0.8038,0.8038,0.8038,0.8038,0.8038,0.8038,0.8038,0.8038,0.8038,0.8038,0.8038,0.8038,0.8038,0.8038,0.8038,0.8055,0.8204,0.8262,0.8299,0.8591,0.8699,0.872,0.0,0.0,0.0,0.0,0.0,0.0,0.0,0.0,0.0,0.0,0.0,0.0,0.0,0.0,0.0,0.9477,0.9058,0.8843,0.8822,0.8861,0.8883,0.8932,1.0121,1.0783,1.0783,1.1774,0.0,0.0,0.0,0.0,0.0,0.0,0.0,0.0,1.426,1.5315,1.6919,1.5554,0.0,0.0,1.4649,1.4933,0.0,0.0,0.0,0.0,0.0,1.4528,1.3877,0.0,1.3908,1.3801,0.0,0.0,0.0,0.0,0.0,0.0,1.2741,0.0,0.0,0.0,0.0,0.0,0.0,0.0,0.0,1.3748,1.3768,1.3814,1.3975,1.4008,1.4175,1.4683,1.4943,1.5257,1.5758,1.5651,1.5518,1.5518,1.5518,1.5338,1.4754,1.3049,1.1745,0.0,0.9272,0.8051,0.7719,0.7777,0.7831,0.7872,0.798,0.8038,0.8038,0.8038,0.8038,0.8038,0.8038,0.8038,0.8038,0.8038,0.8038,0.8038,0.8038,0.8038,0.8038,0.8038,0.8038,0.8041,0.8089,0.8102,0.8126,0.8319,0.8391,0.8414,0.0,0.0,0.0,0.0,0.0,0.0,0.0,0.0,0.0,0.0,0.0,0.0,0.0,0.0,0.0,0.8844,0.8327,0.8022,0.7915,0.7708,0.7833,0.838,0.9513,1.034,1.0783,1.1774,1.2305,0.0,0.0,0.0,0.0,0.0,0.0,0.0,0.0,0.0,0.0,0.0,0.0,0.0,1.5176,0.0,0.0,1.6133,1.551,0.0,0.0,0.0,1.417,1.3521,1.35,0.0,0.0,0.0,0.0,0.0,0.0,0.0,0.0,0.0,0.0,0.0,0.0,0.0,1.3233,1.3273,1.3273,0.0,1.3273,1.3307,1.344,1.346,1.3654,1.4242,1.4382,1.4663,1.5371,1.5324,1.5217,1.5217,1.5217,1.4962,1.4237,1.2836,1.1828,1.1278,0.9828,0.869,0.8232,0.8385,0.8189,0.7723,0.7807,0.7855,0.7855,0.7855,0.7885,0.7943,0.7943,0.7977,0.8038,0.8038,0.8038,0.8038,0.8038,0.8038,0.8038,0.8038,0.8038,0.8038,0.8038,0.8038,0.8058,0.8214,0.8272,0.8292,0.0,0.0,0.0,0.0,0.0,0.0,0.0,0.0,0.0,0.0,0.0,0.0,0.0,0.0,0.0,0.0,0.815,0.7671,0.7521,0.6799,0.685,0.7897,0.8903,0.989,1.0783,1.1774,1.2305,1.2305,0.0,0.0,0.0,0.0,0.0,0.0,0.0,0.0,0.0,0.0,0.0,1.8856,1.5324,1.6071,0.0,0.0,1.7251,1.7534,1.6927,1.5984,1.4853,1.3913,1.3594,0.0,0.0,0.0,0.0,0.0,1.2939,0.0,0.0,0.0,0.0,0.0,0.0,0.0,1.2876,1.2876,1.2869,1.2829,1.2822,1.2839,1.3153,1.3213,1.3407,1.3995,1.3868,1.3988,1.4843,1.4937,1.4917,1.4917,1.4917,1.4436,1.3213,1.3021,1.2473,1.1283,1.093,1.0286,0.9123,0.9213,0.8765,0.7573,0.759,0.76,0.76,0.76,0.7662,0.7787,0.7787,0.7858,0.7991,0.8007,0.8014,0.8014,0.8031,0.8038,0.8038,0.8038,0.8038,0.8038,0.8038,0.8038,0.8055,0.8194,0.8245,0.8262,0.0,0.0,0.0,0.0,0.0,0.0,0.0,0.0,0.0,0.0,0.0,0.0,0.0,0.0,0.0,0.0,0.9065,0.8941,0.8944,0.8788,0.8798,0.8983,0.9965,1.0565,1.0783,1.1774,1.2305,1.2305,0.0,0.0,0.0,0.0,0.0,0.0,0.0,0.0,0.0,0.0,0.0,1.8054,1.6041,0.0,1.9083,1.6797,1.6409,1.7089,1.7013,1.5953,1.4516,1.3605,1.3293,1.3287,0.0,0.0,0.0,1.2852,0.0,0.0,0.0,0.0,0.0,0.0,0.0,0.0,1.312,1.312,1.3053,0.0,1.2822,1.2839,1.3153,1.3213,1.3407,1.3995,1.4041,1.4229,1.487,1.4756,1.4603,1.4603,1.4603,1.4429,1.3926,1.301,1.2302,1.2042,1.1218,1.0154,0.9029,0.902,0.8584,0.7506,0.7536,0.76,0.76,0.76,0.7614,0.7641,0.7641,0.7655,0.7689,0.7804,0.7855,0.7862,0.7987,0.8038,0.8038,0.8038,0.8038,0.8038,0.8038,0.8038,0.8041,0.8072,0.8085,0.8089,0.0,0.0,0.0,0.0,0.0,0.0,0.0,0.0,0.0,0.0,0.0,0.0,0.0,0.0,0.0,0.0,0.0,0.0,0.0,0.9321,0.9492,1.004,1.0565,1.1013,1.1539,1.207,1.2305,1.2305,0.0,0.0,0.0,0.0,0.0,0.0,0.0,0.0,0.0,0.0,1.7817,1.8482,1.6303,0.0,1.7806,1.6572,1.6368,1.683,1.6965,1.5947,1.4469,1.3331,1.318,0.0,1.3073,1.308,1.3133,0.0,1.2714,1.2492,0.0,0.0,0.0,1.2788,0.0,0.0,0.0,1.2973,1.2799,1.2946,1.2732,1.2619,1.2926,1.2979,1.3126,1.3574,1.3647,1.3854,1.4442,1.4402,1.4302,1.4302,1.4302,1.4249,1.4102,1.3555,1.3203,1.3203,1.2077,1.0956,0.9836,0.9235,0.8456,0.7153,0.7224,0.7265,0.7265,0.719,0.7265,0.7485,0.7407,0.7451,0.76,0.7675,0.7743,0.7814,0.7892,0.797,0.8038,0.8038,0.8038,0.8038,0.8038,0.8038,0.8038,0.8038,0.8038,0.8038,0.0,0.0,0.0,0.0,0.0,0.0,0.0,0.0,0.0,0.0,0.0,0.0,0.0,0.0,0.0,0.0,0.0,0.0,0.0,0.0,1.0124,1.1009,1.1063,1.144,1.2218,1.2271,1.2305,1.2305,0.0,0.0,0.0,0.0,0.0,0.0,0.0,0.0,0.0,0.0,0.0,1.8841,0.0,1.628,1.7165,1.6578,1.6473,1.665,1.6464,1.5494,1.4278,1.3411,1.3301,1.3394,1.327,1.3277,0.0,0.0,0.0,0.0,0.0,0.0,0.0,0.0,0.0,1.2659,0.0,0.0,0.0,0.0,0.0,0.0,0.0,0.0,0.0,0.0,0.0,0.0,0.0,1.4048,0.0,1.4162,1.4021,1.3961,1.4075,1.4035,1.3975,1.3921,1.3096,1.2088,1.0888,0.9909,0.8815,0.7606,0.7321,0.7137,0.7137,0.6846,0.6898,0.7285,0.716,0.7244,0.7512,0.7543,0.7617,0.7729,0.7787,0.7882,0.7997,0.8028,0.8038,0.8038,0.8038,0.8038,0.8038,0.8038,0.8038,0.8038,1.2251,1.2224,0.0,0.0,0.0,0.0,0.0,0.0,0.0,0.0,0.0,0.0,0.0,0.0,0.0,0.0,0.0,0.0,1.2316,0.0,0.0,1.1768,1.2012,1.2105,1.1924,1.2171,1.2305,1.2305,0.0,0.0,0.0,0.0,0.0,0.0,1.6102,0.0,0.0,0.0,1.8066,0.0,1.7303,1.7981,0.0,1.6393,1.6085,1.6848,1.4824,1.3965,1.3821,0.0,1.3618,1.311,0.0,1.3838,1.297,1.3093,0.0,0.0,0.0,0.0,0.0,0.0,1.3327,0.0,0.0,0.0,1.2721,1.2445,0.0,0.0,0.0,0.0,0.0,0.0,0.0,0.0,1.3687,1.3921,1.4182,1.4442,1.3788,1.3514,1.4035,1.3848,1.3587,1.3333,1.3378,1.2928,1.1821,1.1362,1.0762,0.9858,0.8695,0.8032,0.8032,0.7116,0.6793,0.698,0.6959,0.7037,0.7197,0.7336,0.7407,0.7438,0.7695,0.7821,0.7848,0.7984,0.8038,0.8038,0.8038,0.8038,0.8038,0.8038,0.8038,0.8038,1.2058,1.1732,0.0,0.0,0.0,0.0,0.0,0.0,0.0,0.0,0.0,0.0,0.0,0.0,0.0,0.0,0.0,1.2157,0.0,0.0,0.0,1.2446,1.2498,1.2425,1.2124,1.2238,1.2592,1.3091,1.3528,0.0,0.0,0.0,0.0,0.0,1.6607,0.0,1.7285,0.0,1.7793,0.0,0.0,0.0,0.0,1.6295,1.5547,1.5774,1.4072,1.3581,1.3695,0.0,1.3984,0.0,0.0,0.0,0.0,1.4197,0.0,0.0,0.0,0.0,0.0,0.0,0.0,0.0,1.3033,0.0,1.2552,0.0,0.0,0.0,0.0,0.0,0.0,0.0,1.3126,0.0,0.0,0.0,1.3353,0.0,0.0,0.0,1.3821,1.3714,1.3527,1.3233,1.2806,1.2304,1.1735,1.0891,1.0256,0.9812,0.9242,0.864,0.8083,0.7589,0.7123,0.6797,0.6705,0.6742,0.6892,0.7044,0.716,0.7248,0.7461,0.7651,0.7818,0.7879,0.796,0.8038,0.8038,0.8038,0.8038,0.8038,0.8038,0.8038,1.1832,0.0,0.0,0.0,0.0,0.0,0.0,0.0,0.0,0.0,0.0,0.0,1.2305,1.2628,0.0,0.0,1.231,1.2432,0.0,0.0,1.2365,1.2573,1.2735,0.0,1.2311,1.2385,1.2973,1.4014,0.0,0.0,0.0,0.0,0.0,0.0,0.0,1.6994,1.7109,0.0,1.7734,1.8018,1.8135,1.8337,1.8356,1.6492,1.5539,1.5059,1.4175,1.3757,1.376,1.4133,1.4261,0.0,1.4059,1.4981,1.581,0.0,0.0,0.0,1.4518,0.0,0.0,0.0,0.0,0.0,0.0,0.0,0.0,0.0,0.0,0.0,0.0,0.0,0.0,0.0,0.0,1.2953,0.0,1.2826,0.0,0.0,0.0,0.0,0.0,1.3594,1.3454,1.2999,1.2481,1.2116,1.1769,1.0881,1.0431,1.0395,1.002,0.9519,0.8741,0.8381,0.7964,0.7593,0.7101,0.7053,0.7261,0.7045,0.6987,0.7092,0.7288,0.7492,0.7695,0.7777,0.7875,0.798,0.8024,0.8038,0.8038,0.8038,0.8038,0.8038,1.1501,1.2098,0.0,0.0,0.0,0.0,0.0,0.0,0.0,0.0,0.0,0.0,0.0,0.0,0.0,0.0,0.0,1.2317,1.3133,0.0,1.2178,1.1911,1.252,1.2605,0.0,1.2585,1.3397,1.4764,0.0,0.0,0.0,0.0,0.0,0.0,0.0,1.6671,1.7969,1.7978,1.7998,1.8047,1.8457,1.7802,1.6709,0.0,1.634,1.5163,1.5147,0.0,0.0,1.5267,1.444,0.0,0.0,0.0,0.0,0.0,0.0,0.0,0.0,0.0,0.0,1.3353,0.0,0.0,0.0,0.0,1.2392,0.0,0.0,0.0,0.0,0.0,0.0,0.0,0.0,0.0,0.0,0.0,0.0,0.0,0.0,0.0,0.0,1.348,1.328,1.2398,1.2809,1.2882,1.2284,1.2251,1.2377,1.2656,1.1464,1.072,1.072,0.9744,0.9436,0.9771,0.8529,0.8158,0.8598,0.7432,0.6929,0.6953,0.7244,0.7377,0.7407,0.7692,0.7814,0.7834,0.798,0.8038,0.8038,0.8038,0.8038,0.8038,0.0,0.0,0.0,0.0,0.0,0.0,0.0,1.2472,0.0,0.0,0.0,0.0,0.0,1.3564,1.3571,0.0,0.0,1.2981,1.3406,1.3126,0.0,0.0,0.0,1.3106,0.0,0.0,0.0,0.0,0.0,0.0,0.0,0.0,0.0,0.0,0.0,1.5699,0.0,0.0,0.0,0.0,0.0,1.7408,1.7345,0.0,1.4993,1.4068,1.3285,1.292,0.0,1.4011,1.42,1.3848,1.4037,1.4584,1.5048,1.4212,1.4258,1.4612,0.0,0.0,1.3995,1.3594,0.0,0.0,0.0,0.0,0.0,0.0,0.0,0.0,0.0,0.0,0.0,0.0,0.0,0.0,0.0,0.0,0.0,0.0,0.0,0.0,0.0,0.0,1.2846,1.2338,1.2311,1.2231,1.2031,1.2017,1.2151,1.2445,1.2048,1.1465,1.0783,1.0484,1.0046,0.9514,0.9058,0.9013,0.9365,0.8882,0.8452,0.811,0.806,0.7801,0.738,0.7478,0.7634,0.7818,0.7868,0.795,0.8038,0.8038,0.8038,0.8038,0.9965,0.0,0.0,0.0,0.0,0.0,0.0,0.0,0.0,0.0,1.3684,0.0,1.4119,0.0,1.4149,0.0,1.351,1.3635,1.4275,1.3682,0.0,1.3745,1.3642,0.0,0.0,0.0,0.0,0.0,0.0,1.4599,0.0,0.0,0.0,0.0,0.0,1.4806,1.443,1.5968,1.5703,0.0,0.0,1.6991,0.0,0.0,1.5306,1.5059,0.0,1.3487,1.3375,1.36,1.3667,1.3585,1.3302,1.4022,1.4757,1.3895,1.4077,1.4583,1.4583,1.4344,0.0,1.3714,1.35,0.0,1.2916,0.0,1.2492,0.0,0.0,0.0,0.0,0.0,0.0,0.0,0.0,0.0,0.0,1.2822,0.0,0.0,0.0,0.0,0.0,1.3073,1.2652,1.2037,1.1716,1.1638,1.1724,1.152,1.1709,1.2291,1.2305,1.1996,1.1316,1.1316,1.1067,1.0557,1.0084,0.9942,1.025,0.9693,0.9332,0.909,0.9083,0.8611,0.7919,0.7974,0.788,0.774,0.779,0.7906,0.8038,0.8038,0.8038,0.8038,0.0,0.0,0.0,0.0,1.2298,0.0,0.0,0.0,1.3314,0.0,1.4201,1.4431,1.4222,1.4389,1.4408,1.4161,1.3802,1.4192,1.5516,1.4392,0.0,0.0,1.4051,1.3661,1.3559,0.0,0.0,0.0,0.0,0.0,0.0,0.0,0.0,0.0,1.3673,0.0,1.4542,1.4998,1.5035,1.4813,1.5991,1.6498,1.6567,1.6567,1.7139,1.7794,1.6853,1.593,1.5021,1.4027,1.3091,1.2372,1.2298,1.2305,1.2305,1.2305,1.2726,1.3186,1.3186,1.3607,1.3981,1.3707,1.3552,0.0,0.0,0.0,1.2852,0.0,0.0,0.0,0.0,0.0,0.0,0.0,0.0,0.0,0.0,0.0,0.0,0.0,0.0,0.0,0.0,1.2993,1.2672,1.1461,1.1141,1.1039,0.0,1.0827,1.1106,1.2198,1.2204,1.2211,1.2305,1.2305,1.2445,1.2795,1.1515,1.1006,1.1272,1.0151,0.9805,1.0045,1.0093,0.9724,0.8903,0.8983,0.844,0.7604,0.7746,0.7899,0.8038,0.8038,0.8038,0.8038,1.019,1.1019,1.1909,0.0,1.2785,1.2553,0.0,0.0,0.0,0.0,1.4968,1.4949,1.5025,1.4694,1.4443,1.4394,1.4342,0.0,0.0,0.0,0.0,1.3939,1.3973,1.3868,1.3647,1.3861,0.0,1.4152,0.0,0.0,1.3307,0.0,0.0,0.0,0.0,0.0,1.2377,1.4331,1.5176,1.5031,1.4625,1.4871,1.5658,0.0,1.6775,1.6853,1.5869,1.5376,1.5021,1.4027,1.3528,1.3244,1.2519,1.2305,1.2305,1.2305,1.2572,1.2866,1.2866,1.3146,1.3467,1.3607,1.348,1.334,0.0,0.0,0.0,0.0,0.0,0.0,0.0,0.0,0.0,0.0,0.0,0.0,0.0,0.0,0.0,1.119,0.0,1.1677,1.2955,1.2559,1.1867,1.0848,1.0931,1.043,0.9265,0.9846,1.0467,1.1021,1.1033,1.1424,1.2298,1.2305,1.2338,1.2418,1.2109,1.2071,1.235,1.1822,1.1474,1.1342,1.0244,0.9508,0.8807,0.797,0.7555,0.7444,0.7594,0.7814,0.8038,0.8038,0.8038,0.8038,1.0062,0.0,0.0,1.3119,0.0,0.0,1.4649,1.4929,0.0,1.5569,1.5514,0.0,1.4981,1.4688,1.4518,1.467,1.4482,0.0,1.569,0.0,0.0,1.5928,1.5696,1.5315,1.4984,1.4767,0.0,1.4272,0.0,0.0,1.2946,0.0,0.0,0.0,0.0,1.2541,1.1706,1.316,1.3818,1.3954,1.3738,1.4027,0.0,1.5649,1.5896,1.5748,1.5541,1.5652,1.5649,1.4665,1.4027,1.36,1.3098,1.2666,1.2305,1.2305,1.2512,1.2822,1.2822,1.3066,1.344,1.3519,1.3621,1.3601,1.3634,1.3514,1.34,0.0,1.33,1.3081,0.0,0.0,0.0,0.0,0.0,0.0,0.0,0.0,0.0,0.0,0.9999,1.0306,1.1361,1.1601,1.146,1.0962,1.0861,1.0486,0.0,0.9808,1.0018,1.0485,1.071,1.092,1.1025,1.1521,1.1534,1.0924,1.0924,1.1003,1.1148,1.0991,1.0913,1.088,1.0121,0.94,0.8772,0.8162,0.7674,0.7394,0.7607,0.7794,0.7946,0.8014,0.8038,0.8038,0.98,0.0,0.0,0.0,0.0,0.0,0.0,1.6545,0.0,1.5963,0.0,1.5431,1.4633,1.4464,1.4542,1.4843,0.0,1.5148,1.7379,1.6399,1.664,1.8718,1.7777,1.7031,1.6702,1.5873,1.5325,0.0,0.0,0.0,0.0,0.0,0.0,0.0,0.0,0.0,0.0,1.1911,1.2051,1.2318,1.315,1.3528,1.36,1.4593,1.4825,1.4684,1.5495,1.6097,1.6417,1.5581,1.4767,1.4027,1.3818,1.3171,1.2445,1.2372,1.2485,1.2761,1.2761,1.31,1.3534,1.3574,1.3808,1.3961,1.3701,1.3559,1.3552,1.3424,1.3139,1.2708,1.1858,0.0,0.0,0.0,0.0,0.0,0.0,0.0,0.0,0.0,0.0,0.0,0.9296,1.036,1.0987,1.0918,1.0574,1.0432,0.0,0.0,0.9437,1.0001,1.0455,1.0242,0.9342,1.0429,1.0318,0.9117,0.9165,0.915,0.915,0.915,0.9321,0.9754,0.9697,0.9349,0.8743,0.8649,0.8205,0.74,0.7675,0.7794,0.7831,0.7984,0.8038,0.8038,0.0,0.0,0.0,0.0,0.0,1.5555,1.7288,1.6301,1.5442,1.5856,1.5495,1.4954,1.4572,1.434,1.4177,1.4223,1.4382,0.0,0.0,0.0,0.0,1.7513,1.7116,1.676,1.6694,1.6167,1.6089,0.0,0.0,0.0,0.0,0.0,0.0,0.0,0.0,0.0,1.1884,1.2124,0.0,1.1964,1.2424,1.2519,1.2666,1.36,1.3917,1.4007,1.4993,1.567,1.6138,1.5869,1.5945,1.579,1.4243,1.36,1.331,1.2519,1.2338,1.2378,1.2378,1.2639,1.2966,1.322,1.3507,1.3707,1.3572,1.3559,1.3323,1.2265,1.2018,1.1674,1.0659,0.0,0.0,0.0,0.0,0.0,0.0,0.0,0.0,0.0,0.0,0.8119,0.92,0.9269,0.8959,0.8239,0.8777,0.8413,0.6737,0.7415,0.7819,0.7833,0.8057,0.8552,0.9476,0.9576,0.9555,0.9416,0.9322,0.9241,0.9241,0.9241,0.9473,0.9802,0.8878,0.8606,0.8757,0.783,0.741,0.739,0.7567,0.7709,0.7831,0.7984,0.8038,0.8038,0.0,0.0,0.0,0.0,0.0,0.0,0.0,1.506,1.5267,1.6012,1.5461,1.4838,1.4314,1.4144,1.4163,1.4322,1.4302,1.4725,1.5628,1.5845,1.6277,1.7269,1.708,1.7046,1.7209,1.6471,1.6371,1.6833,0.0,0.0,0.0,0.0,0.0,0.0,0.0,1.2084,0.0,0.0,0.0,1.2104,1.2245,1.2305,1.2378,1.2806,1.2926,1.2856,1.3775,1.4359,1.4712,1.5317,1.5356,1.4942,1.4027,1.3382,1.2879,1.2445,1.2305,1.2338,1.2492,1.2714,1.2896,1.3133,1.3313,1.342,1.342,1.342,1.3213,1.2584,1.2068,1.1169,0.9543,0.8821,0.0,0.0,0.0,0.0,0.0,0.0,0.6683,0.0,0.0,0.0,0.0,0.0,0.0,0.0,0.0,0.8447,0.7104,0.753,0.7582,0.7225,0.7565,0.7799,0.7827,0.8636,0.8658,0.7681,0.7761,0.7718,0.7559,0.7559,0.7756,0.8104,0.7636,0.7575,0.7812,0.7285,0.7183,0.7275,0.7509,0.7641,0.7729,0.7957,0.8038,0.8038,0.0,1.3675,0.0,0.0,1.354,0.0,1.3176,1.4106,1.5147,1.5876,1.536,1.4754,1.4179,1.4088,1.4182,1.4409,1.4162,1.4476,1.5517,1.5591,1.6052,1.7103,1.7103,1.7111,1.7287,1.6345,1.6159,0.0,0.0,0.0,0.0,0.0,0.0,0.0,0.0,0.0,0.0,0.0,1.2017,1.2118,1.2184,1.2204,1.2218,1.2278,1.2164,1.2101,1.2664,1.3019,1.326,1.4221,1.4307,1.3954,1.3745,1.3171,1.2592,1.2372,1.2305,1.2351,1.2585,1.2775,1.2882,1.3053,1.316,1.3193,1.3126,1.3113,1.3014,1.2792,1.1897,1.063,0.8657,0.7623,0.0,0.0,0.0,0.0,0.0,0.0,0.643,0.0,0.0,0.0,0.6338,0.0,0.0,0.0,0.8529,0.8387,0.7839,0.7712,0.7401,0.6861,0.7421,0.7247,0.6438,0.7659,0.7386,0.5469,0.6061,0.6197,0.6037,0.6064,0.624,0.6525,0.6647,0.6803,0.6983,0.7095,0.7139,0.7166,0.7444,0.757,0.7631,0.7892,0.8011,0.8038,0.0,0.0,0.0,0.0,0.0,0.0,1.4262,1.4446,1.4545,1.4638,1.4633,1.4467,1.4088,1.4088,1.4095,1.4128,1.3854,1.4158,1.5262,1.5343,1.5668,1.642,1.6403,1.6221,1.5978,1.5238,1.5047,0.0,0.0,1.3712,0.0,0.0,0.0,0.0,0.0,0.0,0.0,1.2044,1.1971,1.153,1.1804,1.1911,1.1937,1.2204,1.2285,1.2258,1.2331,1.2405,1.2412,1.2505,1.3665,1.4879,1.3954,1.3673,1.3382,1.2519,1.2305,1.2311,1.2338,1.2538,1.2829,1.2856,1.3006,1.3133,1.2852,1.2869,1.2477,1.1289,1.0187,0.9187,0.8199,0.7878,0.7497,0.0,0.0,0.0,0.0,0.0,0.6468,0.6454,0.0,0.0,0.6338,0.6338,0.0,0.0,0.6339,0.6264,0.6072,0.6307,0.6332,0.6088,0.6475,0.6708,0.6761,0.6624,0.5619,0.3816,0.5497,0.6279,0.6282,0.6259,0.64,0.6678,0.6695,0.6861,0.7122,0.7136,0.7139,0.7156,0.7326,0.7478,0.7617,0.7773,0.7919,0.8038,0.0,0.0,0.0,0.0,0.0,0.0,0.0,1.4011,1.4277,1.4277,1.4277,1.4186,1.4088,1.4088,1.4088,1.4088,1.3814,1.3797,1.4272,1.4104,1.4173,1.4499,1.4421,1.4567,1.4828,1.4346,1.4417,0.0,0.0,0.0,0.0,0.0,0.0,0.0,0.0,1.2118,1.1957,1.2017,1.2011,1.1964,1.2084,1.2131,1.2144,1.2258,1.2305,1.2305,1.2305,1.2305,1.2305,1.2305,1.2806,1.3375,1.3025,1.2879,1.2806,1.2445,1.2305,1.2345,1.2518,1.2525,1.2525,1.2775,1.2705,1.2632,1.2505,1.2478,1.237,1.1793,1.0864,0.9916,0.8947,0.8763,0.8494,0.7525,0.0,0.0,0.0,0.0,0.0,0.6227,0.0,0.6122,0.6122,0.6122,0.0,0.0,0.6169,0.6101,0.5945,0.5969,0.6081,0.6288,0.6159,0.6325,0.6671,0.5132,0.4262,0.3982,0.4255,0.5089,0.6336,0.64,0.6552,0.6844,0.6926,0.7031,0.7139,0.7139,0.7139,0.7156,0.7312,0.7407,0.7492,0.7726,0.7848,0.7916,1.3652,0.0,1.3779,0.0,1.3941,1.4183,1.3468,1.3777,1.4088,1.4088,1.4088,1.4088,1.4088,1.4088,1.4088,1.4088,1.3734,1.3514,1.3514,1.324,1.3033,1.2946,1.3026,0.0,1.3527,1.3201,1.3219,1.3624,1.3945,0.0,0.0,0.0,0.0,0.0,1.2291,1.2017,1.2037,1.1625,1.1546,1.1719,1.142,1.1267,1.1279,1.1736,1.1797,1.1732,1.1816,1.2018,1.2118,1.1896,1.2018,1.2191,1.2278,1.2305,1.2285,1.2204,1.2231,1.2325,1.2452,1.2398,1.2351,1.2565,1.2458,1.2305,1.2305,1.2305,1.2305,1.2305,1.1768,1.0938,0.9895,0.9795,0.9406,0.8103,0.0,0.0,0.0,0.6373,0.0,0.6122,0.6098,0.6098,0.6098,0.6098,0.0,0.0,0.0,0.6217,0.5976,0.5986,0.6105,0.6335,0.6204,0.6249,0.6585,0.4247,0.3324,0.3863,0.402,0.4796,0.6283,0.6517,0.6658,0.6871,0.7058,0.7139,0.7139,0.7139,0.7139,0.7149,0.7261,0.7626,0.8004,0.8226,0.856,0.9049,1.3652,1.3118,1.2659,1.3875,1.4082,1.4088,1.4102,1.4095,1.4088,1.4088,1.4088,1.4088,1.4088,1.4088,1.4088,1.4088,1.3554,1.3213,1.3213,1.2926,1.2694,0.0,0.0,1.2553,1.1962,1.159,1.1289,1.1068,0.0,0.0,1.145,0.0,1.1997,1.1463,1.2037,1.1977,1.1388,1.0728,1.0407,1.0335,0.9238,0.887,0.8968,1.0313,1.063,1.0442,1.0695,1.129,1.1774,1.1077,1.129,1.1924,1.2211,1.2305,1.2245,1.1957,1.2078,1.2238,1.1957,1.2084,1.2305,1.2305,1.2305,1.2305,1.2305,1.2305,1.2305,1.2305,1.2298,1.1996,1.0938,1.0783,1.0187,0.8326,0.0,0.0,0.0,0.6349,0.0,0.6257,0.6335,0.6335,0.6335,0.6335,0.0,0.0,0.0,0.6274,0.5827,0.6224,0.0,0.6044,0.6499,0.675,0.6589,0.4257,0.3095,0.317,0.5217,0.6282,0.63,0.6582,0.6702,0.6719,0.7014,0.7139,0.7139,0.7139,0.7139,0.7139,0.7143,0.8035,0.9515,0.952,1.0518,1.1848,1.3822,1.3979,1.3915,1.4324,1.4412,1.4408,1.439,1.4206,1.4088,1.4088,1.4088,1.3822,1.2942,1.3381,1.3781,0.0,1.324,1.266,0.0,1.1606,1.1103,1.0276,1.0349,1.0321,1.0159,0.983,0.9953,1.0588,0.0,0.0,0.0,1.1156,1.0754,0.9862,1.1134,1.1359,1.0876,1.1249,1.1093,1.0666,1.029,0.9771,0.9175,0.9538,0.9604,0.9529,0.9432,0.9564,0.9727,0.9515,0.9564,0.9873,1.0603,1.1205,1.1683,1.1597,1.163,1.1683,1.159,1.1784,1.2004,1.2004,1.2151,1.2305,1.2305,1.2305,1.2358,1.2559,1.2605,1.2523,1.2214,1.2138,1.1411,0.9254,0.8885,0.0,0.6631,0.6288,0.622,0.6115,0.6101,0.6101,0.6101,0.6101,0.0,0.0,0.0,0.6519,0.6271,0.0,0.0,0.6485,0.6366,0.6366,0.6589,0.5749,0.5315,0.5483,0.6202,0.6544,0.674,0.6793,0.6909,0.7004,0.7099,0.7577,0.8277,0.7401,0.7638,0.8434,0.832,0.8841,0.9612,1.0445,1.1185,1.1738,1.3913,1.4229,1.4376,1.4342,1.4355,1.416,1.3695,1.3474,1.3165,1.2772,1.2692,1.235,1.1663,1.1876,0.0,1.2359,1.2286,1.1735,1.0723,1.0405,0.9965,0.9296,0.9215,0.917,0.909,0.8865,0.0,1.0044,1.0469,1.0603,1.0495,1.0501,0.998,0.897,1.0311,1.0698,1.0283,1.0866,1.0994,1.063,1.0092,0.9379,0.8622,0.8844,0.8638,0.8274,0.8216,0.8424,0.8572,0.8304,0.8419,0.8769,0.9679,1.0233,1.0715,1.1094,1.1336,1.1403,1.1289,1.1563,1.187,1.187,1.2084,1.2305,1.2305,1.1996,1.1819,1.1998,1.1808,1.1569,1.1569,1.1576,1.1002,0.9145,0.8803,0.8214,0.6416,0.6173,0.6139,0.604,0.603,0.6054,0.6112,0.6166,0.6251,0.0,0.0,0.0,0.0,0.0,0.6519,0.6536,0.6369,0.638,0.6661,0.6485,0.6485,0.6661,0.6661,0.6675,0.6844,0.6902,0.6976,0.7065,0.7552,0.8189,0.889,0.8532,0.8987,0.9848,0.9657,1.0135,1.1101,1.1668,1.2417,1.3271,1.4088,1.3997,1.3997,0.0,1.3893,1.3419,1.2199,1.1977,1.155,1.0514,1.0289,1.0208,1.0231,0.9953,0.9787,1.0108,0.0,0.0,0.9605,0.9336,0.914,0.9049,0.9015,0.8895,0.8724,0.8623,0.8837,0.9349,1.0353,1.0472,0.9806,0.9939,0.9447,0.8534,0.9563,0.9861,0.96,0.989,1.0137,1.0283,0.8978,0.8098,0.7599,0.826,0.785,0.6958,0.7115,0.7614,0.8093,0.7394,0.761,0.8332,0.9214,0.9325,0.9379,1.0614,1.1156,1.1309,1.1035,1.1376,1.1817,1.183,1.2071,1.2305,1.2305,1.1539,1.0789,1.0807,1.0094,0.9556,0.9556,0.9647,0.9313,0.8154,0.7944,0.7504,0.6218,0.603,0.603,0.603,0.0,0.0,0.6247,0.639,0.642,0.0,0.0,0.0,0.0,0.0,0.6756,0.6305,0.6559,0.6702,0.6702,0.6702,0.6705,0.6715,0.6725,0.6729,0.6736,0.6878,0.6943,0.7121,0.8384,0.8978,0.9235,1.0183,1.0829,1.1191,1.0886,1.1925,1.3612,1.3106,1.4138,1.5758,0.0,0.0,1.2656,1.259,1.1832,1.1101,1.0731,1.0616,1.0581,1.028,1.0238,0.9853,0.8964,0.9383,0.9113,0.7531,0.8829,0.9296,0.8304,0.8187,0.7715,0.6832,0.766,0.8019,0.7785,0.7891,0.7995,0.8006,0.8769,0.9061,0.8899,0.8732,0.8171,0.734,0.8865,0.919,0.8767,1.0177,1.043,0.9962,0.9689,0.8996,0.8103,0.7559,0.7112,0.6788,0.6094,0.5974,0.6078,0.5918,0.5974,0.6269,0.7118,0.7344,0.7772,1.0046,1.0715,1.0755,1.0681,1.0929,1.1256,1.1476,1.1917,1.2305,1.2305,1.1539,1.0842,1.1053,1.0426,0.9782,0.9782,0.9822,0.9465,0.8233,0.7808,0.7222,0.6186,0.603,0.603,0.0,0.623,0.6339,0.6268,0.639,0.6508,0.0,0.0,0.681,0.682,0.7105,0.7061,0.661,0.6664,0.6702,0.6702,0.6702,0.6759,0.6875,0.6983,0.7037,0.7037,0.7075,0.7523,0.8483,0.8786,0.9923,1.1466,1.0869,1.1266,1.2275,1.2294,1.2678,1.3276,1.4167,1.4942,1.5491,1.3118,1.2496,1.1873,1.1357,1.0758,1.0043,0.9304,0.9207,0.9097,0.8522,0.8379,0.8188,0.7631,0.8273,0.8394,0.723,0.8449,0.8841,0.7859,0.8237,0.8188,0.7555,0.8089,0.8169,0.7626,0.7643,0.7558,0.7296,0.7998,0.8376,0.8403,0.8183,0.7664,0.6929,0.8194,0.8554,0.8337,0.967,1.029,1.0387,1.0263,0.9744,0.8859,0.7822,0.714,0.6726,0.6172,0.5752,0.5491,0.5881,0.5752,0.5557,0.6396,0.6719,0.7042,0.8865,0.939,0.9414,0.9474,0.9693,1.0113,1.0929,1.1695,1.215,1.1694,1.0864,1.0003,0.9678,0.9011,0.8457,0.8371,0.8418,0.8254,0.7359,0.7138,0.676,0.6026,0.5986,0.6057,0.6129,0.6278,0.6396,0.6458,0.6597,0.6685,0.6698,0.6892,0.0,0.7024,0.7312,0.7299,0.6912,0.697,0.7007,0.7007,0.7007,0.7082,0.7238,0.7244,0.7282,0.7346,0.7734,0.8363,0.9217,1.009,1.1273,1.2492,1.2301,1.2829,1.3692,1.3442,1.3661,1.417,1.4438,1.4917,1.5378,1.195,1.1416,1.0963,1.0049,0.9761,0.9185,0.7909,0.7867,0.7545,0.6419,0.6338,0.6383,0.6662,0.7336,0.7859,0.8008,0.8917,0.9069,0.8084,0.8846,0.9281,0.9251,0.9285,0.896,0.8143,0.7803,0.7407,0.6899,0.7497,0.7926,0.8178,0.8053,0.7668,0.7089,0.7681,0.7926,0.7827,0.867,0.9649,1.0496,1.0283,0.9879,0.9302,0.8229,0.7372,0.665,0.6494,0.5986,0.5488,0.6237,0.5986,0.5557,0.6268,0.6527,0.6658,0.7377,0.7637,0.7676,0.8061,0.8363,0.8933,1.0386,1.1286,1.1694,1.0938,0.989,0.8841,0.8008,0.7205,0.6654,0.6502,0.6705,0.677,0.639,0.6373,0.6281,0.5922,0.0,0.6112,0.6244,0.6322,0.6451,0.6678,0.6841,0.6875,0.6746,0.7088,0.7255,0.7146,0.7431,0.7478,0.7217,0.7336,0.7407,0.7407,0.7407,0.7472,0.7597,0.7468,0.7564,0.7959,0.8669,0.9405,1.0145,1.1712,1.2602,1.3142,1.3854,1.4382,1.4783,1.4329,1.4583,1.511,1.4409,1.4656,1.5291,1.1754,1.0191,0.8864,0.855,0.771,0.6919,0.6624,0.6581,0.65,0.6338,0.6338,0.6651,0.7516,0.7723,0.8161,0.8993,0.9965,1.0115,0.9145,0.9221,0.921,0.9165,0.9852,1.0039,0.9727,0.8784,0.7491,0.5828,0.6568,0.726,0.8012,0.8042,0.7912,0.7807,0.777,0.7458,0.6959,0.7501,0.8016,0.8447,0.8206,0.8186,0.8138,0.7251,0.685,0.6567,0.5653,0.5377,0.5408,0.5335,0.538,0.5428,0.5557,0.5624,0.562,0.5752,0.5818,0.6148,0.7611,0.8316,0.8897,1.0174,1.0114,0.997,1.064,0.9362,0.8012,0.7859,0.7205,0.6654,0.6502,0.6617,0.6712,0.6644,0.6332,0.6118,0.6183,0.0,0.6234,0.6335,0.6593,0.6793,0.6709,0.6841,0.6919,0.6895,0.6956,0.7041,0.7136,0.7431,0.758,0.7529,0.7553,0.7563,0.7563,0.7563,0.7577,0.76,0.7577,0.8124,0.9245,0.9368,1.0567,1.2643,1.2697,1.3305,1.4228,1.4117,1.4142,1.4242,1.4396,1.4389,1.4302,1.4409,1.4696,1.499,0.9694,0.8737,0.7853,0.7321,0.6738,0.6334,0.62,0.6118,0.6149,0.616,0.6638,0.7143,0.777,0.8761,0.9588,1.004,1.0887,1.118,1.0742,1.0873,1.0831,1.0641,1.0994,1.0574,0.9335,0.8196,0.6941,0.5589,0.6356,0.7177,0.8021,0.7899,0.7904,0.7952,0.7283,0.6863,0.6706,0.6981,0.7453,0.8016,0.7909,0.793,0.7897,0.7046,0.6719,0.6628,0.6006,0.5556,0.5291,0.5657,0.5559,0.525,0.5335,0.5428,0.5491,0.5947,0.5873,0.5804,0.6619,0.7868,0.9087,0.9701,0.9963,1.0115,1.004,0.8841,0.7629,0.7099,0.6812,0.6654,0.6502,0.6597,0.6675,0.659,0.6339,0.6207,0.6352,0.6376,0.6434,0.6603,0.6803,0.6929,0.6936,0.7,0.7044,0.7044,0.7044,0.7401,0.8351,0.7887,0.8328,0.9831,0.8512,0.809,0.8748,0.8748,0.8794,0.8887,0.9548,0.9828,0.9823,1.1013,1.2173,1.3297,1.3622,1.3973,1.4496,1.4208,1.4182,1.4315,1.4295,1.4302,1.4335,1.4469,1.471,1.4943,0.785,0.7401,0.7127,0.6304,0.6173,0.619,0.6266,0.6282,0.6426,0.6605,0.7393,0.8044,0.8378,0.9852,1.081,1.0918,1.1513,1.1837,1.177,1.2011,1.1972,1.1777,1.1703,1.0748,0.8827,0.7846,0.6966,0.6143,0.6424,0.7039,0.794,0.7578,0.7433,0.7541,0.671,0.632,0.6327,0.6245,0.6668,0.7372,0.7321,0.7335,0.7312,0.6658,0.6396,0.6375,0.6197,0.5721,0.5243,0.5899,0.5661,0.5206,0.5325,0.5428,0.5557,0.6203,0.6082,0.5759,0.5793,0.7314,0.893,0.9205,0.9739,0.9965,0.9448,0.8313,0.7249,0.649,0.6495,0.6654,0.6502,0.6597,0.6661,0.6546,0.0,0.6363,0.6505,0.6556,0.6664,0.6902,0.6959,0.7021,0.7129,0.7139,0.7139,0.7139,0.7436,0.8181,0.9351,0.8905,0.9564,1.1838,0.9854,0.9208,1.0258,1.0258,1.0334,1.0485,1.1288,1.149,1.0956,1.2626,1.3558,1.3938,1.4391,1.4583,1.4496,1.4208,1.4215,1.4396,1.4175,1.4222,1.4422,1.4422,1.4609,1.485,0.738,0.6606,0.5906,0.5833,0.5842,0.6134,0.6904,0.72,0.7671,0.8471,0.8901,0.942,1.0164,1.0568,1.0967,1.1322,1.1724,1.175,1.1476,1.149,1.144,1.1463,1.1202,1.0522,0.9268,0.8862,0.84,0.7792,0.6744,0.6769,0.7705,0.6885,0.6418,0.6315,0.6132,0.5715,0.5191,0.4973,0.5164,0.5543,0.5396,0.5424,0.5557,0.5491,0.5491,0.547,0.525,0.5288,0.5387,0.5243,0.5288,0.5348,0.5425,0.5428,0.5428,0.5495,0.5542,0.5633,0.5766,0.6714,0.7925,0.902,0.8694,0.8237,0.9069,0.7783,0.6416,0.6338,0.6495,0.6654,0.6502,0.6597,0.6698,0.6685,0.0,0.0,0.6661,0.6807,0.6905,0.6926,0.7044,0.7129,0.7139,0.7139,0.7139,0.7139,0.8333,0.9152,0.9272,1.0622,1.1507,1.1843,1.1736,1.1633,1.1726,1.1726,1.1736,1.1755,1.1833,1.2512,1.3584,1.3741,1.4376,1.5285,1.5064,1.4776,1.4496,1.4208,1.4095,1.4115,1.4095,1.4102,1.4122,1.4122,1.4302,1.4516,0.6291,0.5955,0.5943,0.6512,0.6624,0.6895,0.7788,0.8038,0.8298,0.8543,0.9254,0.9907,1.0096,1.0255,1.0455,1.061,1.0036,0.9691,0.9548,0.9922,1.0369,1.0895,1.0116,0.9328,0.878,0.8615,0.7946,0.6754,0.6852,0.6871,0.6745,0.6327,0.6177,0.6156,0.551,0.5153,0.5125,0.5009,0.5118,0.5422,0.5298,0.525,0.5226,0.5325,0.5301,0.5209,0.5152,0.5169,0.5209,0.5148,0.5169,0.5237,0.5332,0.5428,0.5428,0.5428,0.5865,0.6299,0.5901,0.663,0.7611,0.8188,0.8084,0.7936,0.8313,0.7326,0.649,0.7099,0.7517,0.7734,0.7589,0.7804,0.7705,0.7042,0.0,0.7753,0.8044,0.8632,0.8815,0.817,0.8243,0.8076,0.7372,0.808,0.8588,0.8588,0.9105,0.9837,1.07,1.2215,1.3104,1.3102,1.3884,1.398,1.3108,1.3102,1.3102,1.3108,1.398,1.4172,1.3974,1.4752,1.5091,1.5124,1.501,1.4796,1.4509,1.4402,1.4355,1.4355,1.4355,1.4249,1.4135,1.4496,1.4703,1.4783,0.5829,0.5891,0.6352,0.725,0.7373,0.7658,0.8581,0.8815,0.9009,0.9157,0.995,1.0337,0.9869,0.9926,0.9843,0.9405,0.8687,0.82,0.8128,0.8493,0.9226,1.0358,0.9547,0.8992,0.8838,0.8695,0.8049,0.6828,0.7047,0.6837,0.613,0.5769,0.5632,0.5635,0.4948,0.4785,0.5064,0.5064,0.5179,0.5425,0.5308,0.5254,0.5209,0.5267,0.5254,0.5203,0.5203,0.5203,0.5203,0.5203,0.5203,0.522,0.5328,0.5428,0.5428,0.5428,0.5933,0.6368,0.5901,0.6415,0.717,0.766,0.7783,0.7783,0.7783,0.7022,0.6567,0.7557,0.8145,0.8483,0.8728,0.8976,0.898,0.8253,0.8657,0.9077,0.9361,1.0008,1.0208,0.9648,0.97,0.9422,0.8623,0.9505,1.0048,0.9985,1.0468,1.147,1.2936,1.3975,1.4459,1.4459,1.5337,1.5298,1.4337,1.4423,1.4459,1.4555,1.5343,1.5292,1.4438,1.5393,1.5511,1.4963,1.4963,1.4796,1.4522,1.4522,1.4469,1.4396,1.4482,1.4342,1.4148,1.4643,1.4823,1.4836,0.6258,0.6591,0.6981,0.7827,0.8027,0.8291,0.9168,0.9513,0.998,1.0872,1.1249,1.0948,0.9791,0.9764,0.929,0.784,0.7843,0.7828,0.7537,0.7372,0.8117,0.9992,0.9853,0.967,0.9673,0.9329,0.8978,0.8604,0.7417,0.6559,0.5988,0.5085,0.4609,0.4519,0.4519,0.4633,0.4918,0.4918,0.5091,0.5415,0.5196,0.5223,0.5342,0.5189,0.5223,0.5425,0.5425,0.5425,0.5428,0.5428,0.5428,0.5428,0.5428,0.5428,0.5428,0.5428,0.5471,0.5623,0.5762,0.5915,0.6289,0.7507,0.7783,0.7783,0.7783,0.7022,0.6567,0.7557,0.8145,0.8724,0.9695,1.0203,1.0439,1.0439,1.0444,1.0444,1.0444,1.0554,1.0778,1.1091,1.1122,1.1122,1.1122,1.1323,1.1364,1.1143,1.2751,1.429,1.5717,1.5825,1.5825,1.5825,1.5825,1.5685,1.5398,1.5685,1.5825,1.5825,1.5825,1.5678,1.5404,1.5691,1.5511,1.4963,1.4963,1.4796,1.4522,1.4522,1.4349,1.4122,1.4409,1.4342,1.4122,1.4409,1.4522,1.4563,0.6848,0.7322,0.7897,0.8748,0.8941,0.9204,1.0053,1.0277,1.0141,0.9657,0.9679,0.9308,0.8269,0.7661,0.7096,0.6666,0.6158,0.6054,0.6561,0.6393,0.6768,0.7925,0.8263,0.8365,0.8288,0.8208,0.7592,0.6435,0.6096,0.5571,0.4968,0.4696,0.4563,0.4519,0.4519,0.4633,0.4918,0.4918,0.5091,0.5425,0.5311,0.5196,0.5057,0.5108,0.5098,0.5064,0.5165,0.527,0.5428,0.5428,0.5428,0.5428,0.5428,0.5428,0.5428,0.5428,0.5471,0.5623,0.5762,0.5915,0.6139,0.6601,0.6718,0.6718,0.6718,0.649,0.6567,0.7557,0.8047,0.8569,0.9671,1.0203,1.0406,1.057,1.1187,1.1697,1.1697,1.2462,1.2808,1.2003,1.2085,1.1838,1.0949,1.1871,1.2597,1.2699,1.3385,1.3915,1.409,1.4355,1.476,1.5531,1.5524,1.5106,1.4266,1.4331,1.4276,1.4007,1.4282,1.442,1.4266,1.5106,1.5317,1.495,1.4743,1.4603,1.4522,1.4522,1.4469,1.4402,1.4489,1.4342,1.4122,1.4409,1.4522,1.4529,0.7767,0.8283,0.8812,0.9658,0.9699,0.9781,1.0332,1.0059,0.9566,0.8937,0.8606,0.8039,0.7071,0.6455,0.599,0.5647,0.5062,0.4937,0.5508,0.5624,0.5922,0.6426,0.7047,0.7368,0.7289,0.7289,0.6686,0.5487,0.5487,0.5164,0.4519,0.4519,0.4519,0.4522,0.458,0.4691,0.4921,0.4979,0.5142,0.5422,0.5294,0.5162,0.5013,0.5098,0.5043,0.4945,0.5148,0.5243,0.5281,0.5342,0.5428,0.5428,0.5428,0.5428,0.5428,0.5428,0.5471,0.5623,0.5762,0.5867,0.5993,0.6207,0.6338,0.6244,0.6183,0.6217,0.6549,0.7458,0.7953,0.8564,0.9632,1.0147,1.0569,1.1139,1.1832,1.2498,1.2942,1.3646,1.3867,1.3261,1.325,1.3085,1.2374,1.3237,1.3865,1.4136,1.4403,1.4471,1.4315,1.4564,1.4968,1.5571,1.5565,1.5173,1.4203,1.3884,1.352,1.3217,1.3994,1.426,1.4197,1.4943,1.513,1.495,1.4649,1.4522,1.4522,1.4522,1.4449,1.4362,1.4476,1.4342,1.4122,1.4409,1.4522,1.4536,0.8817,0.9208,0.9585,1.0286,1.0192,0.9971,0.9888,0.908,0.8463,0.84,0.7741,0.7015,0.6133,0.5957,0.5533,0.4746,0.4565,0.4519,0.4519,0.5089,0.5411,0.5416,0.6032,0.6421,0.6421,0.648,0.615,0.5433,0.5433,0.5109,0.4519,0.4519,0.4515,0.4577,0.472,0.4869,0.4965,0.5095,0.5243,0.5311,0.5169,0.5111,0.5108,0.5098,0.5026,0.4972,0.523,0.5247,0.5172,0.5315,0.5428,0.5428,0.5428,0.5428,0.5428,0.5428,0.5471,0.5616,0.5745,0.5793,0.5867,0.6149,0.622,0.619,0.6074,0.6149,0.6506,0.7257,0.7718,0.8352,0.9385,0.9963,1.0585,1.1786,1.2085,1.2589,1.3737,1.3913,1.4097,1.4449,1.4482,1.4482,1.4482,1.475,1.5044,1.5337,1.5384,1.5511,1.5772,1.5812,1.5818,1.5792,1.5792,1.5438,1.4913,1.3982,1.3389,1.314,1.4295,1.4854,1.4827,1.4923,1.4923,1.491,1.4609,1.4482,1.4482,1.4482,1.4322,1.4115,1.4382,1.4322,1.4122,1.4382,1.4482,1.4522,0.901,0.9427,0.9511,0.9081,0.8973,0.8711,0.816,0.7703,0.723,0.6616,0.6182,0.5665,0.4919,0.4849,0.4773,0.4558,0.4501,0.4519,0.4519,0.4632,0.4739,0.4732,0.4897,0.4952,0.4952,0.5492,0.5382,0.4732,0.4732,0.4625,0.4519,0.4519,0.4787,0.5273,0.5313,0.543,0.5607,0.5643,0.5408,0.5013,0.4979,0.4965,0.4952,0.483,0.4911,0.5077,0.5033,0.5142,0.5318,0.5418,0.5428,0.5428,0.5428,0.5428,0.5428,0.5428,0.5471,0.5596,0.5627,0.5718,0.5817,0.5884,0.5901,0.5956,0.6162,0.6142,0.618,0.6496,0.6644,0.7114,0.8265,0.8711,0.9247,1.058,1.0889,1.1386,1.2504,1.2674,1.3052,1.4083,1.4182,1.4182,1.4182,1.4442,1.4736,1.5037,1.5264,1.5424,1.5484,1.5705,1.5725,1.5498,1.5491,1.4961,1.3988,1.4174,1.3655,1.2504,1.3094,1.3363,1.334,1.4164,1.4616,1.4603,1.4309,1.4182,1.4182,1.4182,1.4142,1.4095,1.4155,1.4142,1.4095,1.4162,1.4182,1.4195,0.8928,0.9042,0.8968,0.8193,0.798,0.7744,0.739,0.673,0.621,0.5821,0.5346,0.486,0.4519,0.4519,0.4519,0.4519,0.4519,0.4519,0.4519,0.4519,0.4519,0.4519,0.4519,0.4519,0.4519,0.4842,0.4838,0.4519,0.4842,0.5003,0.5003,0.5332,0.5714,0.6041,0.6133,0.6234,0.6288,0.6039,0.5727,0.5404,0.5112,0.4979,0.4925,0.4986,0.502,0.5099,0.5598,0.6065,0.6338,0.602,0.583,0.5697,0.538,0.5304,0.5428,0.5428,0.5416,0.5498,0.5569,0.5644,0.5718,0.5783,0.5749,0.5762,0.5989,0.6037,0.6054,0.6135,0.621,0.6535,0.7236,0.7477,0.8057,0.9405,0.97,1.0183,1.13,1.198,1.2504,1.3203,1.3737,1.4088,1.4088,1.4222,1.4496,1.493,1.5104,1.5311,1.5585,1.5745,1.5758,1.5611,1.5605,1.5252,1.4545,1.4812,1.451,1.3598,1.3536,1.3679,1.4084,1.4235,1.4469,1.471,1.4275,1.4088,1.4088,1.4088,1.4088,1.4088,1.4088,1.4088,1.4088,1.4088,1.4088,1.4088,0.8415,0.8242,0.801,0.73,0.6979,0.6771,0.6683,0.5896,0.5311,0.5313,0.486,0.4519,0.4519,0.4519,0.4519,0.4519,0.4519,0.4519,0.4519,0.4519,0.4519,0.4519,0.4519,0.4519,0.4519,0.4519,0.457,0.468,0.5218,0.5542,0.5706,0.6312,0.6642,0.6815,0.6941,0.7018,0.7033,0.6532,0.6193,0.6092,0.5605,0.5348,0.5264,0.5594,0.5546,0.5434,0.6451,0.714,0.7491,0.6831,0.6526,0.6417,0.5702,0.5557,0.562,0.562,0.5491,0.5456,0.5515,0.5552,0.5579,0.5698,0.5657,0.5627,0.5769,0.5898,0.6006,0.6057,0.619,0.6332,0.6451,0.6617,0.7111,0.8247,0.8508,0.8973,1.0183,1.1295,1.2066,1.2242,1.3379,1.4088,1.4088,1.4088,1.4309,1.4843,1.4883,1.5124,1.5651,1.5678,1.5678,1.5678,1.5678,1.5565,1.5324,1.5271,1.515,1.4957,1.4369,1.4496,1.5224,1.4496,1.4402,1.479,1.4302,1.4088,1.4088,1.4088,1.4088,1.4088,1.4088,1.4088,1.4088,1.4088,1.4088,1.4088,0.7002,0.6892,0.6619,0.5894,0.5762,0.5529,0.4945,0.4754,0.4622,0.4629,0.4574,0.4519,0.4519,0.4519,0.4519,0.4519,0.4519,0.4519,0.4519,0.4519,0.4519,0.4519,0.4519,0.4519,0.4519,0.4519,0.4787,0.5378,0.5433,0.5814,0.648,0.6534,0.6966,0.7563,0.7591,0.7609,0.7609,0.7486,0.7116,0.6528,0.6744,0.6755,0.6673,0.6793,0.6837,0.6832,0.712,0.7546,0.7886,0.7506,0.7502,0.7688,0.7312,0.6889,0.6523,0.6523,0.6009,0.5432,0.5452,0.5459,0.5463,0.5483,0.5504,0.5627,0.5769,0.5817,0.5908,0.6173,0.6342,0.6451,0.6468,0.6705,0.6905,0.7093,0.7219,0.7753,0.8973,1.0091,1.1209,1.2151,1.3379,1.4088,1.4088,1.4088,1.4222,1.4556,1.4583,1.473,1.5064,1.5077,1.5077,1.5077,1.5077,1.5064,1.5023,1.477,1.475,1.4957,1.4369,1.4282,1.4636,1.4516,1.4369,1.4202,1.4122,1.4088,1.4088,1.4088,1.4088,1.4088,1.4088,1.4088,1.4088,1.4088,1.4088,1.4088,0.6168,0.5982,0.5764,0.5058,0.4948,0.4842,0.4574,0.4519,0.4622,0.4992,0.5069,0.5207,0.561,0.5321,0.5033,0.5033,0.4691,0.4519,0.4519,0.4519,0.4519,0.4519,0.4519,0.4519,0.4519,0.4519,0.5007,0.6091,0.6091,0.6258,0.6642,0.745,0.7996,0.8315,0.8315,0.8315,0.8262,0.7883,0.7503,0.7203,0.7048,0.6966,0.6919,0.705,0.7171,0.7421,0.7962,0.8503,0.8853,0.8114,0.8007,0.812,0.7593,0.7428,0.7307,0.685,0.6461,0.6009,0.5557,0.5423,0.5467,0.5449,0.5535,0.5725,0.5786,0.5867,0.6013,0.6318,0.6979,0.7453,0.7465,0.8259,0.8856,0.8776,0.8931,0.9226,0.9749,1.0869,1.1986,1.3203,1.3822,1.4088,1.4088,1.4088,1.4208,1.4496,1.4522,1.4649,1.495,1.4963,1.4963,1.4963,1.4963,1.4963,1.4963,1.4836,1.4836,1.4963,1.4703,1.4643,1.4756,1.4429,1.4295,1.4322,1.4162,1.4088,1.4088,1.4088,1.4088,1.4088,1.4088,1.4088,1.4088,1.4088,1.4088,1.4088]},{"header":{"parameterUnit":"m.s-1","parameterCategory":1,"la1":30.6,"la2":28.766,"lo1":-90.7593,"lo2":-88.6598,"dy":0.0162,"dx":0.0183,"nx":116,"ny":114,"refTime":"2023-03-09T06:00:00:Z","depth":0,"parameterNumber":3,"parameterNumberName":"V-component_of_WINDS"},"data":[0.0,0.0,0.0,0.0,0.0,0.0,0.0,0.0,0.0,0.0,0.0,0.0,0.0,0.0,0.0,0.0,0.0,0.0,0.0,0.0,0.0,0.0,0.0,0.0,0.0,0.0,0.0,0.0,0.0,0.0,0.0,0.0,0.0,0.0,0.0,0.0,0.0,0.0,0.0,0.0,0.0,0.0,0.0,0.0,0.0,0.0,0.0,0.0,0.0,0.0,0.0,0.0,0.0,0.0,0.0,0.0,0.0,0.0,0.0,0.0,0.0,0.0,0.0,0.0,0.0,0.0,0.0,0.0,0.0,0.0,0.0,0.0,0.0,0.0,0.0,0.0,0.0,0.0,0.0,0.0,0.0,0.0,0.0,0.0,0.0,0.0,0.0,0.0,0.0,0.0,0.0,0.0,0.0,0.0,0.0,0.0,0.0,0.0,0.0,0.0,0.0,0.0,0.0,0.0,0.0,0.0,0.0,0.0,0.0,0.0,0.0,0.0,0.0,0.0,0.0,0.0,0.0,0.0,0.0,0.0,0.0,0.0,0.0,0.0,0.0,0.0,0.0,0.0,0.0,0.0,0.0,0.0,0.0,0.0,0.0,0.0,0.0,0.0,0.0,0.0,0.0,0.0,0.0,0.0,0.0,0.0,0.0,0.0,0.0,0.0,0.0,0.0,0.0,0.0,0.0,0.0,0.0,0.0,0.0,0.0,0.0,0.0,0.0,0.0,0.0,0.0,0.0,0.0,0.0,0.0,0.0,0.0,0.0,0.0,0.0,0.0,0.0,0.0,0.0,0.0,0.0,0.0,0.0,0.0,0.0,0.0,0.0,0.0,0.0,0.0,0.0,0.0,0.0,0.0,0.0,0.0,0.0,0.0,0.0,0.0,0.0,0.0,0.0,0.0,0.0,0.0,0.0,0.0,0.0,0.0,0.0,0.0,0.0,0.0,0.0,0.0,0.0,0.0,0.0,0.0,0.0,0.0,0.0,0.0,0.0,0.0,0.0,0.0,0.0,0.0,0.0,0.0,0.0,0.0,0.0,0.0,0.0,0.0,0.0,0.0,0.0,0.0,0.0,0.0,0.0,0.0,0.0,0.0,0.0,0.0,0.0,0.0,0.0,0.0,0.0,0.0,0.0,0.0,0.0,0.0,0.0,0.0,0.0,0.0,0.0,0.0,0.0,0.0,0.0,0.0,0.0,0.0,0.0,0.0,0.0,0.0,0.0,0.0,0.0,0.0,0.0,0.0,0.0,0.0,0.0,0.0,0.0,0.0,0.0,0.0,0.0,0.0,0.0,0.0,0.0,0.0,0.0,0.0,0.0,0.0,0.0,0.0,0.0,0.0,0.0,0.0,0.0,0.0,0.0,0.0,0.0,0.0,0.0,0.0,0.0,0.0,0.0,0.0,0.0,0.0,0.0,0.0,0.0,0.0,0.0,0.0,0.0,0.0,0.0,0.0,0.0,0.0,0.0,0.0,0.0,0.0,0.0,0.0,0.0,0.0,0.0,0.0,0.0,0.0,0.0,0.0,0.0,0.0,0.0,0.0,0.0,0.0,0.0,0.0,0.0,0.0,0.0,0.0,0.0,0.0,0.0,0.0,0.0,0.0,0.0,0.0,0.0,0.0,0.0,0.0,0.0,0.0,0.0,0.0,0.0,0.0,0.0,0.0,0.0,0.0,0.0,0.0,0.0,0.0,0.0,0.0,0.0,0.0,0.0,0.0,0.0,0.0,0.0,0.0,0.0,0.0,0.0,0.0,0.0,0.0,0.0,0.0,0.0,0.0,0.0,0.0,0.0,0.0,0.0,0.0,0.0,0.0,0.0,0.0,0.0,0.0,0.0,0.0,0.0,0.0,0.0,0.0,0.0,0.0,0.0,0.0,0.0,0.0,0.0,0.0,0.0,0.0,0.0,0.0,0.0,0.0,0.0,0.0,0.0,0.0,0.0,0.0,0.0,0.0,0.0,0.0,0.0,0.0,0.0,0.0,0.0,0.0,0.0,0.0,0.0,0.0,0.0,0.0,0.0,0.0,0.0,0.0,0.0,0.0,0.0,0.0,0.0,0.0,0.0,0.0,0.0,0.0,0.0,0.0,0.0,0.0,0.0,0.0,0.0,0.0,0.0,0.0,0.0,0.0,0.0,0.0,0.0,0.0,0.0,0.0,0.0,0.0,0.0,0.0,0.0,0.0,0.0,0.0,0.0,0.0,0.0,0.0,0.0,0.0,0.0,0.0,0.0,0.0,0.0,0.0,0.0,0.0,0.0,0.0,0.0,0.0,0.0,0.0,0.0,0.0,0.0,0.0,0.0,0.0,0.0,0.0,0.0,0.0,0.0,0.0,0.0,0.0,0.0,0.0,0.0,0.0,0.0,0.0,0.0,0.0,0.0,0.0,0.0,0.0,0.0,0.0,0.0,0.0,0.0,0.0,0.0,0.0,0.0,0.0,0.0,0.0,0.0,0.0,0.0,0.0,0.0,0.0,0.0,0.0,0.0,0.0,0.0,0.0,0.0,0.0,0.0,0.0,0.0,0.0,0.0,0.0,0.0,0.0,0.0,0.0,0.0,0.0,0.0,0.0,0.0,0.0,0.0,0.0,0.0,0.0,0.0,0.0,0.0,0.0,0.0,0.0,0.0,0.0,0.0,0.0,0.0,0.0,0.0,0.0,0.0,0.0,0.0,0.0,0.0,0.0,0.0,0.0,0.0,0.0,0.0,0.0,0.0,0.0,0.0,0.0,0.0,0.0,0.0,0.0,0.0,0.0,0.0,0.0,0.0,0.0,0.0,0.0,0.0,0.0,0.0,0.0,0.0,0.0,0.0,0.0,0.0,0.0,0.0,0.0,0.0,0.0,0.0,0.0,0.0,0.0,0.0,0.0,0.0,0.0,0.0,0.0,0.0,0.0,0.0,0.0,0.0,0.0,0.0,0.0,0.0,0.0,0.0,0.0,0.0,0.0,0.0,0.0,0.0,0.0,0.0,0.0,0.0,0.0,0.0,0.0,0.0,0.0,0.0,0.0,0.0,0.0,0.0,0.0,0.0,0.0,0.0,0.0,0.0,0.0,0.0,0.0,0.0,0.0,0.0,0.0,0.0,0.0,0.0,0.0,0.0,0.0,0.0,0.0,0.0,0.0,0.0,0.0,0.0,0.0,0.0,0.0,0.0,0.0,0.0,0.0,0.0,0.0,0.0,0.0,0.0,0.0,0.0,0.0,0.0,0.0,0.0,0.0,0.0,0.0,0.0,0.0,0.0,0.0,0.0,0.0,0.0,0.0,0.0,0.0,0.0,0.0,0.0,0.0,0.0,0.0,0.0,0.0,0.0,0.0,0.0,0.0,0.0,0.0,0.0,0.0,0.0,0.0,0.0,0.0,0.0,0.0,0.0,0.0,0.0,0.0,0.0,0.0,0.0,0.0,0.0,0.0,0.0,0.0,0.0,0.0,0.0,0.0,0.0,0.0,0.0,0.0,0.0,0.0,0.0,0.0,0.0,0.0,0.0,0.0,0.0,0.0,0.0,0.0,0.0,0.0,0.0,0.0,0.0,0.0,0.0,0.0,0.0,0.0,0.0,0.0,0.0,0.0,0.0,0.0,0.0,0.0,0.0,0.0,0.0,0.0,0.0,0.0,0.0,0.0,0.0,0.0,0.0,0.0,0.0,0.0,0.0,0.0,0.0,0.0,0.0,0.0,0.0,0.0,0.0,0.0,0.0,0.0,0.0,0.0,0.0,0.0,0.0,0.0,0.0,0.0,0.0,0.0,0.0,0.0,0.0,0.0,0.0,0.0,0.0,0.0,0.0,0.0,0.0,0.0,0.0,0.0,0.0,0.0,0.0,0.0,0.0,0.0,0.0,0.0,0.0,0.0,0.0,0.0,0.0,0.0,0.0,0.0,0.0,0.0,0.0,0.0,0.0,0.0,0.0,0.0,0.0,0.0,0.0,0.0,0.0,0.0,0.0,0.0,0.0,0.0,0.0,0.0,0.0,0.0,0.0,0.0,0.0,0.0,0.0,0.0,0.0,0.0,0.0,0.0,0.0,0.0,0.0,0.0,0.0,0.0,0.0,0.0,0.0,0.0,0.0,0.0,0.0,0.0,0.0,0.0,0.0,0.0,0.0,0.0,0.0,0.0,0.0,0.0,0.0,0.0,0.0,0.0,0.0,0.0,0.0,0.0,0.0,0.0,0.0,0.0,0.0,0.0,0.0,0.0,0.0,0.0,0.0,0.0,0.0,0.0,0.0,0.0,0.0,0.0,0.0,0.0,0.0,0.0,0.0,0.0,0.0,0.0,0.0,0.0,0.0,0.0,0.0,0.0,0.0,0.0,0.0,0.0,0.0,0.0,0.0,0.0,0.0,0.0,0.0,0.0,0.0,0.0,0.0,0.0,0.0,0.0,0.0,0.0,0.0,0.0,0.0,0.0,0.0,0.0,0.0,0.0,0.0,0.0,0.0,0.0,0.0,0.0,0.0,0.0,0.0,0.0,0.0,0.0,0.0,0.0,0.0,0.0,0.0,0.0,0.0,0.0,0.0,0.0,0.0,0.0,0.0,0.0,0.0,0.0,0.0,0.0,0.0,0.0,0.0,0.0,0.0,0.0,0.0,0.0,0.0,0.0,0.0,0.0,0.0,0.0,0.0,0.0,0.0,0.0,0.0,0.0,0.0,0.0,0.0,0.0,0.0,0.0,0.0,0.0,0.0,0.0,0.0,0.0,0.0,0.0,0.0,0.0,0.0,0.0,0.0,0.0,0.0,0.0,0.0,0.0,0.0,0.0,0.0,0.0,0.0,0.0,0.0,0.0,0.0,0.0,0.0,0.0,0.0,0.0,0.0,0.0,0.0,0.0,0.0,0.0,0.0,0.0,0.0,0.0,0.0,0.0,0.0,0.0,0.0,0.0,0.0,0.0,0.0,0.0,0.0,0.0,0.0,0.0,0.0,0.0,0.0,0.0,0.0,0.0,0.0,0.0,0.0,0.0,0.0,0.0,0.0,0.0,0.0,0.0,0.0,0.0,0.0,0.0,0.0,0.0,0.0,0.0,0.0,0.0,0.0,0.0,0.0,0.0,0.0,0.0,0.0,0.0,0.0,0.0,0.0,0.0,0.0,0.0,0.0,0.0,0.0,0.0,0.0,0.0,0.0,0.0,0.0,0.0,0.0,0.0,0.0,0.0,0.0,0.0,0.0,0.0,0.0,0.0,0.0,0.0,0.0,0.0,0.0,0.0,0.0,0.0,0.0,0.0,0.0,0.0,0.0,0.0,0.0,0.0,0.0,0.0,0.0,0.0,0.0,0.0,0.0,0.0,0.0,0.0,0.0,0.0,0.0,0.0,0.0,0.0,0.0,0.0,0.0,0.0,0.0,0.0,0.0,0.0,0.0,0.0,0.0,0.0,0.0,0.0,0.0,0.0,0.0,0.0,0.0,0.0,0.0,0.0,0.0,0.0,0.0,0.0,0.0,0.0,0.0,0.0,0.0,0.0,0.0,0.0,0.0,0.0,0.0,0.0,0.0,0.0,0.0,0.0,0.0,0.0,0.0,0.0,0.0,0.0,0.0,0.0,0.0,0.0,0.0,0.0,0.0,0.0,0.0,0.0,0.0,0.0,0.0,0.0,0.0,0.0,0.0,0.0,0.0,0.0,0.0,0.0,0.0,0.0,0.0,0.0,0.0,0.0,0.0,0.0,0.0,0.0,0.0,0.0,0.0,0.0,0.0,0.0,0.0,0.0,0.0,0.0,0.0,0.0,0.0,0.0,0.0,0.0,0.0,0.0,0.0,0.0,0.0,0.0,0.0,0.0,0.0,0.0,0.0,0.0,0.0,0.0,0.0,0.0,0.0,0.0,0.0,0.0,0.0,0.0,0.0,0.0,0.0,0.0,0.0,0.0,0.0,0.0,0.0,0.0,0.0,0.0,0.0,0.0,0.0,0.0,0.0,0.0,0.0,0.0,0.0,0.0,0.0,0.0,0.0,0.0,0.0,0.0,0.0,0.0,0.0,0.0,0.0,0.0,0.0,0.0,0.0,0.0,0.0,0.0,0.0,0.0,0.0,0.0,0.0,0.0,0.0,0.0,0.0,0.0,0.0,0.0,-3.8436,0.0,0.0,0.0,0.0,0.0,0.0,0.0,0.0,0.0,0.0,0.0,0.0,0.0,0.0,0.0,0.0,0.0,0.0,0.0,0.0,0.0,0.0,0.0,0.0,0.0,0.0,0.0,0.0,0.0,0.0,0.0,0.0,0.0,0.0,0.0,0.0,0.0,0.0,0.0,0.0,0.0,0.0,0.0,0.0,0.0,0.0,0.0,0.0,0.0,0.0,0.0,0.0,0.0,0.0,0.0,0.0,0.0,0.0,0.0,0.0,0.0,0.0,0.0,0.0,0.0,0.0,0.0,0.0,0.0,0.0,0.0,0.0,0.0,0.0,0.0,0.0,0.0,0.0,0.0,0.0,0.0,0.0,0.0,0.0,0.0,0.0,0.0,0.0,0.0,0.0,0.0,0.0,0.0,0.0,0.0,0.0,0.0,0.0,0.0,0.0,0.0,0.0,0.0,0.0,0.0,0.0,0.0,0.0,0.0,0.0,0.0,0.0,0.0,0.0,0.0,0.0,-3.9489,0.0,0.0,0.0,0.0,0.0,0.0,0.0,0.0,0.0,0.0,0.0,0.0,0.0,0.0,0.0,0.0,0.0,0.0,0.0,0.0,0.0,0.0,0.0,0.0,0.0,0.0,0.0,0.0,0.0,0.0,0.0,0.0,0.0,0.0,0.0,0.0,0.0,0.0,0.0,0.0,0.0,0.0,0.0,0.0,0.0,0.0,0.0,0.0,0.0,0.0,0.0,0.0,0.0,0.0,0.0,0.0,0.0,0.0,0.0,0.0,0.0,0.0,0.0,0.0,0.0,0.0,0.0,0.0,0.0,0.0,0.0,0.0,0.0,0.0,0.0,0.0,0.0,0.0,0.0,0.0,0.0,0.0,0.0,0.0,0.0,0.0,0.0,0.0,0.0,0.0,0.0,0.0,0.0,0.0,0.0,0.0,0.0,0.0,0.0,0.0,0.0,0.0,0.0,0.0,0.0,0.0,0.0,0.0,-4.1886,-4.2253,-4.239,-4.2468,-4.2492,-4.2454,-4.1942,-4.0722,-3.9261,-4.0767,0.0,0.0,0.0,0.0,0.0,0.0,0.0,0.0,0.0,0.0,0.0,0.0,0.0,0.0,0.0,0.0,0.0,0.0,0.0,0.0,0.0,0.0,0.0,0.0,0.0,0.0,0.0,0.0,0.0,0.0,0.0,0.0,0.0,0.0,0.0,0.0,0.0,0.0,-3.2302,-3.3846,-3.4971,-3.5782,0.0,0.0,0.0,0.0,0.0,0.0,0.0,0.0,0.0,0.0,0.0,0.0,0.0,0.0,0.0,0.0,0.0,0.0,0.0,0.0,0.0,0.0,0.0,0.0,0.0,0.0,0.0,0.0,0.0,0.0,0.0,0.0,0.0,0.0,0.0,0.0,0.0,0.0,0.0,0.0,0.0,0.0,0.0,0.0,-4.3494,-4.3494,0.0,0.0,0.0,0.0,0.0,0.0,0.0,0.0,0.0,0.0,0.0,0.0,0.0,-4.057,-4.261,-4.1887,-4.1307,-4.0965,-4.2036,-4.2179,-4.1609,-4.3272,-4.3998,-4.4036,-4.4707,0.0,-4.2026,-4.1815,0.0,0.0,0.0,0.0,0.0,0.0,0.0,0.0,0.0,0.0,0.0,0.0,0.0,0.0,0.0,0.0,0.0,0.0,0.0,0.0,0.0,0.0,0.0,0.0,0.0,0.0,0.0,0.0,0.0,0.0,0.0,0.0,0.0,0.0,0.0,0.0,-3.3732,-3.3634,-3.359,-3.4287,-3.4667,-3.4839,-3.5351,-3.61,-3.7012,-3.9174,0.0,0.0,0.0,0.0,0.0,0.0,0.0,0.0,0.0,0.0,0.0,0.0,0.0,0.0,0.0,0.0,0.0,0.0,0.0,0.0,0.0,0.0,0.0,0.0,0.0,0.0,0.0,0.0,0.0,0.0,0.0,0.0,0.0,0.0,0.0,0.0,0.0,0.0,0.0,-4.1925,-4.0818,-4.0796,-4.0802,-4.1528,0.0,0.0,0.0,0.0,0.0,0.0,0.0,0.0,0.0,-4.1154,-4.2341,-4.3161,-4.3547,-4.4243,-4.4227,-4.3559,-4.4997,-4.5515,-4.5189,-4.605,-4.6432,-4.6451,-4.6836,-4.6512,-4.5573,-4.3897,-4.3162,-4.3066,0.0,0.0,0.0,0.0,-4.2984,-4.2985,0.0,0.0,0.0,0.0,0.0,0.0,0.0,0.0,0.0,0.0,0.0,0.0,0.0,0.0,0.0,0.0,0.0,0.0,0.0,0.0,0.0,0.0,0.0,0.0,0.0,0.0,0.0,0.0,-3.4644,-3.519,-3.553,-3.5736,-3.5734,-3.5641,-3.6574,-3.6679,-3.6334,-3.8716,-3.9754,0.0,0.0,0.0,0.0,0.0,0.0,0.0,0.0,0.0,0.0,0.0,0.0,0.0,0.0,0.0,0.0,0.0,0.0,0.0,0.0,0.0,0.0,0.0,0.0,0.0,0.0,0.0,0.0,0.0,0.0,0.0,0.0,0.0,0.0,0.0,0.0,0.0,0.0,-4.1437,-3.992,-3.9932,-3.9938,-4.0876,0.0,0.0,0.0,0.0,0.0,0.0,-4.3092,-4.158,-4.1878,-4.4281,-4.5184,-4.5457,-4.5208,-4.6685,-4.7028,-4.624,-4.7509,-4.8105,-4.8105,-4.8336,-4.8432,-4.8432,-4.8432,-4.8432,-4.8259,-4.5913,-4.4739,-4.4355,-4.4143,-4.4201,-4.4393,-4.4566,-4.4759,-4.4951,0.0,0.0,0.0,0.0,0.0,0.0,0.0,0.0,0.0,0.0,0.0,0.0,0.0,0.0,0.0,0.0,0.0,0.0,0.0,0.0,0.0,0.0,0.0,0.0,0.0,0.0,0.0,-3.53,-3.6047,-3.7061,-3.8291,-3.9036,-3.9381,-3.9476,-4.028,-3.7256,-3.1873,-3.6719,-3.879,-3.8905,0.0,0.0,0.0,0.0,0.0,0.0,0.0,0.0,0.0,0.0,0.0,0.0,0.0,0.0,0.0,0.0,0.0,0.0,0.0,0.0,0.0,0.0,0.0,0.0,0.0,0.0,0.0,0.0,0.0,0.0,0.0,0.0,0.0,0.0,0.0,0.0,0.0,0.0,0.0,-4.3273,-4.3281,0.0,0.0,0.0,0.0,-4.494,-4.5464,-4.5537,-4.5437,-4.4334,-4.4975,-4.7757,-4.6397,-4.6605,-4.872,-4.8836,-4.8586,-4.799,-4.8067,-4.8105,-4.8125,-4.8952,-4.9336,-4.9336,-4.9336,-4.9336,-4.9202,-4.749,-4.7201,-4.7778,-4.7009,-4.7182,-4.7663,-4.6105,-4.6067,-4.6432,0.0,0.0,0.0,0.0,0.0,0.0,0.0,0.0,0.0,0.0,0.0,0.0,0.0,0.0,0.0,0.0,0.0,0.0,0.0,0.0,0.0,0.0,0.0,0.0,0.0,0.0,-3.6064,-3.6615,-3.7884,-3.8987,-3.9909,-4.0175,-4.0704,-4.1425,-4.1471,-4.0592,-3.9227,-4.1035,-4.058,-3.8759,-3.9354,-4.0551,0.0,0.0,0.0,0.0,0.0,0.0,0.0,0.0,0.0,0.0,0.0,0.0,0.0,0.0,0.0,0.0,0.0,0.0,0.0,0.0,0.0,0.0,0.0,0.0,0.0,0.0,0.0,0.0,0.0,0.0,0.0,0.0,0.0,0.0,0.0,0.0,0.0,-4.3509,-4.3506,0.0,-4.3498,-4.5259,-4.6644,-4.7169,-4.7575,-4.73,-4.6164,-4.6414,-4.7319,-4.8875,-4.8894,-4.926,-5.0086,-5.1144,-5.1298,-5.0548,-5.1106,-5.1375,-5.1395,-5.1702,-5.1548,-5.1048,-5.1606,-5.1221,-5.0221,-5.0144,-4.9317,-4.8067,-4.7778,-4.7855,-4.8029,-4.7432,-4.7413,-4.7548,0.0,0.0,0.0,0.0,0.0,0.0,0.0,0.0,0.0,0.0,0.0,0.0,0.0,0.0,0.0,0.0,0.0,0.0,0.0,0.0,0.0,0.0,0.0,0.0,0.0,-3.6404,-3.7531,-3.8346,-3.9595,-4.0709,-4.1654,-4.1923,-4.2456,-4.3193,-4.317,-4.3595,-4.429,-4.4303,-4.2757,-4.033,-4.032,-4.0474,-4.0966,0.0,0.0,0.0,0.0,0.0,0.0,0.0,0.0,0.0,0.0,0.0,0.0,0.0,0.0,0.0,0.0,0.0,0.0,0.0,0.0,0.0,0.0,0.0,0.0,0.0,0.0,0.0,0.0,0.0,0.0,0.0,0.0,0.0,0.0,0.0,-4.48,-4.5038,-4.5049,-4.5047,-4.5047,-4.7938,-4.943,-4.8483,-4.8752,-4.8546,-4.7467,-4.8126,-4.9067,-5.0202,-5.0798,-5.1241,-5.1529,-5.2645,-5.2914,-5.2356,-5.2933,-5.3203,-5.3203,-5.3203,-5.2876,-5.2375,-5.2953,-5.2568,-5.1568,-5.2125,-5.1183,-4.9356,-4.9086,-4.8971,-4.8933,-4.8644,-4.8721,-4.8933,0.0,0.0,0.0,0.0,0.0,0.0,0.0,0.0,0.0,0.0,0.0,0.0,0.0,0.0,0.0,0.0,0.0,0.0,0.0,0.0,0.0,0.0,0.0,0.0,-3.446,-3.7073,-3.9113,-4.0474,-4.1198,-4.225,-4.3534,-4.4342,-4.4727,-4.4782,-4.5553,-4.5902,-4.5902,-4.5957,-4.5076,-4.3644,-4.3534,-4.1633,-3.9174,0.0,0.0,0.0,0.0,0.0,0.0,0.0,0.0,0.0,0.0,0.0,0.0,0.0,0.0,0.0,0.0,0.0,0.0,0.0,0.0,0.0,0.0,0.0,0.0,0.0,0.0,0.0,0.0,0.0,0.0,0.0,0.0,0.0,-4.2571,-4.5182,-4.7312,-4.8075,-4.8177,-4.8169,-4.8174,-4.8178,-4.8441,-4.9048,-4.9086,-4.9221,-4.949,-4.951,-5.0279,-5.1933,-5.1991,-5.2414,-5.328,-5.328,-5.328,-5.328,-5.328,-5.328,-5.328,-5.328,-5.326,-5.3241,-5.328,-5.326,-5.3203,-5.3241,-5.2741,-5.1875,-5.1087,-5.0741,-5.0587,-4.9779,-4.999,-5.0567,0.0,0.0,0.0,0.0,0.0,0.0,0.0,0.0,0.0,0.0,0.0,0.0,0.0,0.0,0.0,0.0,0.0,0.0,0.0,0.0,0.0,0.0,0.0,0.0,-3.7757,-3.9121,-4.0474,-4.1803,-4.2554,-4.3448,-4.4378,-4.4617,-4.5021,-4.559,-4.5791,-4.588,-4.5971,-4.714,-4.7401,-4.6762,-4.4436,-4.2977,-4.2359,0.0,0.0,0.0,0.0,0.0,0.0,0.0,0.0,0.0,0.0,0.0,0.0,0.0,0.0,0.0,0.0,0.0,0.0,0.0,0.0,0.0,0.0,0.0,0.0,0.0,0.0,0.0,0.0,0.0,0.0,0.0,0.0,-4.4236,-4.4922,-4.5341,-4.6675,-4.9635,-4.9994,-5.0006,-4.999,-4.9989,-5.0394,-5.1395,-5.1241,-5.1414,-5.2125,-5.2164,-5.2664,-5.376,-5.3799,-5.4184,-5.4991,-5.5011,-5.5011,-5.5011,-5.5011,-5.5011,-5.5011,-5.5011,-5.4684,-5.4184,-5.4761,-5.4318,-5.326,-5.3876,-5.3626,-5.2818,-5.2606,-5.176,-5.0741,-5.1087,-5.0991,-5.0664,0.0,0.0,0.0,0.0,0.0,0.0,0.0,0.0,0.0,0.0,0.0,0.0,0.0,0.0,0.0,0.0,0.0,0.0,0.0,0.0,0.0,0.0,0.0,-3.8146,-3.9625,-4.0669,-4.1734,-4.28,-4.3259,-4.3901,-4.4727,-4.5039,-4.5645,-4.6434,-4.7146,-4.762,-4.8007,-4.8937,-4.975,-5.0199,-4.8326,-4.674,-4.5537,-4.5993,-4.5053,-4.3517,-4.3504,-4.2639,-4.2139,-4.6187,0.0,0.0,0.0,0.0,0.0,0.0,0.0,0.0,0.0,0.0,0.0,0.0,0.0,0.0,0.0,0.0,0.0,0.0,0.0,0.0,0.0,0.0,0.0,0.0,-4.4816,-4.6466,-4.7327,-4.6845,-4.7315,-4.9844,-5.047,-5.0818,-5.1164,-5.1183,-5.1626,-5.2666,-5.2549,-5.2837,-5.3703,-5.3741,-5.4126,-5.4972,-5.4991,-5.5222,-5.5703,-5.5703,-5.5703,-5.5703,-5.5703,-5.5703,-5.5703,-5.5703,-5.5434,-5.503,-5.5491,-5.5145,-5.4299,-5.478,-5.4511,0.0,0.0,0.0,0.0,0.0,-5.1395,-5.0741,0.0,0.0,0.0,0.0,0.0,0.0,0.0,0.0,0.0,0.0,0.0,-3.3478,-3.3908,0.0,0.0,0.0,0.0,0.0,0.0,0.0,0.0,-3.4836,-3.8346,-4.0402,-4.06,-4.1805,-4.2782,-4.3497,-4.3589,-4.4048,-4.4856,-4.5663,-4.6526,-4.7462,-4.8967,-5.0071,-5.0812,-5.1008,-5.1893,-5.3175,-5.3175,-5.1467,-4.8858,-4.8846,-4.7084,-4.4603,-4.4599,-4.4596,-4.5404,-5.0843,0.0,0.0,0.0,0.0,0.0,0.0,0.0,0.0,0.0,0.0,0.0,0.0,0.0,0.0,0.0,0.0,0.0,0.0,0.0,0.0,0.0,0.0,0.0,0.0,-4.7204,-4.8453,-4.9655,-4.922,-4.9043,-4.974,-5.051,-5.126,-5.1991,-5.2049,-5.2414,-5.328,-5.3356,-5.3722,-5.4587,0.0,0.0,0.0,0.0,-5.5703,-5.5703,-5.5703,-5.5703,-5.5703,-5.5703,-5.5703,-5.5703,-5.5703,-5.5703,-5.5703,-5.5703,-5.5703,-5.5703,-5.5703,-5.5222,-5.4337,-5.2702,-5.2125,-5.2183,-5.2087,-5.1529,-5.0952,0.0,0.0,0.0,0.0,0.0,0.0,0.0,0.0,0.0,-3.119,-3.1952,-3.2534,-3.2655,-3.3625,-3.3911,0.0,0.0,0.0,0.0,0.0,-3.5641,-3.8133,-3.9643,-4.0852,-4.1928,-4.2803,-4.3332,-4.3497,-4.4158,-4.4892,-4.5681,-4.6507,-4.7682,-4.9132,-4.9698,-5.0244,-5.0886,-5.2205,-5.292,-5.3219,-5.3219,-5.2821,-5.2242,-5.2259,-5.1869,-5.1327,-5.1318,-5.1298,-5.1127,-4.9728,-5.0168,-5.1308,-5.1303,0.0,0.0,0.0,0.0,0.0,0.0,0.0,0.0,0.0,0.0,0.0,0.0,0.0,0.0,0.0,0.0,0.0,0.0,0.0,0.0,-4.7118,-4.9273,-5.0875,-5.1028,-5.1472,-5.194,-5.2412,-5.2606,-5.2779,-5.2933,-5.2953,-5.3318,-5.4184,-5.4241,-5.4607,-5.5415,-5.5472,-5.553,-5.5703,-5.5703,-5.5703,-5.5703,-5.5703,-5.5703,-5.5703,0.0,0.0,-5.5703,-5.5703,-5.5703,-5.5703,-5.5703,-5.5703,-5.5703,-5.5703,-5.5222,-5.4395,-5.3356,-5.3376,-5.3914,-5.3222,-5.2414,-5.1798,0.0,0.0,0.0,0.0,0.0,0.0,0.0,0.0,0.0,0.0,-3.2154,-3.2696,-3.2324,-3.3219,-3.3396,-3.2381,-3.2537,0.0,0.0,-3.5612,-3.741,-3.9714,-4.1177,-4.2463,-4.3479,-4.3883,-4.4305,-4.469,-4.5094,-4.592,-4.7113,-4.7517,-4.86,-5.0215,-5.0633,-5.0808,-5.0908,-5.2523,-5.4136,-5.5606,-5.5606,-5.5619,-5.541,-5.3801,-5.3193,-5.3193,-5.3197,-5.3197,-5.2954,-5.1327,-5.2905,-5.5476,-5.4642,-5.1968,-4.8863,0.0,0.0,0.0,0.0,0.0,0.0,0.0,0.0,0.0,0.0,0.0,0.0,0.0,0.0,-4.4916,0.0,0.0,-4.8342,-5.0153,-5.1395,-5.2418,-5.3131,-5.3757,-5.3916,-5.3278,-5.3203,-5.3376,-5.3818,-5.3857,-5.4203,-5.503,-5.5107,-5.528,-5.5684,-5.5703,-5.5703,-5.5703,-5.5703,-5.5703,-5.5703,-5.5703,-5.5703,-5.5703,-5.6126,-5.6338,-5.6338,-5.6338,-5.6338,-5.6319,-5.5876,-5.5703,-5.5703,-5.5703,-5.5453,-5.5049,-5.4626,-5.4203,-5.3857,-5.3857,-5.3299,-5.2683,0.0,0.0,0.0,0.0,0.0,0.0,0.0,0.0,0.0,0.0,0.0,-3.2747,-3.2138,-3.2611,-3.273,0.0,0.0,0.0,0.0,-3.7091,-3.9185,-4.0782,-4.2702,-4.403,-4.469,-4.4856,-4.5259,-4.5902,-4.6214,-4.704,-4.8324,-4.8636,-4.9591,-5.1059,-5.144,-5.1504,-5.1359,-5.2663,-5.5078,-5.801,-5.801,-5.801,-5.7707,-5.511,-5.3739,-5.3219,-5.3201,-5.3193,-5.3185,-5.3203,-5.5355,-5.7754,-5.6459,-5.4448,-5.1888,-4.8546,-4.781,0.0,0.0,0.0,0.0,0.0,0.0,0.0,0.0,0.0,-4.5258,-4.5493,-4.6335,-4.7255,-4.7878,-4.8683,-5.0153,-5.2978,-5.3486,-5.3981,-5.5301,-5.5896,-5.5645,-5.4126,-5.3799,-5.403,-5.4895,-5.4991,-5.5241,-5.5895,-5.5953,-5.5876,-5.5703,-5.5703,-5.5703,-5.5703,-5.5703,-5.5703,-5.5703,-5.5703,-5.578,-5.5953,-5.6646,-5.7088,-5.7242,-5.7242,-5.7146,-5.6934,-5.6069,-5.5703,-5.5703,-5.5703,-5.5703,-5.5703,-5.5703,-5.4876,-5.378,-5.4472,-5.4184,-5.3587,0.0,0.0,0.0,0.0,0.0,0.0,0.0,0.0,0.0,0.0,0.0,0.0,0.0,0.0,0.0,0.0,0.0,0.0,0.0,-3.7655,-3.9685,-4.2332,-4.3816,-4.4617,-4.4709,-4.5406,-4.581,-4.5902,-4.7333,-4.8122,-4.8343,-4.9829,-5.1004,-5.1867,-5.1687,-5.2102,-5.2944,-5.3115,-5.5066,-5.7986,-5.7986,-5.7986,-5.7949,-5.7597,-5.5691,-5.3211,-5.3182,-5.3206,-5.3185,-5.3193,-5.5323,-5.7969,-5.7802,-5.6884,-5.4991,-5.0606,0.0,-4.6709,-4.4176,-4.3626,-4.3883,-4.4362,-4.46,-4.5022,0.0,0.0,-4.7132,-4.8293,-4.8632,-4.8851,-4.9286,-5.0943,-5.2558,-5.3646,-5.5327,-5.6585,-5.6755,-5.7489,-5.7646,-5.6684,-5.5876,-5.5761,-5.6626,-5.6703,-5.6761,-5.6838,-5.6838,-5.6511,-5.5742,-5.5703,-5.5703,-5.5703,-5.5703,-5.5703,-5.5703,-5.5703,-5.6088,-5.6857,-5.6934,-5.7396,-5.8146,-5.8146,-5.7723,-5.6934,-5.6069,-5.5703,-5.5703,-5.5703,-5.5703,-5.5703,-5.5703,-5.5588,-5.5434,-5.553,-5.5049,-5.4472,0.0,0.0,0.0,0.0,0.0,0.0,0.0,0.0,0.0,0.0,0.0,0.0,0.0,0.0,0.0,0.0,0.0,0.0,-3.6325,-3.744,-3.9417,-4.2656,-4.335,-4.4065,-4.4982,-4.5324,-4.5953,-4.6906,-4.7935,-4.892,-4.9828,-5.095,-5.2179,-5.3371,-5.2785,-5.3291,-5.4671,-5.5587,-5.6758,-5.7987,-5.7987,-5.7987,-5.7987,-5.8013,-5.7166,-5.576,-5.3855,-5.3222,0.0,0.0,-5.0959,-5.5225,-5.5202,-5.4571,-5.3133,-4.9469,-4.765,0.0,-4.4847,-4.4675,-4.4984,0.0,-4.6471,-4.7719,-4.8398,-4.9279,-5.017,-5.0985,-5.2061,-5.3025,-5.3489,-5.4855,-5.6064,0.0,-5.7194,-5.7915,-5.8396,-5.7934,-5.7588,-5.7742,-5.6992,-5.6799,-5.7665,-5.73,-5.7203,-5.7723,-5.7761,-5.7607,-5.7223,-5.6722,-5.6453,-5.6453,-5.5953,-5.5703,-5.5703,-5.5703,-5.6126,-5.6992,-5.7511,-5.7953,-5.8319,-5.8781,-5.8261,-5.6934,-5.6069,-5.5703,-5.5703,-5.5703,-5.5703,-5.5703,-5.5703,-5.5703,-5.5703,-5.5703,-5.5491,-5.5241,0.0,0.0,0.0,0.0,0.0,0.0,0.0,0.0,0.0,0.0,0.0,0.0,0.0,0.0,0.0,0.0,0.0,0.0,0.0,-3.6988,-3.8946,-4.1921,-4.2794,0.0,-4.4862,-4.5517,-4.6436,-4.7586,-4.8693,-4.9803,-5.0922,-5.2108,-5.328,-5.4399,-5.4166,-5.4653,-5.5715,-5.7344,-5.7987,-5.7997,-5.7997,-5.7978,-5.7987,-5.8013,-5.7457,-5.6356,-5.4059,-5.2044,0.0,0.0,-4.6214,-4.9715,-5.0471,-5.0542,-4.9911,-4.7605,-4.6123,-4.5241,-4.5119,0.0,0.0,-4.6672,-4.8416,-5.0031,-5.049,-5.1665,-5.288,-5.3699,-5.5036,-5.6147,-5.6492,-5.7508,-5.83,-5.83,-5.8492,-5.8761,-5.9127,-5.8319,-5.7742,-5.7915,-5.7165,-5.7069,-5.8184,-5.7934,-5.7953,-5.8588,-5.8627,-5.8531,-5.8319,-5.7703,-5.7357,-5.7357,-5.6511,-5.6049,-5.6049,-5.6049,-5.6492,-5.7357,-5.7992,-5.8415,-5.8646,-5.8761,-5.8146,-5.6934,-5.6069,-5.5703,-5.5703,-5.5703,-5.5703,-5.5703,-5.5703,-5.5703,-5.5703,-5.5703,-5.5703,-5.5703,0.0,0.0,0.0,0.0,0.0,0.0,0.0,0.0,0.0,0.0,0.0,0.0,0.0,0.0,0.0,0.0,0.0,0.0,0.0,-3.6457,-3.8278,-3.9839,-4.2562,-4.4112,-4.4147,-4.6348,-4.755,-4.7586,-4.9751,-5.0849,-5.094,-5.3259,-5.4344,-5.4454,-5.5731,-5.6035,-5.5715,-5.7308,-5.7997,-5.7997,-5.7997,-5.7987,-5.7986,-5.798,-5.6061,-5.3336,-5.3263,0.0,0.0,0.0,-4.2157,-4.0948,-4.3645,-4.5281,0.0,-4.562,-4.3793,0.0,0.0,0.0,-4.5802,-4.8666,-5.0086,-5.1169,-5.2747,-5.3739,-5.481,-5.6431,-5.6809,-5.6891,-5.6975,-5.7703,-5.83,-5.83,-5.8954,-5.9204,-5.8434,-5.8954,-5.8838,-5.7223,-5.6261,-5.6415,0.0,-5.8973,-5.9435,-5.9454,-5.9454,-5.9127,-5.8338,-5.828,-5.8261,-5.8261,-5.7415,-5.6953,-5.6953,-5.6953,-5.7396,-5.8261,-5.83,-5.8704,-5.9415,-5.78,-5.7049,-5.6934,-5.6069,-5.5703,-5.5703,-5.5703,-5.5703,-5.5703,-5.5703,-5.5703,-5.5703,-5.5703,-5.5703,-5.5703,0.0,0.0,0.0,0.0,0.0,0.0,0.0,0.0,0.0,0.0,0.0,0.0,0.0,0.0,0.0,0.0,0.0,0.0,0.0,-3.5368,-3.716,-3.9191,-4.1128,-4.2618,-4.3615,-4.4405,-4.577,-4.7736,-4.8958,-5.0084,-5.1069,-5.3354,-5.4436,-5.4607,-5.5825,-5.6299,-5.626,-5.7499,-5.8011,-5.8001,-5.8008,-5.7984,-5.7152,-4.9144,-4.5441,-4.4615,0.0,0.0,0.0,0.0,0.0,0.0,-4.2608,0.0,0.0,-4.1905,0.0,0.0,0.0,0.0,-4.8743,-5.1339,-5.2986,-5.4271,-5.5354,-5.6216,-5.6947,-5.7578,-5.6828,-5.6064,-5.613,-5.6376,-5.6569,-5.6569,-5.7761,-5.8607,-5.8338,-5.803,-5.7627,-5.7069,-5.6742,0.0,0.0,0.0,0.0,-5.9377,-5.9492,-5.9627,-5.9935,-5.9415,-5.9108,-5.9108,-5.7723,-5.728,-5.7857,-5.6722,-5.6876,-5.83,-5.7703,-5.7877,-5.8646,-5.6915,-5.6434,-5.6934,-5.6069,-5.5703,-5.5703,-5.5703,-5.5703,-5.5703,-5.5703,-5.5703,-5.5703,-5.5703,-5.5703,-5.5703,0.0,0.0,0.0,0.0,0.0,0.0,0.0,0.0,0.0,0.0,0.0,0.0,0.0,0.0,0.0,0.0,0.0,0.0,0.0,0.0,-3.5588,-3.7313,-3.8819,-4.007,-4.1018,-4.183,-4.3299,-4.5455,-4.6737,-4.8076,-4.9556,-5.1538,-5.2814,-5.3437,-5.4514,-5.5352,-5.5987,-5.6251,-5.6093,-5.5718,-5.7337,-5.6075,-5.2279,-4.3426,-4.0117,0.0,0.0,0.0,0.0,0.0,0.0,0.0,0.0,0.0,0.0,0.0,0.0,0.0,0.0,-4.8794,-5.0886,-5.3774,-5.5262,-5.6235,-5.706,-5.7409,-5.7574,-5.7655,-5.624,-5.4899,-5.4666,-5.4292,-5.3972,-5.3972,-5.491,-5.5916,-5.6621,-5.6241,-5.6172,-5.6915,-5.6722,-5.6646,0.0,0.0,0.0,-5.8896,-5.9338,-5.9742,-6.03,-6.0108,-5.9954,-5.9954,-5.8607,-5.8165,-5.8723,-5.7338,-5.703,-5.7838,-5.7569,-5.7434,-5.7338,-5.6203,-5.6011,-5.6492,-5.5934,-5.5703,-5.5703,-5.5703,-5.5703,-5.5703,-5.5703,-5.5703,-5.5703,-5.5703,-5.5703,-5.5703,0.0,0.0,0.0,0.0,0.0,0.0,0.0,0.0,0.0,0.0,0.0,0.0,0.0,0.0,0.0,0.0,0.0,0.0,0.0,0.0,0.0,-3.4404,-3.591,-3.6755,-3.6823,-3.8886,-4.0426,-4.1256,-4.3354,-4.5144,-4.6569,-4.8123,-4.9607,-5.0943,-5.1828,-5.314,-5.4563,-5.3655,-5.252,-5.1652,-5.5947,-5.2308,-4.4073,-4.1192,0.0,0.0,0.0,0.0,0.0,0.0,0.0,0.0,0.0,0.0,0.0,0.0,0.0,-4.4786,-4.9793,-5.1267,-5.2209,-5.5935,-5.6877,-5.706,-5.7776,-5.7317,-5.6744,-5.6699,-5.5055,-5.3369,0.0,0.0,-5.0799,-5.0837,-5.1017,-5.1839,-5.3767,-5.4104,-5.4853,0.0,0.0,0.0,0.0,0.0,0.0,-5.8184,0.0,-5.9473,-5.9569,-6.0339,-6.08,-6.08,-5.9954,-5.9511,-5.9569,-5.8781,-5.7877,-5.6934,-5.7819,-5.7338,-5.5703,-5.5703,-5.5703,-5.5703,-5.5703,-5.5703,-5.5703,-5.5703,-5.5703,-5.5703,-5.5703,-5.5703,-5.5703,-5.5703,-5.5703,-5.5703,0.0,0.0,0.0,0.0,0.0,0.0,0.0,0.0,0.0,0.0,0.0,0.0,0.0,0.0,0.0,0.0,0.0,0.0,0.0,0.0,0.0,0.0,0.0,0.0,0.0,0.0,0.0,0.0,0.0,-4.3319,-4.4275,-4.6348,-4.7227,-4.7175,-4.9068,-4.9849,-4.9731,-5.0059,-5.0619,-5.1334,0.0,-4.8309,-4.1171,0.0,0.0,0.0,0.0,0.0,0.0,0.0,0.0,0.0,0.0,0.0,-4.2605,0.0,0.0,-4.8174,-5.1182,-5.3284,-5.51,-5.718,-5.7685,-5.7593,-5.7207,-5.6473,-5.5496,-5.4018,-5.1817,-4.9847,0.0,0.0,0.0,-5.0209,-5.2662,0.0,-5.6057,-5.6767,0.0,-5.7915,0.0,-5.7723,-5.7953,-5.7761,0.0,0.0,-5.8492,-5.9146,-6.0396,-6.0685,-6.08,-6.08,-5.9954,-5.9819,-6.0454,-5.9627,-5.8127,-5.603,-5.6896,-5.6761,-5.5703,-5.5703,-5.5703,-5.5703,-5.5703,-5.5703,-5.5703,-5.5703,-5.5703,-5.5703,-5.5703,-5.5703,-5.5703,-5.5703,-5.5703,-5.5703,0.0,0.0,0.0,0.0,0.0,0.0,0.0,0.0,0.0,0.0,0.0,0.0,0.0,0.0,0.0,0.0,0.0,0.0,0.0,0.0,0.0,0.0,0.0,0.0,0.0,0.0,0.0,0.0,0.0,0.0,0.0,-4.2131,-4.2988,-4.3338,-4.49,-4.5562,-4.5524,0.0,0.0,0.0,0.0,0.0,0.0,0.0,0.0,0.0,0.0,0.0,0.0,0.0,0.0,-4.2033,-4.3165,-4.3775,-4.4574,-4.7151,0.0,-5.0527,-5.3481,-5.5229,-5.6591,-5.7973,-5.8005,-5.7433,-5.6311,-5.5147,-5.3656,-5.1432,-4.9152,0.0,-4.6465,0.0,0.0,0.0,0.0,0.0,-5.5389,-5.6391,-5.7416,0.0,-5.8838,0.0,-5.8838,-5.8838,-5.8838,0.0,-5.8838,-5.9242,-6.0185,-6.0589,-6.08,-6.08,-6.0319,-6.0127,-6.0223,-6.0127,-5.8781,-5.628,-5.7146,-5.7107,-5.6261,-5.5857,-5.5915,-5.6242,-5.5857,-5.5703,-5.5703,-5.5703,-5.5703,-5.5703,-5.5703,-5.5703,-5.5703,-5.5703,-5.5703,-5.5703,0.0,0.0,0.0,0.0,0.0,0.0,0.0,0.0,0.0,0.0,0.0,0.0,0.0,0.0,0.0,0.0,0.0,0.0,0.0,0.0,0.0,0.0,0.0,0.0,0.0,0.0,0.0,0.0,0.0,0.0,0.0,0.0,0.0,0.0,0.0,0.0,0.0,0.0,0.0,0.0,0.0,0.0,0.0,0.0,0.0,0.0,0.0,0.0,0.0,0.0,-4.3188,-4.3436,-4.4413,-4.532,-4.665,-5.019,-5.1302,-5.2154,-5.5705,-5.673,-5.7085,-5.8192,-5.785,-5.6772,-5.5099,-5.3442,-5.156,-4.9015,0.0,-4.5604,-4.517,-4.5171,-4.5674,-4.6812,0.0,-5.1041,-5.4065,-5.5243,-5.6759,-5.9354,-5.9665,-5.9665,-5.9665,-5.9665,-5.9665,-5.9665,-5.9665,-5.9665,-5.9665,-6.0396,-6.08,-6.08,-6.08,-6.0377,-5.9511,-6.0242,-5.9396,-5.6992,-5.7761,-5.7665,-5.6799,-5.603,-5.6107,-5.678,-5.603,-5.5703,-5.5703,-5.5703,-5.5703,-5.5703,-5.5703,-5.5703,-5.5703,-5.5703,-5.5703,-5.5703,0.0,0.0,0.0,0.0,0.0,0.0,0.0,0.0,0.0,0.0,-3.1247,-3.119,0.0,0.0,0.0,0.0,0.0,0.0,0.0,0.0,0.0,0.0,0.0,0.0,0.0,0.0,0.0,0.0,0.0,0.0,0.0,0.0,0.0,0.0,0.0,0.0,0.0,0.0,0.0,0.0,0.0,0.0,0.0,0.0,0.0,0.0,0.0,0.0,0.0,0.0,-4.4201,-4.5075,-4.6964,-4.8181,-4.9281,-5.1266,-5.2309,-5.3243,-5.528,-5.629,-5.684,-5.7085,-5.676,-5.5723,-5.3123,-5.1509,0.0,0.0,-4.5625,-4.4689,-4.3965,-4.4628,-4.612,-4.8683,0.0,0.0,0.0,0.0,-5.9215,0.0,0.0,0.0,0.0,0.0,0.0,0.0,-6.0569,-6.0569,-6.0569,-6.0723,-6.08,-6.08,-6.08,-6.0377,-5.9511,-5.9646,-5.88,-5.6992,-5.7146,-5.6761,-5.5915,-5.5761,-5.578,-5.5915,-5.5761,0.0,-5.5703,-5.5703,-5.5703,-5.5703,-5.5703,-5.5703,-5.5703,-5.5703,-5.5703,-5.5703,0.0,0.0,0.0,0.0,0.0,0.0,0.0,-3.0177,-3.0616,-3.1313,-3.1644,-3.1826,-3.1759,-3.1427,-3.119,0.0,0.0,0.0,0.0,0.0,0.0,0.0,0.0,0.0,0.0,0.0,0.0,0.0,0.0,0.0,0.0,0.0,0.0,0.0,0.0,0.0,0.0,0.0,0.0,0.0,0.0,0.0,0.0,0.0,0.0,0.0,0.0,0.0,0.0,0.0,-4.4605,-4.584,-4.7697,-4.8893,-4.9976,-5.2032,-5.2913,-5.3555,-5.5152,-5.5868,-5.6231,-5.6478,-5.5426,-5.3758,-5.1547,0.0,0.0,0.0,-4.4342,-4.3956,-4.3552,-4.449,0.0,0.0,0.0,0.0,0.0,0.0,0.0,0.0,0.0,0.0,0.0,0.0,0.0,-6.08,-6.08,-6.08,-6.08,-6.08,-6.08,-6.08,-6.08,-6.0589,-6.0185,-5.9723,-5.8896,-5.7665,-5.7223,-5.678,-5.6357,-5.5915,-5.5953,-5.6338,-5.5895,-5.5703,-5.5703,-5.5703,-5.5703,-5.5703,-5.5703,-5.5703,-5.5703,-5.5703,-5.5703,-5.5703,0.0,0.0,0.0,0.0,0.0,0.0,0.0,-3.0133,-3.0482,-3.1322,-3.1967,-3.2311,-3.2126,-3.159,-3.1183,0.0,0.0,0.0,0.0,0.0,0.0,0.0,0.0,0.0,0.0,0.0,0.0,0.0,0.0,0.0,0.0,0.0,0.0,0.0,0.0,0.0,0.0,0.0,0.0,0.0,0.0,0.0,0.0,0.0,0.0,0.0,0.0,0.0,0.0,0.0,-4.4783,-4.5883,-4.7333,-4.86,-4.9939,-5.1867,-5.2674,-5.3261,-5.4693,-5.5207,-5.5392,-5.5591,-5.3963,-5.1821,-4.9961,-4.7868,0.0,0.0,-4.3497,-4.3497,-4.3497,0.0,0.0,0.0,0.0,0.0,0.0,0.0,0.0,0.0,0.0,0.0,0.0,0.0,0.0,-6.0781,-6.08,-6.08,-6.08,-6.08,-6.08,-6.08,-6.08,-6.08,-6.08,-5.9935,-5.9108,-5.83,-5.7415,-5.6896,-5.6684,-5.6011,-5.6069,-5.6665,-5.5992,-5.5703,-5.5703,-5.5703,-5.5703,-5.5703,-5.5703,-5.5703,-5.5703,-5.5703,-5.5703,-5.5703,0.0,0.0,0.0,0.0,0.0,0.0,0.0,-2.925,-3.0049,-3.142,-3.2009,-3.2109,-3.1645,-3.1455,-3.113,0.0,0.0,0.0,0.0,0.0,0.0,0.0,0.0,0.0,0.0,0.0,0.0,0.0,0.0,0.0,0.0,0.0,0.0,0.0,0.0,0.0,0.0,0.0,0.0,0.0,0.0,0.0,0.0,0.0,0.0,0.0,0.0,0.0,0.0,0.0,0.0,-4.4966,-4.5847,-4.7682,-4.9554,-4.9829,0.0,0.0,-5.3188,-5.3959,-5.4344,-5.3634,-5.2432,-5.0692,-4.8016,0.0,0.0,-4.3766,-4.3497,-4.3497,-4.3497,0.0,0.0,0.0,0.0,0.0,0.0,0.0,0.0,0.0,0.0,0.0,0.0,0.0,0.0,-6.0742,-6.08,-6.08,-6.08,-6.08,-6.08,-6.08,-6.08,-6.08,-6.08,-5.9935,-5.9108,-5.83,-5.7415,-5.6588,-5.5818,-5.5742,-5.5742,-5.5818,-5.5722,-5.5703,0.0,-5.5703,-5.5703,-5.5703,-5.5703,-5.5703,-5.5703,-5.5703,-5.5703,-5.5703,0.0,0.0,0.0,0.0,0.0,0.0,-2.8502,-2.8785,-2.9598,-3.1329,-3.206,-3.2204,-3.1567,-3.1491,-3.1039,-2.9847,0.0,0.0,0.0,0.0,0.0,0.0,0.0,0.0,0.0,0.0,0.0,0.0,0.0,0.0,0.0,0.0,0.0,0.0,0.0,0.0,0.0,0.0,0.0,0.0,0.0,0.0,0.0,0.0,0.0,0.0,0.0,0.0,0.0,0.0,0.0,0.0,-4.4342,-4.5443,0.0,0.0,-4.9627,-5.082,-5.2123,-5.3078,-5.3482,-5.2674,-5.098,-4.9067,-4.7481,0.0,-4.4066,-4.3587,-4.3497,-4.3563,-4.3772,-4.3893,0.0,0.0,0.0,0.0,0.0,0.0,0.0,0.0,0.0,0.0,0.0,0.0,-5.9127,-5.9954,-6.0012,-6.0242,-6.0762,-6.08,-6.08,-6.08,-6.08,-6.08,-6.08,-5.9935,-5.9108,-5.83,-5.7953,-5.7049,-5.5722,-5.6242,-5.6203,-5.5703,-5.5703,-5.5703,0.0,-5.5703,-5.5703,-5.5703,-5.5703,-5.5703,-5.5703,-5.5703,-5.5703,-5.5703,0.0,0.0,0.0,0.0,0.0,-2.8037,-2.8539,-2.8607,-2.916,-3.0746,-3.1541,-3.1759,-3.1282,-3.111,-3.067,-2.9781,-2.9894,0.0,0.0,0.0,0.0,0.0,0.0,0.0,0.0,0.0,0.0,0.0,0.0,0.0,0.0,0.0,0.0,0.0,0.0,0.0,0.0,0.0,0.0,0.0,0.0,0.0,0.0,0.0,0.0,0.0,0.0,0.0,0.0,0.0,0.0,0.0,0.0,0.0,0.0,0.0,-4.8177,-4.9444,-5.06,-5.1683,-5.2252,-5.1169,-4.9407,-4.7682,0.0,0.0,-4.3497,-4.3497,-4.3497,-4.3563,-4.3804,-4.3924,-4.4175,0.0,0.0,-4.57,-4.7865,0.0,0.0,0.0,0.0,0.0,0.0,0.0,-5.8896,-5.9454,-5.9742,-6.0146,-6.0762,-6.08,-6.08,-6.08,-6.08,-6.08,-6.08,-6.0185,-5.9358,-5.83,-5.83,-5.7396,-5.5722,-5.6338,-5.628,-5.5703,-5.5703,-5.5703,0.0,-5.5703,-5.5703,-5.5703,-5.5703,-5.5703,-5.5703,-5.5703,-5.5703,-5.5703,0.0,0.0,0.0,0.0,0.0,0.0,-2.8591,-2.8607,-2.8846,-2.952,-3.0133,-3.0522,-3.0507,-2.9968,-2.9888,-3.0417,-2.984,0.0,0.0,0.0,0.0,0.0,0.0,0.0,0.0,0.0,0.0,-3.3389,0.0,0.0,0.0,0.0,0.0,0.0,0.0,0.0,0.0,0.0,0.0,0.0,0.0,0.0,0.0,0.0,0.0,0.0,0.0,0.0,0.0,0.0,0.0,0.0,0.0,0.0,0.0,0.0,-4.6452,-4.8324,-4.8343,-4.9572,-5.0435,-4.8746,-4.7737,-4.6709,0.0,0.0,0.0,-4.3497,-4.3497,-4.3497,-4.3479,-4.3772,-4.3998,-4.3998,0.0,0.0,0.0,0.0,0.0,0.0,0.0,0.0,0.0,0.0,-5.9492,-5.9492,-6.03,0.0,-6.08,-6.08,-6.08,-6.08,-6.08,-6.08,-6.08,-6.0781,-5.9954,-5.83,-5.83,-5.7396,-5.5703,-5.5703,-5.5703,-5.5703,-5.5703,-5.5703,0.0,-5.5703,-5.5703,-5.5703,-5.5703,-5.5703,-5.5703,-5.5703,-5.5703,-5.5703,0.0,0.0,0.0,0.0,0.0,0.0,0.0,-2.8278,-2.8789,-2.9484,-2.9759,-3.0177,-3.1006,-3.0593,-3.0479,-3.1146,-3.0561,0.0,0.0,0.0,0.0,0.0,0.0,0.0,0.0,0.0,0.0,-3.3422,-3.4408,-3.515,0.0,0.0,0.0,0.0,0.0,0.0,0.0,0.0,0.0,0.0,0.0,0.0,0.0,0.0,0.0,0.0,0.0,0.0,0.0,0.0,0.0,0.0,0.0,0.0,0.0,0.0,0.0,0.0,-4.7333,-4.8288,-4.8838,-4.7755,-4.6874,-4.6012,-4.4947,0.0,0.0,-4.3497,-4.3497,-4.3563,-4.3804,-4.3924,-4.4274,-4.5087,0.0,0.0,0.0,0.0,0.0,0.0,0.0,0.0,0.0,0.0,-5.6971,-5.8119,-5.8203,-5.8954,-6.0704,-6.0242,-6.0185,-6.0781,-6.08,-6.08,-6.08,-6.08,-5.9954,-5.8319,-5.8858,-5.7915,-5.5722,-5.6319,-5.6261,-5.5703,-5.5703,-5.5703,-5.5703,-5.5703,-5.5703,-5.5703,-5.5703,-5.5703,-5.5703,-5.5703,-5.5703,-5.5703,0.0,0.0,0.0,0.0,0.0,0.0,0.0,-2.8286,-2.8578,-2.8816,-2.8831,-2.9395,-3.0896,-3.0541,-3.0751,-3.2107,-3.1917,0.0,0.0,0.0,0.0,0.0,0.0,0.0,0.0,0.0,-3.1561,-3.3389,-3.4858,-3.5597,-3.5596,-3.6194,-3.6322,0.0,0.0,0.0,0.0,0.0,0.0,0.0,0.0,0.0,-4.2262,0.0,0.0,0.0,0.0,0.0,0.0,0.0,0.0,0.0,0.0,0.0,0.0,0.0,0.0,0.0,0.0,-4.6783,-4.7205,-4.6416,-4.5828,0.0,0.0,0.0,0.0,0.0,0.0,0.0,-4.3772,-4.3804,-4.4048,-4.4797,-4.495,0.0,0.0,0.0,0.0,0.0,0.0,0.0,0.0,-5.5246,-5.642,-5.7322,-5.7459,-5.8235,-5.9958,-5.9691,-5.9677,-6.0035,-6.0537,-6.0646,-6.03,-6.03,-5.9473,-5.7819,-5.8319,-5.755,-5.5722,-5.6261,-5.6203,-5.5703,-5.5703,-5.5703,0.0,-5.5703,-5.5703,-5.5703,-5.5703,-5.5703,-5.5703,-5.5703,-5.5703,-5.5703,0.0,0.0,0.0,0.0,0.0,0.0,0.0,-2.8559,-2.8319,-2.766,-2.7625,-2.8329,-3.0211,-2.9912,-3.0631,-3.3278,0.0,0.0,0.0,0.0,0.0,0.0,0.0,0.0,0.0,-3.2555,-3.2974,-3.3411,-3.5103,-3.5907,-3.5952,-3.7405,-3.7621,-3.6835,0.0,0.0,0.0,0.0,0.0,0.0,0.0,0.0,0.0,0.0,0.0,0.0,0.0,0.0,0.0,0.0,0.0,0.0,0.0,0.0,0.0,0.0,0.0,0.0,0.0,0.0,0.0,0.0,0.0,0.0,0.0,0.0,0.0,0.0,0.0,0.0,0.0,-4.3497,-4.3516,-4.3571,0.0,0.0,0.0,0.0,0.0,0.0,0.0,0.0,0.0,-5.573,-5.7275,-5.6986,-5.7684,-5.8314,-5.8748,-5.9114,-5.9139,-5.8778,-5.9983,-6.0223,-5.9415,-5.9415,-5.8588,-5.6992,-5.6992,-5.653,-5.5703,-5.5703,-5.5703,0.0,-5.5703,-5.5703,-5.5703,-5.5703,-5.5665,-5.5607,-5.5684,-5.5665,-5.5607,-5.5684,-5.5703,-5.5703,0.0,0.0,0.0,0.0,0.0,0.0,0.0,0.0,0.0,0.0,-2.7625,-2.8115,-2.9501,-2.9513,-3.05,0.0,0.0,0.0,0.0,0.0,0.0,0.0,0.0,0.0,0.0,-3.2621,-3.3295,-3.3411,-3.7177,-3.9016,-3.9052,-3.9411,-3.892,-3.7775,-3.7714,0.0,0.0,0.0,0.0,0.0,0.0,0.0,0.0,0.0,0.0,0.0,-4.0469,-4.0708,0.0,0.0,0.0,0.0,0.0,0.0,0.0,0.0,-4.0469,0.0,0.0,0.0,0.0,0.0,0.0,0.0,0.0,0.0,0.0,0.0,0.0,0.0,0.0,0.0,0.0,0.0,0.0,0.0,0.0,0.0,0.0,0.0,0.0,0.0,-5.2783,-5.4237,-5.5567,-5.6454,-5.6418,-5.6931,-5.8338,-5.7889,-5.7854,-5.8395,-5.8716,-5.88,-5.8588,-5.8588,-5.805,-5.6992,-5.6992,-5.653,-5.5703,-5.5703,-5.5703,-5.5703,-5.5703,-5.5703,-5.5703,-5.5703,-5.5338,-5.4838,-5.5453,-5.5318,-5.4857,-5.5472,-5.5703,-5.5703,0.0,0.0,0.0,0.0,0.0,0.0,0.0,0.0,0.0,0.0,0.0,0.0,0.0,0.0,0.0,0.0,0.0,0.0,0.0,0.0,0.0,0.0,0.0,0.0,0.0,-3.216,-3.3031,-3.4413,-3.8225,-4.0079,-4.0085,-4.0092,-3.9877,-3.9458,-3.8561,0.0,0.0,0.0,0.0,0.0,-4.23,0.0,0.0,0.0,0.0,0.0,-3.9643,-3.9863,0.0,-4.0047,-3.99,-3.99,0.0,0.0,0.0,0.0,-3.9662,0.0,0.0,0.0,-4.1864,-4.2286,-4.2671,-4.2837,0.0,0.0,0.0,0.0,0.0,0.0,0.0,0.0,0.0,0.0,-4.4623,0.0,0.0,0.0,0.0,0.0,0.0,0.0,0.0,-5.4697,-5.5541,-5.6045,-5.5846,-5.6176,-5.732,-5.7136,-5.7117,-5.7378,-5.7597,-5.7703,-5.7703,-5.7703,-5.7261,-5.6395,-5.6395,-5.6145,-5.5703,-5.5703,-5.5703,-5.5703,-5.5703,-5.5491,-5.5145,-5.5145,-5.4664,-5.3953,-5.4376,-5.453,-5.4549,-5.4991,-5.5376,-5.5703,0.0,0.0,0.0,0.0,0.0,0.0,0.0,0.0,0.0,0.0,0.0,0.0,0.0,0.0,0.0,0.0,0.0,0.0,0.0,0.0,0.0,0.0,0.0,-3.1546,-3.2256,-3.1591,-3.2517,-3.527,-3.8528,-4.0113,-4.0087,-4.0082,-4.0342,-4.0731,-3.9277,0.0,0.0,0.0,0.0,0.0,-4.2268,0.0,0.0,0.0,0.0,0.0,0.0,0.0,0.0,-3.9717,-3.9717,-3.9717,-3.9717,0.0,0.0,0.0,0.0,0.0,-3.9533,-4.0304,-4.0965,-4.1075,-4.1625,-4.1937,-4.1277,0.0,0.0,0.0,0.0,0.0,0.0,-4.3497,0.0,0.0,0.0,0.0,0.0,0.0,0.0,0.0,0.0,0.0,-5.4787,-5.5641,-5.6002,-5.572,-5.5703,-5.5861,-5.6198,-5.6587,-5.6629,-5.6236,-5.6587,-5.6799,-5.6799,-5.6799,-5.6415,-5.5703,-5.5703,-5.5703,-5.5703,-5.5703,-5.5703,-5.5703,-5.5703,0.0,-5.4491,-5.4491,-5.3914,-5.301,-5.3145,-5.3568,-5.4145,-5.4395,-5.4934,-5.553,0.0,0.0,0.0,0.0,0.0,0.0,0.0,0.0,0.0,0.0,0.0,0.0,0.0,0.0,0.0,0.0,0.0,0.0,0.0,0.0,0.0,0.0,-3.1512,-3.1546,-3.2256,-3.1564,-3.2035,-3.3739,-3.7991,-4.0109,-4.0099,-4.0083,-3.987,-3.9369,-3.8663,-3.9302,-4.0895,-4.0454,-4.0978,-4.2139,-4.231,0.0,0.0,0.0,0.0,0.0,0.0,0.0,0.0,-3.8891,-3.8891,-3.8891,-3.8891,0.0,0.0,0.0,0.0,0.0,-3.8854,-3.946,-4.0249,-4.0946,-4.1203,-4.1258,-4.1148,0.0,0.0,0.0,0.0,0.0,0.0,-4.3497,-4.3497,0.0,0.0,0.0,0.0,0.0,0.0,0.0,0.0,-5.4163,-5.407,-5.4802,-5.5415,-5.5682,-5.5703,-5.572,-5.5791,-5.5855,-5.5874,-5.5791,-5.5855,-5.5895,-5.5895,-5.5895,-5.5818,-5.5703,-5.5703,-5.5703,-5.5703,-5.5703,-5.5703,-5.5703,0.0,-5.5241,-5.4491,-5.4491,-5.3549,-5.2183,-5.2914,-5.2837,-5.2491,-5.3953,-5.4587,-5.478,0.0,0.0,0.0,0.0,0.0,0.0,0.0,0.0,0.0,0.0,0.0,0.0,0.0,0.0,0.0,0.0,0.0,0.0,0.0,0.0,0.0,0.0,-3.1662,-3.1375,-3.1712,-3.215,-3.2326,-3.2204,-3.5862,-3.911,-4.1908,-4.0393,-3.9511,-3.921,-3.8452,-3.8957,-4.0469,-4.0675,-4.1076,-4.1735,0.0,0.0,0.0,0.0,0.0,0.0,0.0,0.0,0.0,0.0,-3.8707,-3.8707,-3.8707,0.0,0.0,0.0,0.0,0.0,-3.8707,-3.8964,-3.9441,-4.0249,-4.0781,-4.0873,-4.001,0.0,0.0,0.0,0.0,0.0,0.0,0.0,-4.504,0.0,0.0,0.0,0.0,0.0,0.0,0.0,0.0,-5.3865,-5.4786,-5.5212,-5.5489,-5.5703,-5.5703,-5.5703,-5.5703,-5.5703,-5.5703,-5.5703,-5.5703,-5.5703,-5.5703,-5.5703,-5.5703,-5.5703,-5.5703,-5.5703,-5.5703,-5.5703,-5.5703,-5.5684,0.0,-5.4568,-5.376,-5.3299,-5.2375,-5.1337,-5.2183,-5.2549,-5.2818,-5.4511,-5.5145,-5.5203,0.0,0.0,0.0,0.0,0.0,0.0,0.0,0.0,0.0,0.0,0.0,0.0,0.0,0.0,0.0,0.0,0.0,0.0,0.0,0.0,-3.1921,-3.2841,-3.2143,-3.1573,-3.1191,-3.2328,-3.2673,-3.2213,-3.5186,-3.8688,-4.2555,-4.0211,-3.9129,-3.9093,-3.8198,-3.8612,-3.9937,-4.0427,-4.0701,-4.0946,0.0,0.0,0.0,0.0,0.0,0.0,0.0,0.0,0.0,0.0,0.0,0.0,0.0,0.0,0.0,-3.8707,-3.8707,-3.8707,-3.8707,-3.8836,-3.9074,-3.9515,0.0,-4.0322,-3.946,0.0,0.0,0.0,0.0,0.0,0.0,0.0,0.0,0.0,0.0,0.0,0.0,0.0,-5.1618,-5.3197,-5.3393,-5.4024,-5.5547,-5.5703,-5.5703,-5.5703,-5.5703,-5.5703,-5.5703,-5.5703,-5.5703,-5.5703,-5.5703,-5.5703,-5.5703,-5.5511,-5.5511,-5.5703,-5.5511,-5.5511,-5.5684,-5.528,-5.5222,-5.5376,-5.4549,-5.3703,-5.2837,-5.2183,-5.1433,-5.0779,-5.1587,-5.2568,-5.3645,-5.4722,-5.5357,-5.5703,0.0,0.0,0.0,0.0,0.0,0.0,0.0,0.0,0.0,0.0,0.0,0.0,0.0,0.0,0.0,0.0,0.0,0.0,0.0,0.0,-3.2824,-3.3313,-3.3263,-3.2614,-3.1226,-3.1292,-3.2641,-3.5274,-3.8291,-3.9817,-3.9863,-3.9037,-3.8556,-3.8351,-3.7784,-3.8424,-3.985,-3.9418,-3.9522,-3.9992,-4.0102,0.0,0.0,0.0,0.0,0.0,0.0,0.0,0.0,0.0,0.0,0.0,0.0,0.0,-3.8707,0.0,-3.8707,-3.8707,-3.8707,-3.9239,-3.9643,-3.8964,-3.8836,0.0,-4.0616,-4.0487,0.0,-4.1919,0.0,0.0,0.0,0.0,0.0,0.0,0.0,0.0,0.0,0.0,-5.5314,-5.547,-5.5489,-5.5528,-5.5684,-5.5703,-5.5703,-5.5703,-5.5703,-5.5703,-5.5703,-5.5703,-5.5703,-5.5703,-5.5703,-5.5703,-5.5703,-5.4953,-5.4953,-5.5684,-5.4934,-5.4972,-5.5645,-5.4087,-5.3818,-5.453,-5.3664,-5.2799,-5.1991,-5.1933,-5.1433,-5.0779,-5.1587,-5.2933,-5.4318,-5.3626,-5.4357,-5.5703,0.0,0.0,0.0,0.0,0.0,0.0,0.0,0.0,0.0,0.0,0.0,0.0,0.0,0.0,0.0,0.0,0.0,0.0,0.0,0.0,-3.2652,-3.4669,-3.4785,-3.4531,-3.3956,-3.2131,-3.3567,-3.8414,-4.0961,-4.0932,-3.8537,-3.8864,-3.8776,-3.8284,-3.7925,-3.8293,-3.9184,-3.9465,-3.9443,-3.9239,-4.0249,-3.9863,0.0,0.0,0.0,0.0,0.0,0.0,0.0,0.0,-3.8707,0.0,0.0,0.0,0.0,0.0,0.0,-3.8707,-3.8707,-3.9294,-3.9827,-3.9515,0.0,0.0,0.0,0.0,0.0,0.0,0.0,0.0,0.0,0.0,0.0,0.0,0.0,0.0,-5.4936,-5.5446,-5.5703,-5.5703,-5.5703,-5.5703,-5.5703,-5.5703,-5.5491,-5.4991,-5.4953,-5.4722,-5.4164,-5.4145,-5.4395,-5.4934,-5.4953,-5.5184,-5.5703,-5.4895,-5.4645,-5.4934,-5.4107,-5.4126,-5.4914,-5.3741,-5.3376,-5.3645,-5.2779,-5.2202,-5.1875,-5.1356,-5.1279,-5.1587,-5.2972,-5.3914,-5.4511,-5.4684,-5.5164,-5.5703,0.0,0.0,0.0,0.0,0.0,0.0,0.0,0.0,0.0,0.0,0.0,0.0,0.0,0.0,0.0,0.0,0.0,0.0,0.0,-3.1596,-3.211,-3.414,-3.4223,-3.4216,-3.4227,-3.2243,-3.364,-3.8709,-4.1215,-4.0861,-3.7925,-3.8044,-3.8064,-3.7952,-3.7756,-3.8083,-3.8744,-3.9294,-3.9203,-3.8799,-3.99,-3.968,0.0,0.0,0.0,0.0,0.0,0.0,0.0,0.0,0.0,0.0,0.0,0.0,0.0,0.0,0.0,0.0,-3.8322,-3.8707,-3.9129,0.0,0.0,0.0,0.0,0.0,0.0,0.0,0.0,0.0,0.0,0.0,0.0,0.0,0.0,-5.3954,-5.479,-5.5256,-5.5554,-5.5684,-5.5703,-5.5703,-5.5703,-5.5703,-5.5376,-5.4549,-5.4491,-5.4126,-5.326,-5.3203,-5.3472,-5.4068,-5.4087,-5.4357,-5.4914,-5.4087,-5.3818,-5.4087,-5.2953,-5.2991,-5.4049,-5.2914,-5.2549,-5.2741,-5.1895,-5.1529,-5.151,-5.1202,-5.1568,-5.2395,-5.3049,-5.378,-5.453,-5.4799,-5.5241,-5.5703,0.0,0.0,0.0,0.0,0.0,0.0,0.0,0.0,0.0,0.0,0.0,0.0,0.0,0.0,0.0,0.0,0.0,0.0,0.0,-3.12,-3.1221,-3.1221,-3.12,-3.1191,-3.1191,-3.1191,-3.2653,-3.5622,-3.8576,-3.9325,-3.7818,-3.6316,-3.6165,-3.7173,-3.721,-3.7756,-3.8707,-3.8707,-3.8707,-3.8707,-3.8707,-3.8707,-3.8707,0.0,0.0,0.0,0.0,0.0,0.0,0.0,0.0,0.0,0.0,0.0,0.0,0.0,-3.812,-3.7507,-3.7526,-3.7526,0.0,0.0,0.0,0.0,0.0,0.0,-4.3718,0.0,0.0,0.0,0.0,0.0,0.0,0.0,-5.161,-5.3484,-5.4352,-5.4848,-5.5237,-5.5643,-5.5684,-5.5684,-5.5684,-5.5684,-5.5338,-5.4549,-5.4491,-5.4107,-5.3222,-5.3183,-5.3183,-5.3203,-5.3203,-5.3203,-5.3203,-5.2337,-5.2337,-5.3164,-5.1491,-5.1568,-5.3126,-5.1452,-5.1125,-5.1856,-5.1048,-5.0702,-5.076,-5.1568,-5.2414,-5.301,-5.1356,-5.226,-5.4376,-5.353,-5.426,-5.5684,0.0,0.0,0.0,0.0,0.0,0.0,0.0,0.0,0.0,0.0,0.0,0.0,0.0,0.0,0.0,0.0,0.0,0.0,0.0,-3.1202,-3.1196,-3.1196,-3.1207,-3.12,-3.12,-3.1197,-3.2647,-3.5622,-3.6485,-3.67,-3.6299,-3.6358,-3.6483,-3.6684,-3.7396,-3.7877,-3.815,-3.8546,-3.8707,-3.8707,-3.8707,-3.8707,-3.8707,0.0,0.0,0.0,0.0,0.0,0.0,0.0,0.0,0.0,0.0,0.0,0.0,0.0,-3.812,-3.7606,-3.8193,0.0,0.0,0.0,0.0,0.0,0.0,0.0,0.0,0.0,0.0,0.0,0.0,0.0,0.0,-4.8638,-5.0489,-5.2315,-5.3434,-5.3908,-5.4358,-5.4795,-5.4318,-5.4184,-5.4799,-5.4857,-5.4491,-5.3645,-5.3587,-5.2953,-5.151,-5.1433,-5.1702,-5.2279,-5.2299,-5.2587,-5.3203,-5.2337,-5.2029,-5.2279,-5.1202,-5.126,-5.226,-5.1183,-5.0818,-5.1029,-5.0798,-5.0702,-5.076,-5.1568,-5.1722,-5.151,-5.2183,-5.2549,-5.2799,-5.376,-5.4434,-5.4857,0.0,0.0,0.0,0.0,0.0,0.0,0.0,0.0,0.0,0.0,0.0,0.0,0.0,0.0,0.0,0.0,0.0,0.0,0.0,0.0,-3.119,-3.119,-3.2304,-3.2406,-3.1246,-3.1197,-3.2261,-3.4464,-3.4639,-3.4834,-3.5054,-3.5521,-3.5967,-3.6416,-3.7041,-3.7524,-3.7911,-3.8249,-3.8515,-3.8707,-3.8707,-3.8707,-3.8707,0.0,0.0,0.0,0.0,0.0,0.0,0.0,0.0,0.0,0.0,0.0,0.0,-3.7845,-3.7058,-3.6419,-3.7051,0.0,0.0,0.0,0.0,0.0,0.0,0.0,0.0,0.0,0.0,0.0,0.0,0.0,0.0,-4.8673,-4.9842,-5.1117,-5.2329,-5.268,-5.3053,-5.3656,-5.3283,-5.3229,-5.3933,-5.3972,-5.3626,-5.276,-5.2683,-5.2106,-5.076,-5.0702,-5.0914,-5.1414,-5.1414,-5.1683,-5.2202,-5.1683,-5.1414,-5.1414,-5.0587,-5.0625,-5.1414,-5.0914,-5.0702,-5.0702,-5.0702,-5.0875,-5.1183,-5.1356,-5.1337,-5.1241,-5.1933,-5.2087,-5.2029,-5.3087,-5.3683,-5.3972,0.0,0.0,0.0,0.0,0.0,0.0,0.0,0.0,0.0,0.0,0.0,0.0,0.0,0.0,0.0,0.0,0.0,0.0,0.0,0.0,-3.119,-3.119,-3.3922,-3.414,-3.1412,-3.1258,-3.1666,-3.2604,-3.3151,-3.3643,-3.4141,-3.4252,-3.4994,-3.6229,-3.6357,-3.6904,-3.7755,-3.7825,-3.815,-3.8627,-3.8627,-3.8627,-3.8627,-3.8627,0.0,0.0,0.0,0.0,0.0,0.0,0.0,0.0,0.0,0.0,-3.7312,-3.6476,-3.5399,-3.4552,0.0,0.0,0.0,0.0,0.0,0.0,0.0,0.0,0.0,0.0,0.0,0.0,0.0,-4.7719,-4.77,-4.915,-4.9499,-4.9987,-5.1134,-5.1297,-5.1565,-5.2334,-5.238,-5.2499,-5.2986,-5.3027,-5.2721,-5.1972,-5.1914,-5.1548,-5.0741,-5.0702,-5.0702,-5.0702,-5.0702,-5.0702,-5.0702,-5.0702,-5.0702,-5.0683,-4.9817,-4.9798,-5.0567,-5.0567,-5.0606,-5.0702,-5.0702,-5.1106,-5.1741,-5.0991,-5.1125,-5.1722,-5.0991,-5.1144,-5.1798,-5.1875,-5.2414,-5.3087,0.0,0.0,0.0,0.0,0.0,0.0,0.0,0.0,0.0,0.0,0.0,0.0,0.0,0.0,0.0,0.0,0.0,0.0,0.0,0.0,-3.119,-3.119,-3.2929,-3.3374,-3.2398,-3.1584,-3.1443,-3.2007,-3.3029,-3.3567,-3.3609,-3.4514,-3.4974,-3.4959,-3.5949,-3.6539,-3.6746,-3.7173,-3.7614,-3.8065,-3.8065,-3.8065,-3.8065,-3.8065,-3.7843,0.0,0.0,0.0,0.0,0.0,0.0,0.0,-3.7533,-3.7379,-3.7283,-3.6103,-3.5332,0.0,0.0,0.0,0.0,0.0,0.0,0.0,0.0,0.0,0.0,0.0,0.0,0.0,-4.8269,-4.8159,-4.8159,-4.8508,-4.9132,-4.9785,-5.0371,-5.0405,-5.059,-5.1101,-5.0591,-5.0578,-5.162,-5.172,-5.1756,-5.1894,-5.1914,-5.1548,-5.0741,-5.0702,-5.0702,-5.0702,-5.0702,-5.0702,-5.0702,-5.0702,-5.0702,-5.0683,-4.9817,-4.949,-4.9683,-4.9683,-5.0048,-5.0702,-5.0702,-5.0798,-5.0933,-5.076,-5.0798,-5.0933,-5.076,-5.0798,-5.1029,-5.1683,-5.2029,-5.2183,0.0,0.0,0.0,0.0,0.0,0.0,0.0,0.0,0.0,0.0,0.0,0.0,0.0,0.0,0.0,0.0,0.0,0.0,0.0,0.0,0.0,-3.3063,-3.3599,-3.372,-3.3419,-3.2714,-3.2169,-3.1789,-3.288,0.0,0.0,0.0,0.0,-3.5429,0.0,-3.5838,-3.6416,-3.6684,-3.7097,-3.7578,-3.7578,-3.7578,-3.7578,-3.7578,-3.7396,-3.721,-3.747,0.0,0.0,0.0,0.0,0.0,0.0,0.0,-3.5521,-3.4677,-3.4249,0.0,0.0,0.0,0.0,0.0,0.0,0.0,0.0,0.0,0.0,0.0,0.0,0.0,-4.715,-4.748,-4.7737,-4.7737,-4.8434,-4.9064,-4.9251,-4.9251,-4.9394,-4.9827,-4.9496,-4.9596,-5.0615,-5.0722,-5.073,-5.0702,-5.0702,-5.0529,-5.0087,-4.9683,-4.9644,-5.0048,-4.9663,-4.9452,-4.9452,-4.9452,-4.9452,-4.9452,-4.8606,-4.8202,-4.824,-4.9029,-4.9875,-5.0702,-5.0702,-5.0702,-5.0702,-5.0702,-5.0702,-5.0702,-5.0702,-5.0702,-5.0741,-5.1164,-5.1337,-5.1337,0.0,0.0,0.0,0.0,0.0,0.0,0.0,0.0,0.0,0.0,0.0,0.0,0.0,0.0,0.0,0.0,0.0,0.0,0.0,0.0,0.0,0.0,-3.434,-3.4058,-3.4091,-3.3671,-3.2966,-3.2057,0.0,0.0,0.0,0.0,0.0,-3.5976,0.0,-3.5343,-3.6266,-3.6333,-3.6724,-3.719,-3.719,-3.719,-3.719,-3.719,-3.7114,-3.6943,-3.7135,-3.6622,-3.5825,-3.5367,0.0,0.0,0.0,0.0,-3.3888,-3.3283,-3.3044,0.0,0.0,0.0,0.0,0.0,0.0,0.0,0.0,0.0,0.0,0.0,0.0,-4.5902,-4.5902,-4.6452,-4.6911,-4.6911,-4.7462,-4.7884,-4.7884,-4.7884,-4.8034,-4.842,-4.8468,-4.8771,-4.9562,-4.9654,-4.9503,-4.9202,-4.9183,-4.9183,-4.9183,-4.849,-4.8432,-4.9144,-4.849,-4.8105,-4.8105,-4.8105,-4.8105,-4.8086,-4.7278,-4.6913,-4.6951,-4.8336,-4.9433,-5.026,-5.0567,-5.0606,-5.0491,-5.0625,-5.0702,-5.0702,-5.0702,-5.0702,-5.0702,-5.0702,-5.0702,-5.0702,0.0,0.0,0.0,0.0,0.0,0.0,0.0,0.0,0.0,0.0,0.0,0.0,0.0,0.0,0.0,0.0,0.0,0.0,0.0,0.0,0.0,-3.3266,-3.295,-3.305,-3.3671,-3.2998,-3.2787,-3.3014,0.0,0.0,0.0,0.0,0.0,-3.4471,0.0,0.0,-3.5739,-3.6224,-3.6724,-3.719,-3.719,-3.719,-3.719,-3.719,-3.6626,-3.5941,-3.6865,-3.6412,-3.554,-3.6547,-3.6738,0.0,0.0,0.0,-3.4983,-3.314,-3.2848,0.0,0.0,0.0,0.0,0.0,0.0,0.0,0.0,0.0,0.0,0.0,-4.4837,-4.5902,-4.5902,-4.5993,-4.6067,-4.6067,-4.6159,-4.6214,-4.6214,-4.6214,-4.6358,-4.6675,-4.6741,-4.7016,-4.7767,-4.7857,-4.7974,-4.826,-4.8279,-4.8279,-4.8279,-4.8163,-4.8144,-4.8279,-4.8163,-4.8105,-4.8105,-4.8105,-4.8105,-4.8086,-4.7278,-4.6913,-4.6913,-4.7144,-4.7682,-4.8529,-5.0029,-5.026,-4.9625,-5.0375,-5.0702,-5.0702,-5.0702,-5.0702,-5.0702,-5.0702,-5.0702,-5.0702,0.0,0.0,0.0,0.0,0.0,0.0,0.0,0.0,0.0,0.0,0.0,0.0,0.0,0.0,0.0,0.0,0.0,0.0,0.0,0.0,0.0,-3.3354,-3.3283,-3.3496,-3.4035,-3.3502,-3.3225,0.0,0.0,0.0,0.0,-3.5451,-3.58,0.0,0.0,0.0,0.0,-3.6764,-3.6981,-3.719,-3.719,-3.6642,-3.586,-3.6492,-3.5879,-3.4839,-3.5897,-3.5683,-3.4932,-3.549,-3.5079,-3.4277,-3.4401,0.0,0.0,0.0,-3.3502,0.0,-3.4745,0.0,0.0,0.0,0.0,0.0,0.0,0.0,0.0,-4.3497,-4.4048,-4.4562,-4.4562,-4.4929,-4.5241,-4.5241,-4.5608,-4.5902,-4.5902,-4.6061,-4.6212,-4.6392,-4.6392,-4.6607,-4.7174,-4.7226,-4.7186,-4.7101,-4.73,-4.7432,-4.7432,-4.6951,-4.6913,-4.7413,-4.6951,-4.6701,-4.6701,-4.6701,-4.6701,-4.6682,-4.6336,-4.6163,-4.6182,-4.6682,-4.7336,-4.8144,-4.8913,-4.9029,-4.8702,-4.9086,-4.9529,-4.9971,-4.9971,-5.026,-5.0702,-5.0702,-5.0702,-5.0702,0.0,0.0,0.0,0.0,0.0,0.0,0.0,0.0,0.0,0.0,0.0,0.0,0.0,0.0,0.0,0.0,0.0,0.0,0.0,0.0,0.0,-3.3496,-3.3709,-3.3927,-3.425,-3.3945,0.0,0.0,0.0,0.0,-3.3844,-3.5514,-3.6401,0.0,-3.6504,0.0,0.0,0.0,0.0,-3.7039,-3.663,-3.5847,-3.4978,-3.5618,-3.5018,-3.4042,-3.5256,-3.4994,-3.4134,-3.4397,-3.3683,-3.2835,-3.3865,-3.3519,0.0,0.0,0.0,0.0,0.0,0.0,0.0,0.0,0.0,0.0,0.0,0.0,0.0,0.0,-4.3185,-4.3259,-4.3442,-4.3993,-4.4397,-4.4397,-4.4892,-4.5278,-4.5278,-4.5503,-4.5681,-4.576,-4.5791,-4.5947,-4.6364,-4.6391,-4.6284,-4.6008,-4.6261,-4.6474,-4.6567,-4.5951,-4.5893,-4.6547,-4.5932,-4.5586,-4.5586,-4.5586,-4.5586,-4.5586,-4.5586,-4.5586,-4.5605,-4.6278,-4.6894,-4.749,-4.7913,-4.799,-4.7817,-4.8029,-4.849,-4.9086,-4.9317,-4.9798,-5.0394,-5.0606,-5.0702,-5.0702,0.0,0.0,0.0,0.0,0.0,0.0,0.0,0.0,0.0,0.0,0.0,0.0,0.0,0.0,0.0,-3.0939,-2.8537,-2.8159,-3.1009,-3.1778,-3.2397,-3.2997,-3.3514,0.0,-3.3835,-3.3825,0.0,0.0,0.0,0.0,-3.3844,-3.5514,-3.6321,-3.6355,-3.7374,-3.7095,-3.5985,0.0,0.0,0.0,-3.5055,-3.4857,-3.5393,0.0,-3.4046,0.0,0.0,-3.4681,-3.3235,-3.4168,-3.4116,-3.3688,-3.4094,-3.4765,-3.5421,0.0,0.0,0.0,0.0,0.0,0.0,0.0,0.0,0.0,0.0,0.0,0.0,0.0,-4.2359,-4.2598,-4.3351,-4.3516,-4.3552,-4.3552,-4.3589,-4.3608,-4.3608,-4.3642,-4.3775,-4.4085,-4.4128,-4.4277,-4.4685,-4.4712,-4.4846,-4.5132,-4.5194,-4.5339,-4.5663,-4.5605,-4.5605,-4.5663,-4.5605,-4.5586,-4.5586,-4.5586,-4.5586,-4.5586,-4.5586,-4.5586,-4.5586,-4.5643,-4.5682,-4.5817,-4.7413,-4.7682,-4.7028,-4.7798,-4.8125,-4.8259,-4.9086,-4.9433,-4.9567,-5.0394,-5.0702,-5.0702,0.0,0.0,0.0,0.0,0.0,0.0,0.0,0.0,0.0,0.0,0.0,0.0,0.0,-3.0184,-2.9358,-2.8404,-2.8215,-2.952,-3.2673,-3.3087,-3.3128,-3.302,-3.3515,-3.3807,-3.3807,-3.3807,0.0,0.0,0.0,-3.3807,-3.3825,-3.4945,-3.5771,-3.6358,-3.7783,-3.8154,-3.7697,-3.7366,0.0,0.0,-3.5903,-3.4951,-3.4104,0.0,0.0,0.0,0.0,0.0,-3.4826,-3.469,-3.4528,-3.4482,-3.4888,-3.4927,-3.501,-3.58,-3.5546,0.0,0.0,0.0,0.0,0.0,0.0,0.0,0.0,0.0,-4.1185,-4.1479,-4.1534,-4.1625,-4.1919,-4.28,-4.3497,-4.3497,-4.3497,-4.3497,-4.3497,-4.3679,-4.3881,-4.3986,-4.4016,-4.4076,-4.4204,-4.4447,-4.4631,-4.4757,-4.518,-4.5457,-4.5586,-4.5586,-4.5586,-4.5586,-4.5586,-4.5586,-4.5586,-4.5586,-4.5586,-4.5586,-4.5586,-4.5586,-4.5586,-4.5586,-4.5586,-4.5624,-4.622,-4.6336,-4.6086,-4.6374,-4.6836,-4.7355,-4.7682,-4.8105,-4.8663,-4.9529,-4.9875,-4.9952,0.0,0.0,0.0,0.0,0.0,0.0,0.0,0.0,0.0,0.0,0.0,0.0,0.0,0.0,-2.9899,-2.7662,-2.8407,-2.9918,-3.2047,-3.2863,-3.3353,-3.3556,-3.3792,-3.3935,-3.3935,-3.3842,0.0,0.0,0.0,0.0,0.0,-3.4633,-3.5227,-3.5725,-3.7058,-3.7807,0.0,0.0,0.0,-3.6409,-3.5458,-3.4502,-3.3777,0.0,0.0,0.0,0.0,0.0,0.0,-3.496,-3.4694,-3.4757,-3.5343,-3.5661,-3.5903,-3.6227,-3.5899,0.0,-3.4761,0.0,0.0,0.0,0.0,0.0,0.0,0.0,-3.9974,-4.0249,-4.0304,-4.0469,-4.102,-4.1974,-4.2782,-4.3039,-4.3094,-4.3185,-4.3442,-4.3693,-4.3818,-4.3818,-4.3818,-4.3881,-4.3986,-4.4233,-4.4501,-4.4732,-4.4894,-4.5169,-4.5586,-4.5316,-4.5297,-4.5586,-4.5586,-4.5586,-4.5586,-4.5586,-4.5586,-4.5586,-4.5586,-4.5586,-4.5586,-4.5586,-4.5586,-4.5586,-4.5586,-4.5586,-4.5586,-4.5586,-4.5932,-4.649,-4.6797,-4.724,-4.7836,-4.8971,-4.9394,-4.951,0.0,0.0,0.0,0.0,0.0,0.0,0.0,0.0,0.0,0.0,0.0,0.0,0.0,0.0,0.0,-2.9259,-2.9067,-2.9049,-2.9188,-3.114,-3.3012,-3.4637,-3.4379,-3.42,-3.42,-3.3954,0.0,0.0,0.0,0.0,0.0,0.0,-3.4765,-3.4442,-3.5218,-3.5963,-3.6615,0.0,-3.6077,-3.5668,0.0,-3.3448,-3.4553,0.0,0.0,0.0,-3.5474,-3.5773,0.0,-3.5028,0.0,0.0,0.0,0.0,-3.834,-3.678,0.0,0.0,0.0,0.0,0.0,0.0,0.0,0.0,-3.7477,0.0,-3.7716,-3.8505,-3.867,-3.9148,-4.0726,-4.1001,-4.1277,-4.2084,-4.2249,-4.2543,-4.3369,-4.3461,-4.3442,-4.3442,-4.3442,-4.3575,-4.3899,-4.3942,-4.4243,-4.4954,-4.4257,-4.4286,-4.547,-4.4739,-4.4682,-4.5528,-4.5586,-4.5586,-4.5586,-4.5586,-4.5586,-4.5586,-4.5586,-4.5586,-4.5586,-4.5586,-4.5586,-4.5586,-4.5586,-4.5586,-4.5586,-4.5586,-4.5586,-4.5682,-4.6528,-4.6855,-4.7067,-4.8721,-4.9336,-4.9452,0.0,0.0,0.0,0.0,0.0,0.0,0.0,0.0,0.0,0.0,0.0,0.0,0.0,0.0,0.0,-3.2514,-3.0337,-3.0339,-3.3507,-3.4263,-3.4661,-3.485,-3.4442,-3.42,-3.42,-3.3954,0.0,0.0,0.0,0.0,0.0,0.0,0.0,0.0,-3.4641,-3.4807,-3.4883,-3.4529,0.0,0.0,-3.4096,-3.3737,0.0,0.0,0.0,0.0,0.0,-3.5734,-3.6869,0.0,-3.6231,-3.6668,0.0,0.0,0.0,0.0,0.0,0.0,-3.477,0.0,0.0,0.0,0.0,0.0,0.0,0.0,0.0,-3.7771,-3.7826,-3.7955,-3.8395,-3.8487,-3.8946,-4.0341,-4.1056,-4.1919,-4.3296,-4.3002,-4.2635,-4.2635,-4.2635,-4.243,-4.1954,-4.2352,-4.2711,0.0,-4.3156,-4.344,-4.3778,-4.4105,-4.4412,-4.4643,-4.5259,-4.5586,-4.5586,-4.5586,-4.5586,-4.5586,-4.5586,-4.5586,-4.5586,-4.5586,-4.5586,-4.5586,-4.5586,-4.5586,-4.5586,-4.5586,-4.5586,-4.5605,-4.5874,-4.5951,-4.6086,-4.7182,-4.7586,-4.7721,0.0,0.0,0.0,0.0,0.0,0.0,0.0,0.0,0.0,0.0,0.0,0.0,0.0,0.0,0.0,-3.451,-3.2787,-3.2783,-3.5335,-3.5501,-3.5333,-3.4906,-3.4595,-3.4357,-3.42,-3.3954,-3.3807,0.0,0.0,0.0,0.0,0.0,0.0,0.0,0.0,0.0,0.0,0.0,0.0,0.0,-3.3886,0.0,0.0,-3.3635,-3.4035,0.0,0.0,0.0,-3.7155,-3.6897,-3.7092,0.0,0.0,0.0,0.0,0.0,0.0,0.0,0.0,0.0,0.0,0.0,0.0,0.0,-3.6358,-3.6468,-3.6468,0.0,-3.6468,-3.656,-3.6927,-3.6982,-3.7514,-3.9129,-3.9515,-4.0286,-4.2231,-4.2103,-4.1809,-4.1809,-4.1809,-4.1673,-4.1348,-4.1661,-4.1938,-4.2089,-4.2151,-4.224,-4.2352,-4.3138,-4.3652,-4.3797,-4.4278,-4.4547,-4.4547,-4.4547,-4.472,-4.5047,-4.5047,-4.524,-4.5586,-4.5586,-4.5586,-4.5586,-4.5586,-4.5586,-4.5586,-4.5586,-4.5586,-4.5586,-4.5586,-4.5586,-4.5701,-4.6586,-4.6913,-4.7028,0.0,0.0,0.0,0.0,0.0,0.0,0.0,0.0,0.0,0.0,0.0,0.0,0.0,0.0,0.0,0.0,-3.5302,-3.5329,-3.5381,-3.5388,-3.5239,-3.4899,-3.4737,-3.4489,-3.42,-3.3954,-3.3807,-3.3807,0.0,0.0,0.0,0.0,0.0,0.0,0.0,0.0,0.0,0.0,0.0,-3.3158,-3.3239,-3.3319,0.0,0.0,-3.3494,-3.4227,-3.5291,-3.6113,-3.6761,-3.7211,-3.7349,0.0,0.0,0.0,0.0,0.0,-3.555,0.0,0.0,0.0,0.0,0.0,0.0,0.0,-3.5137,-3.5137,-3.5119,-3.5009,-3.499,-3.5275,-3.6138,-3.6303,-3.6835,-3.845,-3.8102,-3.8432,-4.0781,-4.1038,-4.0983,-4.0983,-4.0983,-4.1051,-4.1277,-4.1297,-4.1445,-4.1744,-4.1151,-4.0874,-4.1149,-4.1989,-4.2604,-4.2951,-4.3047,-4.3104,-4.3104,-4.3104,-4.3451,-4.4162,-4.4162,-4.4566,-4.5316,-4.5413,-4.5451,-4.5451,-4.5547,-4.5586,-4.5586,-4.5586,-4.5586,-4.5586,-4.5586,-4.5586,-4.5682,-4.6471,-4.6759,-4.6855,0.0,0.0,0.0,0.0,0.0,0.0,0.0,0.0,0.0,0.0,0.0,0.0,0.0,0.0,0.0,0.0,-3.4129,-3.4263,-3.4585,-3.4604,-3.4642,-3.4736,-3.4467,-3.4288,-3.42,-3.3954,-3.3807,-3.3807,0.0,0.0,0.0,0.0,0.0,0.0,0.0,0.0,0.0,0.0,0.0,-3.1749,-3.3073,0.0,-3.3388,-3.3506,-3.3458,-3.3358,-3.3572,-3.4605,-3.5928,-3.6387,-3.6523,-3.6505,0.0,0.0,0.0,-3.5312,0.0,0.0,0.0,0.0,0.0,0.0,0.0,0.0,-3.6046,-3.6046,-3.5862,0.0,-3.499,-3.5275,-3.6138,-3.6303,-3.6835,-3.845,-3.8579,-3.9093,-4.0855,-4.0543,-4.012,-4.012,-4.012,-3.9913,-3.9326,-3.9453,-3.9618,-3.9698,-3.9776,-3.9981,-4.031,-4.1112,-4.1724,-4.203,-4.2739,-4.3104,-4.3104,-4.3104,-4.3181,-4.3335,-4.3335,-4.3412,-4.3605,-4.4259,-4.4547,-4.4586,-4.5297,-4.5586,-4.5586,-4.5586,-4.5586,-4.5586,-4.5586,-4.5586,-4.5605,-4.5778,-4.5855,-4.5874,0.0,0.0,0.0,0.0,0.0,0.0,0.0,0.0,0.0,0.0,0.0,0.0,0.0,0.0,0.0,0.0,0.0,0.0,0.0,-3.4485,-3.4519,-3.4445,-3.4288,-3.4147,-3.3993,-3.385,-3.3807,-3.3807,0.0,0.0,0.0,0.0,0.0,0.0,0.0,0.0,0.0,0.0,-3.1815,-3.2337,-3.2879,0.0,-3.2625,-3.2701,-3.265,-3.2503,-3.2939,-3.4199,-3.5589,-3.5656,-3.6211,0.0,-3.5917,-3.5936,-3.6083,0.0,-3.4697,-3.4321,0.0,0.0,0.0,-3.4899,0.0,0.0,0.0,-3.5642,-3.5165,-3.5569,-3.4981,-3.4669,-3.5514,-3.5661,-3.6064,-3.7294,-3.7496,-3.8065,-3.968,-3.957,-3.9294,-3.9294,-3.9294,-3.9148,-3.8744,-3.8815,-3.8894,-3.8894,-3.9197,-3.9505,-3.9819,-4.0403,-4.0653,-4.0566,-4.0969,-4.12,-4.12,-4.0777,-4.12,-4.245,-4.2008,-4.2258,-4.3104,-4.3528,-4.3912,-4.4316,-4.4759,-4.5201,-4.5586,-4.5586,-4.5586,-4.5586,-4.5586,-4.5586,-4.5586,-4.5586,-4.5586,-4.5586,0.0,0.0,0.0,0.0,0.0,0.0,0.0,0.0,0.0,0.0,0.0,0.0,0.0,0.0,0.0,0.0,0.0,0.0,0.0,0.0,-3.4177,-3.3881,-3.4048,-3.3944,-3.3568,-3.3715,-3.3807,-3.3807,0.0,0.0,0.0,0.0,0.0,0.0,0.0,0.0,0.0,0.0,0.0,-3.2964,0.0,-3.2476,-3.2283,-3.2017,-3.1984,-3.2156,-3.2842,-3.3999,-3.5119,-3.4936,-3.5813,-3.6798,-3.5491,-3.5988,0.0,0.0,0.0,0.0,0.0,0.0,0.0,0.0,0.0,-3.478,0.0,0.0,0.0,0.0,0.0,0.0,0.0,0.0,0.0,0.0,0.0,0.0,0.0,-3.8597,0.0,-3.8909,-3.8524,-3.8358,-3.867,-3.856,-3.8395,-3.8248,-3.858,-3.8928,-3.926,-3.9378,-3.9357,-3.9131,-3.9026,-3.8981,-3.8981,-3.8339,-3.9123,-4.1316,-4.0604,-4.1085,-4.2604,-4.2777,-4.3201,-4.3835,-4.4162,-4.4701,-4.5355,-4.5528,-4.5586,-4.5586,-4.5586,-4.5586,-4.5586,-4.5586,-4.5586,-4.5586,-3.366,-3.3815,0.0,0.0,0.0,0.0,0.0,0.0,0.0,0.0,0.0,0.0,0.0,0.0,0.0,0.0,0.0,0.0,-3.4778,0.0,0.0,-3.2776,-3.3456,-3.3485,-3.2761,-3.344,-3.3807,-3.3807,0.0,0.0,0.0,0.0,0.0,0.0,-3.1098,0.0,0.0,0.0,-3.1292,0.0,-3.2541,-3.3463,0.0,-3.2878,-3.2617,-3.2889,-3.3102,-3.3304,-3.3575,0.0,-3.4793,-3.53,0.0,-3.5357,-3.5394,-3.5973,0.0,0.0,0.0,0.0,0.0,0.0,-3.6615,0.0,0.0,0.0,-3.4715,-3.4192,0.0,0.0,0.0,0.0,0.0,0.0,0.0,0.0,-3.7606,-3.8248,-3.8964,-3.968,-3.7881,-3.7129,-3.856,-3.8046,-3.7331,-3.6633,-3.7261,-3.7812,-3.807,-3.7455,-3.753,-3.8464,-3.8042,-3.7789,-3.7789,-3.7932,-3.8527,-3.9585,-3.9469,-3.9912,-4.0816,-4.1604,-4.2008,-4.2181,-4.3643,-4.4355,-4.4509,-4.5278,-4.5586,-4.5586,-4.5586,-4.5586,-4.5586,-4.5586,-4.5586,-4.5586,-3.3128,-3.3596,0.0,0.0,0.0,0.0,0.0,0.0,0.0,0.0,0.0,0.0,0.0,0.0,0.0,0.0,0.0,-3.3175,0.0,0.0,0.0,-3.3963,-3.4339,-3.4137,-3.3311,-3.3623,-3.368,-3.3447,-3.3273,0.0,0.0,0.0,0.0,0.0,-3.0587,0.0,-2.9939,0.0,-3.0818,0.0,0.0,0.0,0.0,-3.2861,-3.2595,-3.2703,-3.2558,-3.2787,-3.3268,0.0,-3.4395,0.0,0.0,0.0,0.0,-3.5362,0.0,0.0,0.0,0.0,0.0,0.0,0.0,0.0,-3.5807,0.0,-3.4486,0.0,0.0,0.0,0.0,0.0,0.0,0.0,-3.6064,0.0,0.0,0.0,-3.6688,0.0,0.0,0.0,-3.7973,-3.7679,-3.7165,-3.6358,-3.7193,-3.7588,-3.7217,-3.7066,-3.6983,-3.6942,-3.6726,-3.6692,-3.6838,-3.6485,-3.7076,-3.8546,-3.8027,-3.8238,-3.9084,-3.995,-4.0604,-4.1104,-4.2316,-4.3393,-4.4335,-4.4682,-4.5143,-4.5586,-4.5586,-4.5586,-4.5586,-4.5586,-4.5586,-4.5586,-3.2732,0.0,0.0,0.0,0.0,0.0,0.0,0.0,0.0,0.0,0.0,0.0,-3.3807,-3.5911,0.0,0.0,-3.3368,-3.3927,0.0,0.0,-3.3972,-3.4312,-3.4752,0.0,-3.3825,-3.4027,-3.4016,-3.3833,0.0,0.0,0.0,0.0,0.0,0.0,0.0,-3.0037,-2.9634,0.0,-3.0717,-3.1207,-3.141,-3.2083,-3.2946,-3.2719,-3.2578,-3.2479,-3.2215,-3.2607,-3.322,-3.3296,-3.4217,0.0,-3.4153,-3.508,-3.636,0.0,0.0,0.0,-3.6159,0.0,0.0,0.0,0.0,0.0,0.0,0.0,0.0,0.0,0.0,0.0,0.0,0.0,0.0,0.0,0.0,-3.5587,0.0,-3.5238,0.0,0.0,0.0,0.0,0.0,-3.7349,-3.6964,-3.5716,-3.6767,-3.7013,-3.5955,-3.6152,-3.6081,-3.5664,-3.5528,-3.5524,-3.5723,-3.5248,-3.5925,-3.774,-3.6961,-3.7149,-3.8243,-3.8958,-3.9623,-4.0219,-4.1335,-4.2489,-4.3643,-4.4105,-4.4662,-4.5259,-4.5509,-4.5586,-4.5586,-4.5586,-4.5586,-4.5586,-3.2705,-3.3238,0.0,0.0,0.0,0.0,0.0,0.0,0.0,0.0,0.0,0.0,0.0,0.0,0.0,0.0,0.0,-3.3386,-3.6083,0.0,-3.3458,-3.2724,-3.4165,-3.4633,0.0,-3.4578,-3.513,-3.5425,0.0,0.0,0.0,0.0,0.0,0.0,0.0,-3.0864,-3.1123,-3.114,-3.1173,-3.1258,-3.1968,-3.2115,-3.1927,0.0,-3.2773,-3.2517,-3.2482,0.0,0.0,-3.3501,-3.4227,0.0,0.0,0.0,0.0,0.0,0.0,0.0,0.0,0.0,0.0,-3.6688,0.0,0.0,0.0,0.0,-3.4045,0.0,0.0,0.0,0.0,0.0,0.0,0.0,0.0,0.0,0.0,0.0,0.0,0.0,0.0,0.0,0.0,-3.7037,-3.6486,-3.4064,-3.5432,-3.5634,-3.3981,-3.3889,-3.4238,-3.5009,-3.4513,-3.426,-3.426,-3.4551,-3.5526,-3.7114,-3.6577,-3.7182,-3.8785,-3.9144,-3.9296,-3.9431,-4.1085,-4.1835,-4.2008,-4.3624,-4.4316,-4.4432,-4.5259,-4.5586,-4.5586,-4.5586,-4.5586,-4.5586,0.0,0.0,0.0,0.0,0.0,0.0,0.0,-3.3808,0.0,0.0,0.0,0.0,0.0,-3.5107,-3.5126,0.0,0.0,-3.6656,-3.7085,-3.6064,0.0,0.0,0.0,-3.6009,0.0,0.0,0.0,0.0,0.0,0.0,0.0,0.0,0.0,0.0,0.0,-3.0646,0.0,0.0,0.0,0.0,0.0,-3.173,-3.1452,0.0,-3.2338,-3.2942,-3.2676,-3.3011,0.0,-3.3412,-3.3862,-3.4492,-3.4099,-3.4357,-3.4817,-3.4956,-3.5737,-3.6626,0.0,0.0,-3.845,-3.7349,0.0,0.0,0.0,0.0,0.0,0.0,0.0,0.0,0.0,0.0,0.0,0.0,0.0,0.0,0.0,0.0,0.0,0.0,0.0,0.0,0.0,0.0,-3.5293,-3.3899,-3.3825,-3.3605,-3.3054,-3.3018,-3.3385,-3.4192,-3.4023,-3.4018,-3.42,-3.4292,-3.4749,-3.5505,-3.5342,-3.5817,-3.6876,-3.6996,-3.7737,-3.899,-3.9618,-4.0605,-4.1854,-4.2412,-4.3297,-4.4335,-4.4624,-4.5086,-4.5586,-4.5586,-4.5586,-4.5586,-3.4467,0.0,0.0,0.0,0.0,0.0,0.0,0.0,0.0,0.0,-3.5647,0.0,-4.0148,0.0,-3.6619,0.0,-3.8685,-3.7978,-3.7679,-3.7088,0.0,-3.6042,-3.6978,0.0,0.0,0.0,0.0,0.0,0.0,-3.4393,0.0,0.0,0.0,0.0,0.0,-3.1217,-3.0596,-3.0838,-3.082,0.0,0.0,-3.1623,0.0,0.0,-3.191,-3.2479,0.0,-3.2762,-3.3314,-3.3243,-3.3617,-3.405,-3.3553,-3.3851,-3.4347,-3.4178,-3.5284,-3.6554,-3.6554,-3.7612,0.0,-3.7679,-3.7092,0.0,-3.5247,0.0,-3.4321,0.0,0.0,0.0,0.0,0.0,0.0,0.0,0.0,0.0,0.0,-3.499,0.0,0.0,0.0,0.0,0.0,-3.5917,-3.4761,-3.3073,-3.3084,-3.2863,-3.221,-3.2532,-3.3066,-3.377,-3.3807,-3.3876,-3.4068,-3.4068,-3.4314,-3.4801,-3.4595,-3.4961,-3.5747,-3.5861,-3.6744,-3.8231,-3.8574,-3.9662,-4.1219,-4.1506,-4.2518,-4.3893,-4.4182,-4.4836,-4.5586,-4.5586,-4.5586,-4.5586,0.0,0.0,0.0,0.0,-3.3788,0.0,0.0,0.0,-3.38,0.0,-3.4073,-3.6635,-4.2817,-4.0633,-3.9318,-4.0837,-3.8707,-3.746,-3.7925,-3.7739,0.0,0.0,-3.6845,-3.7533,-3.7507,0.0,0.0,0.0,0.0,0.0,0.0,0.0,0.0,0.0,-3.3214,0.0,-3.1363,-3.2163,-3.206,-3.1409,-3.1725,-3.1861,-3.1825,-3.1825,-3.1565,-3.1291,-3.1696,-3.2127,-3.2583,-3.3045,-3.3447,-3.3762,-3.3788,-3.3807,-3.3807,-3.3807,-3.4963,-3.6229,-3.6229,-3.7386,-3.8414,-3.7661,-3.7489,0.0,0.0,0.0,-3.5312,0.0,0.0,0.0,0.0,0.0,0.0,0.0,0.0,0.0,0.0,0.0,0.0,0.0,0.0,0.0,0.0,-3.5697,-3.4816,-3.1703,-3.3056,-3.3234,0.0,-3.2358,-3.3191,-3.3742,-3.376,-3.3778,-3.3807,-3.3807,-3.4192,-3.4917,-3.4414,-3.4641,-3.5479,-3.5694,-3.6276,-3.7162,-3.7999,-3.9001,-4.0158,-4.094,-4.1952,-4.3124,-4.3932,-4.4797,-4.5586,-4.5586,-4.5586,-4.5586,-3.4401,-3.4165,-3.3865,0.0,-3.3524,-3.3799,0.0,0.0,0.0,0.0,-3.7998,-4.1636,-4.3328,-4.0648,-3.8889,-3.9282,-3.9405,0.0,0.0,0.0,0.0,-3.7034,-3.7876,-3.8102,-3.7496,-3.8083,0.0,-3.7601,0.0,0.0,-3.5122,0.0,0.0,0.0,0.0,0.0,-3.142,-3.2188,-3.236,-3.2234,-3.2656,-3.2631,-3.2282,0.0,-3.1716,-3.1696,-3.2179,-3.2417,-3.2583,-3.3045,-3.3273,-3.3408,-3.3707,-3.3807,-3.3807,-3.3807,-3.4541,-3.5349,-3.5349,-3.6119,-3.7,-3.7386,-3.7037,-3.6652,0.0,0.0,0.0,0.0,0.0,0.0,0.0,0.0,0.0,0.0,0.0,0.0,0.0,0.0,0.0,-3.4439,0.0,-3.44,-3.5836,-3.4504,-3.328,-3.2659,-3.1745,-3.1172,-3.1029,-3.171,-3.2455,-3.3178,-3.3215,-3.3414,-3.3788,-3.3807,-3.3899,-3.4119,-3.396,-3.4326,-3.5118,-3.4578,-3.5578,-3.7686,-3.7574,-3.8491,-4.0139,-4.0532,-4.1267,-4.222,-4.3066,-4.4316,-4.5586,-4.5586,-4.5586,-4.5586,-3.452,0.0,0.0,-3.352,0.0,0.0,-3.3691,-3.314,0.0,-3.7587,-4.122,0.0,-4.3509,-4.063,-3.909,-4.0033,-3.979,0.0,-3.8592,0.0,0.0,-3.7075,-3.7661,-3.767,-3.6855,-3.7489,0.0,-3.7179,0.0,0.0,-3.5569,0.0,0.0,0.0,0.0,-3.2885,-3.1946,-3.2368,-3.2751,-3.3075,-3.3166,-3.3045,0.0,-3.2264,-3.1882,-3.1585,-3.1687,-3.1915,-3.2264,-3.2745,-3.3045,-3.3243,-3.3465,-3.3652,-3.3807,-3.3807,-3.4376,-3.499,-3.499,-3.5899,-3.6927,-3.7397,-3.7422,-3.7367,-3.7459,-3.7129,-3.6817,0.0,-3.6541,-3.6434,0.0,0.0,0.0,0.0,0.0,0.0,0.0,0.0,0.0,0.0,-3.403,-3.4244,-3.5492,-3.3456,-3.2139,-3.2292,-3.1769,-3.1339,0.0,-3.2334,-3.3026,-3.3003,-3.3711,-3.4115,-3.4184,-3.4432,-3.4222,-3.3621,-3.3621,-3.3863,-3.4309,-3.3826,-3.4875,-3.7028,-3.7122,-3.8055,-3.9567,-4.0116,-4.0907,-4.1931,-4.3143,-4.4201,-4.5066,-4.5451,-4.5586,-4.5586,-3.5042,0.0,0.0,0.0,0.0,0.0,0.0,-3.2824,0.0,-4.1048,0.0,-4.2396,-4.2802,-4.0565,-3.9685,-4.1342,0.0,-3.8704,-3.8356,-3.8169,-3.7595,-3.6539,-3.6855,-3.6732,-3.6023,-3.629,-3.6546,0.0,0.0,0.0,0.0,0.0,0.0,0.0,0.0,0.0,0.0,-3.2724,-3.3109,-3.3615,-3.3382,-3.3273,-3.3243,-3.2777,-3.2157,-3.1491,-3.1078,-3.1254,-3.1705,-3.2124,-3.2592,-3.3045,-3.3154,-3.3437,-3.3734,-3.3762,-3.4302,-3.4825,-3.4825,-3.5991,-3.7184,-3.7294,-3.7936,-3.8358,-3.7643,-3.7507,-3.7489,-3.739,-3.6849,-3.6648,-3.7608,0.0,0.0,0.0,0.0,0.0,0.0,0.0,0.0,0.0,0.0,0.0,-3.4694,-3.2858,-3.1684,-3.1708,-3.2544,-3.259,0.0,0.0,-3.4028,-3.297,-3.4465,-3.5139,-3.4864,-3.5207,-3.4832,-3.3731,-3.3617,-3.356,-3.356,-3.356,-3.4485,-3.6088,-3.6831,-3.7847,-3.9033,-3.9834,-4.0784,-4.197,-4.3528,-4.4201,-4.4412,-4.5278,-4.5586,-4.5586,0.0,0.0,0.0,0.0,0.0,-3.2981,-3.184,-3.5563,-3.728,-3.381,-3.4599,-3.6552,-3.9237,-4.0215,-4.0314,-3.9344,-3.9515,0.0,0.0,0.0,0.0,-3.7132,-3.6498,-3.6147,-3.6006,-3.5474,-3.5509,0.0,0.0,0.0,0.0,0.0,0.0,0.0,0.0,0.0,-3.2651,-3.3311,0.0,-3.2871,-3.3451,-3.3707,-3.3652,-3.3243,-3.2985,-3.2798,-3.2338,-3.1602,-3.0837,-3.0977,-3.1464,-3.2196,-3.2952,-3.3243,-3.3361,-3.3707,-3.3899,-3.4009,-3.4009,-3.4724,-3.5624,-3.6321,-3.711,-3.7661,-3.7544,-3.7507,-3.7364,-3.6922,-3.6716,-3.6745,-3.7174,0.0,0.0,0.0,0.0,0.0,0.0,0.0,0.0,0.0,0.0,-3.4146,-3.4639,-3.371,-3.3146,-3.3353,-3.3337,-3.2826,-3.1694,-3.3105,-3.3534,-3.2627,-3.3558,-3.4623,-3.5677,-3.5124,-3.5049,-3.545,-3.4788,-3.4486,-3.4486,-3.4486,-3.5354,-3.6904,-3.7338,-3.8423,-3.991,-4.0281,-4.0976,-4.1912,-4.2912,-4.372,-4.4412,-4.5278,-4.5586,-4.5586,0.0,0.0,0.0,0.0,0.0,0.0,0.0,-4.0014,-4.0833,-3.7952,-3.687,-3.6957,-3.8541,-3.9393,-3.9718,-3.935,-3.9294,-3.8866,-3.7964,-3.8254,-3.8115,-3.7246,-3.6838,-3.6143,-3.5089,-3.4924,-3.4712,-3.4512,0.0,0.0,0.0,0.0,0.0,0.0,0.0,-3.3201,0.0,0.0,0.0,-3.3256,-3.3642,-3.3807,-3.378,-3.3578,-3.3239,-3.2847,-3.2451,-3.1876,-3.137,-3.1579,-3.2015,-3.2598,-3.3045,-3.3332,-3.355,-3.3734,-3.3807,-3.3899,-3.4321,-3.4697,-3.5192,-3.6083,-3.6578,-3.6872,-3.6872,-3.6872,-3.6801,-3.6546,-3.6597,-3.682,-3.7234,-3.7833,0.0,0.0,0.0,0.0,0.0,0.0,-3.6503,0.0,0.0,0.0,0.0,0.0,0.0,0.0,0.0,-3.326,-3.1394,-3.328,-3.3849,-3.2588,-3.3772,-3.4821,-3.5675,-3.5628,-3.5382,-3.5007,-3.4649,-3.4459,-3.4454,-3.4454,-3.535,-3.6934,-3.7532,-3.852,-3.9727,-4.0284,-4.0739,-4.1258,-4.2585,-4.3335,-4.3835,-4.5124,-4.5586,-4.5586,0.0,-3.8088,0.0,0.0,-3.9047,0.0,-4.2108,-4.2465,-4.2478,-4.2461,-4.0276,-3.8688,-3.8695,-3.8707,-3.8964,-3.9588,-3.8909,-3.8209,-3.7693,-3.7641,-3.7362,-3.6677,-3.6677,-3.5874,-3.4112,-3.4076,-3.3688,0.0,0.0,0.0,0.0,0.0,0.0,0.0,0.0,0.0,0.0,0.0,-3.3018,-3.3293,-3.3476,-3.3532,-3.3568,-3.3733,-3.3421,-3.28,-3.2566,-3.2426,-3.2412,-3.2706,-3.2903,-3.3075,-3.3184,-3.3437,-3.368,-3.3762,-3.3807,-3.3935,-3.4578,-3.4862,-3.5155,-3.5862,-3.6156,-3.6248,-3.6064,-3.6028,-3.6001,-3.5873,-3.6077,-3.6471,-3.7129,-3.7893,0.0,0.0,0.0,0.0,0.0,0.0,-3.6469,0.0,0.0,0.0,-3.5493,0.0,0.0,0.0,-3.4207,-3.3638,-3.144,-3.3739,-3.4448,-3.2985,-3.4544,-3.5618,-3.6051,-3.6031,-3.5509,-3.453,-3.4372,-3.4268,-3.4237,-3.4391,-3.5391,-3.7007,-3.77,-3.8584,-3.9604,-4.0239,-4.0489,-4.0642,-4.222,-4.2931,-4.3278,-4.4759,-4.5432,-4.5586,0.0,0.0,0.0,0.0,0.0,0.0,-3.9184,-3.9158,-3.9163,-3.915,-3.888,-3.8693,-3.8707,-3.8707,-3.8726,-3.8817,-3.8065,-3.7369,-3.6847,-3.6813,-3.6251,-3.5013,-3.4977,-3.4588,-3.3688,-3.2309,-3.1903,0.0,0.0,-3.2499,0.0,0.0,0.0,0.0,0.0,0.0,0.0,-3.3091,-3.2889,-3.1678,-3.243,-3.2724,-3.2797,-3.3532,-3.3752,-3.3678,-3.3652,-3.3625,-3.3643,-3.3671,-3.3196,-3.2648,-3.3075,-3.3214,-3.3332,-3.3707,-3.3807,-3.3825,-3.3899,-3.4449,-3.5009,-3.5082,-3.5734,-3.6083,-3.5312,-3.5119,-3.499,-3.4488,-3.4667,-3.5208,-3.6232,-3.5904,-3.6045,0.0,0.0,0.0,0.0,0.0,-3.668,-3.6603,0.0,0.0,-3.5493,-3.5493,0.0,0.0,-3.4203,-3.3799,-3.2762,-3.4447,-3.5018,-3.409,-3.5806,-3.7094,-3.7858,-3.5739,-3.4981,-3.5557,-3.4704,-3.4293,-3.4312,-3.5051,-3.6295,-3.7873,-3.7969,-3.8911,-4.0392,-4.0469,-4.0489,-4.0585,-4.1546,-4.2412,-4.3201,-4.4085,-4.4913,-4.5586,0.0,0.0,0.0,0.0,0.0,0.0,0.0,-3.9565,-3.87,-3.87,-3.87,-3.8713,-3.8707,-3.8707,-3.8707,-3.8707,-3.7955,-3.7399,-3.7179,-3.6741,-3.6212,-3.5661,-3.5693,-3.5169,-3.4103,-3.2993,-3.2192,0.0,0.0,0.0,0.0,0.0,0.0,0.0,0.0,-3.3293,-3.2852,-3.3018,-3.2999,-3.2871,-3.3201,-3.333,-3.3366,-3.3678,-3.3807,-3.3807,-3.3807,-3.3807,-3.3807,-3.3807,-3.3578,-3.3314,-3.3494,-3.355,-3.3578,-3.3734,-3.3807,-3.3917,-3.4394,-3.4412,-3.4412,-3.4862,-3.4908,-3.4706,-3.4357,-3.4284,-3.4219,-3.4009,-3.4195,-3.4583,-3.5229,-3.5477,-3.5723,-3.6179,0.0,0.0,0.0,0.0,0.0,-3.5315,0.0,-3.4718,-3.4718,-3.4718,0.0,0.0,-3.4988,-3.4603,-3.3718,-3.3853,-3.4487,-3.5661,-3.493,-3.5416,-3.7358,-3.5944,-3.5349,-3.5638,-3.5291,-3.5102,-3.5037,-3.5839,-3.7161,-3.8815,-3.9277,-3.9873,-4.0489,-4.0489,-4.0489,-4.0585,-4.147,-4.2008,-4.2489,-4.3816,-4.4509,-4.4893,-3.8822,0.0,-4.0018,0.0,-3.9921,-3.9234,-4.0844,-3.973,-3.8707,-3.8707,-3.8707,-3.8707,-3.8707,-3.8707,-3.8707,-3.8707,-3.7734,-3.7129,-3.7129,-3.6376,-3.5807,-3.5569,-3.5789,0.0,-3.3905,-3.3089,-3.2112,-3.0963,-3.1505,0.0,0.0,0.0,0.0,0.0,-3.2875,-3.3018,-3.3073,-3.2827,-3.3061,-3.3559,-3.3642,-3.3673,-3.371,-3.3843,-3.3781,-3.3596,-3.3836,-3.3703,-3.3521,-3.3828,-3.3703,-3.3495,-3.3733,-3.3807,-3.3752,-3.3532,-3.3605,-3.3862,-3.4211,-3.4064,-3.3935,-3.4523,-3.4229,-3.3807,-3.3807,-3.3807,-3.3807,-3.3807,-3.3935,-3.4171,-3.4508,-3.5023,-3.5413,-3.5453,0.0,0.0,0.0,-3.6142,0.0,-3.4718,-3.4584,-3.4584,-3.4584,-3.4584,0.0,0.0,0.0,-3.5257,-3.3891,-3.3949,-3.4622,-3.593,-3.4743,-3.4993,-3.6877,-3.5882,-3.5332,-3.5277,-3.5279,-3.5241,-3.5185,-3.6493,-3.7757,-3.8969,-4.0027,-4.0489,-4.0489,-4.0489,-4.0489,-4.0546,-4.1181,-4.1651,-4.2157,-4.3328,-4.4039,-4.4479,-3.8822,-3.8923,-3.9547,-4.0873,-3.9768,-3.8707,-3.8744,-3.8726,-3.8707,-3.8707,-3.8707,-3.8707,-3.8707,-3.8707,-3.8707,-3.8707,-3.7239,-3.6303,-3.6303,-3.5514,-3.4642,0.0,0.0,-3.4257,-3.2643,-3.1843,-3.1017,-3.0204,0.0,0.0,-3.1458,0.0,-3.2963,-3.1494,-3.3073,-3.2908,-3.1501,-3.2535,-3.3007,-3.303,-3.3313,-3.3393,-3.3468,-3.3997,-3.3715,-3.3119,-3.392,-3.35,-3.2794,-3.3839,-3.35,-3.2761,-3.355,-3.3807,-3.3642,-3.2852,-3.3183,-3.3623,-3.2852,-3.3201,-3.3807,-3.3807,-3.3807,-3.3807,-3.3807,-3.3807,-3.3807,-3.3807,-3.3788,-3.3876,-3.4171,-3.42,-3.4667,-3.6063,0.0,0.0,0.0,-3.6007,0.0,-3.5488,-3.5474,-3.5474,-3.5474,-3.5474,0.0,0.0,0.0,-3.5584,-3.3045,-3.5295,0.0,-3.4276,-3.594,-3.6868,-3.6897,-3.5311,-3.451,-3.4503,-3.4392,-3.4312,-3.4408,-3.6858,-3.8007,-3.8104,-3.9777,-4.0489,-4.0489,-4.0489,-4.0489,-4.0489,-4.0508,-4.1336,-4.2482,-4.2502,-4.3392,-4.4606,-3.8762,-3.9203,-3.9847,-4.0449,-4.0417,-4.0688,-4.1791,-4.0117,-3.8707,-3.8707,-3.8707,-3.8762,-3.8961,-3.8317,-3.7863,0.0,-3.6376,-3.5506,0.0,-3.4939,-3.4426,-3.4416,-3.466,-3.4566,-3.4023,-3.3184,-3.2555,-3.2108,0.0,0.0,0.0,-3.3833,-3.3594,-3.2767,-3.2336,-3.2299,-3.2506,-3.2668,-3.3154,-3.3827,-3.3923,-3.4076,-3.4241,-3.3817,-3.3494,-3.3231,-3.2893,-3.255,-3.2318,-3.2645,-3.255,-3.2294,-3.2391,-3.2312,-3.21,-3.1861,-3.1953,-3.21,-3.1843,-3.2375,-3.2981,-3.2981,-3.3385,-3.3807,-3.3807,-3.3807,-3.3954,-3.4504,-3.4633,-3.4642,-3.4731,-3.4758,-3.486,-3.515,-3.4983,0.0,-3.5777,-3.5661,-3.5276,-3.468,-3.4603,-3.4603,-3.4603,-3.4603,0.0,0.0,0.0,-3.6969,-3.5565,0.0,0.0,-3.6776,-3.5647,-3.5647,-3.6897,-3.5791,-3.5562,-3.6149,-3.6092,-3.6647,-3.7743,-3.8527,-3.9181,-3.9719,-4.0258,-4.0389,-4.0232,-4.0422,-4.0715,-4.0997,-4.0442,-4.1151,-4.2481,-4.2284,-4.2862,-4.3806,-3.875,-3.9093,-3.9496,-3.9675,-3.9982,-4.0548,-4.1531,-3.9978,-3.8783,-3.9017,-3.8489,-3.8292,-3.8752,-3.7664,0.0,-3.7755,-3.6194,-3.5328,-3.5628,-3.4847,-3.4467,-3.4694,-3.4392,-3.4222,-3.4223,-3.3374,0.0,-3.2098,-3.1982,-3.2391,-3.3287,-3.3306,-3.316,-3.2901,-3.1972,-3.1742,-3.2125,-3.2242,-3.2858,-3.3715,-3.3534,-3.3821,-3.4264,-3.3298,-3.2808,-3.2579,-3.2352,-3.1996,-3.1713,-3.2108,-3.1977,-3.1619,-3.1414,-3.1032,-3.0683,-3.0901,-3.1146,-3.1329,-3.1017,-3.177,-3.2614,-3.2614,-3.3201,-3.3807,-3.3807,-3.3876,-3.4083,-3.46,-3.5036,-3.5342,-3.5342,-3.5627,-3.5707,-3.536,-3.5306,-3.5227,-3.5042,-3.5007,-3.4814,-3.4257,-3.4199,-3.4334,-3.4661,-3.4968,-3.5449,0.0,0.0,0.0,0.0,0.0,-3.6969,-3.7065,-3.6122,-3.618,-3.73,-3.6776,-3.6776,-3.73,-3.73,-3.7853,-3.8815,-3.9142,-3.9565,-4.0065,-4.0255,-4.025,-4.0101,-4.0138,-4.0539,-4.1022,-4.0224,-4.1032,-4.254,-4.1719,-4.2256,-4.3407,-3.8707,-3.8719,-3.8719,0.0,-3.8695,-3.8696,-3.8689,-3.8574,-3.8683,-3.9241,-3.8067,-3.7442,-3.8184,-3.6823,-3.6524,-3.8055,0.0,0.0,-3.5845,-3.5148,-3.4715,-3.4679,-3.394,-3.3487,-3.3431,-3.2751,-3.1864,-3.082,-3.0498,-3.0849,-3.1824,-3.1763,-3.1892,-3.2128,-3.1776,-3.1275,-3.0681,-3.1368,-3.2151,-3.2862,-3.2372,-3.2784,-3.3584,-3.2522,-3.1779,-3.1386,-3.2092,-3.1716,-3.1012,-3.2029,-3.1697,-3.0827,-3.0616,-3.0031,-2.9522,-2.9973,-3.065,-3.1072,-3.032,-3.1256,-3.2467,-3.2504,-3.3164,-3.3807,-3.3807,-3.3993,-3.4218,-3.4274,-3.5202,-3.5979,-3.5979,-3.6642,-3.701,-3.6403,-3.6209,-3.5684,-3.4384,-3.4199,-3.4199,-3.4199,0.0,0.0,-3.543,-3.6238,-3.6411,0.0,0.0,0.0,0.0,0.0,-3.8315,-3.5757,-3.7199,-3.8007,-3.8007,-3.8007,-3.8027,-3.8084,-3.8142,-3.8161,-3.82,-3.9008,-3.9373,-3.9381,-3.987,-4.0081,-4.0002,-3.9731,-4.0066,-4.0696,-3.9929,-4.0915,-4.2523,-4.0942,-4.165,-4.3296,0.0,0.0,-3.8952,-3.8748,-3.87,-3.8713,-3.8696,-3.7328,-3.6302,-3.6449,-3.7231,-3.7759,-3.7699,-3.661,-3.6215,-3.7015,-3.5742,-3.4997,-3.5266,-3.5113,-3.48,-3.4347,-3.4552,-3.439,-3.3722,-3.4179,-3.3954,-3.3028,-3.2166,-3.1862,-3.209,-3.1487,-3.1315,-3.148,-3.0414,-3.0297,-3.0828,-3.0639,-3.1172,-3.2083,-3.1942,-3.2164,-3.2501,-3.1789,-3.1432,-3.1264,-3.0988,-3.0733,-3.0554,-3.0804,-3.0733,-3.0475,-3.0228,-3.0013,-2.9784,-2.9385,-2.9439,-2.9549,-2.9347,-3.0026,-3.0925,-3.1531,-3.2742,-3.3807,-3.3807,-3.3993,-3.4386,-3.5056,-3.6062,-3.6828,-3.6828,-3.6979,-3.6931,-3.6385,-3.5219,-3.4346,-3.4211,-3.4199,-3.4199,0.0,-3.5334,-3.5949,-3.5545,-3.6238,-3.6911,0.0,0.0,-3.8623,-3.8681,-4.0296,-4.0046,-3.7488,-3.7796,-3.8007,-3.8007,-3.8007,-3.8334,-3.8988,-3.9604,-3.9912,-3.9912,-4.0123,-4.0101,-3.9909,-4.0043,-3.9797,-3.9339,-3.9529,-3.9946,-4.0464,-4.0213,-4.0831,-4.1789,-4.1145,-4.1618,-4.2561,-3.7829,-3.7895,-3.8238,-3.8964,-3.8465,-3.781,-3.7315,-3.6251,-3.5493,-3.5495,-3.6291,-3.6935,-3.7094,-3.6195,-3.5646,-3.594,-3.5191,-3.4813,-3.5088,-3.4981,-3.4772,-3.4435,-3.4353,-3.4355,-3.4399,-3.4475,-3.4094,-3.3252,-3.1782,-3.126,-3.1637,-3.0807,-3.0739,-3.1253,-3.0055,-2.9833,-3.032,-2.9983,-3.0313,-3.1043,-3.0672,-3.0903,-3.1411,-3.08,-3.0624,-3.0657,-3.0335,-3.0299,-3.0367,-3.0254,-3.0299,-3.0355,-3.0089,-2.9999,-2.9905,-2.9456,-2.9334,-2.9409,-2.982,-3.0509,-3.1359,-3.2427,-3.3257,-3.3842,-3.3961,-3.4195,-3.4599,-3.5197,-3.6482,-3.7375,-3.6994,-3.7584,-3.7621,-3.6173,-3.548,-3.4779,-3.3743,-3.3949,-3.4353,-3.4757,-3.5603,-3.6276,-3.6622,-3.7411,-3.7911,-3.7988,-3.9084,0.0,-3.9835,-4.147,-4.1393,-3.92,-3.9527,-3.9738,-3.9738,-3.9738,-4.0162,-4.1046,-4.1085,-4.1296,-4.1662,-4.0737,-4.0652,-4.1148,-4.0097,-3.9639,-3.962,-3.9312,-3.9779,-4.0626,-3.9885,-4.0533,-4.1743,-4.0491,-4.0983,-4.2249,-3.6779,-3.6764,-3.7309,-3.8858,-3.8085,-3.6841,-3.5677,-3.5486,-3.5496,-3.5498,-3.5493,-3.5743,-3.6387,-3.5659,-3.5088,-3.5034,-3.4793,-3.4754,-3.5016,-3.4832,-3.4637,-3.4524,-3.3766,-3.3733,-3.4582,-3.3798,-3.3067,-3.2458,-3.0639,-3.0107,-3.0788,-3.0053,-3.0194,-3.1016,-2.9969,-2.9581,-2.9729,-2.927,-2.9477,-3.0056,-2.9241,-2.9524,-3.0426,-2.9924,-2.9845,-2.9994,-2.9909,-3.0094,-3.0348,-2.9983,-3.0094,-3.0355,-3.0136,-3.0061,-3.0032,-2.9864,-2.9799,-2.995,-3.0617,-3.1486,-3.2486,-3.3709,-3.3975,-3.3961,-3.4171,-3.4489,-3.4813,-3.5034,-3.6642,-3.7738,-3.6873,-3.8027,-3.8392,-3.6238,-3.6142,-3.5622,-3.3583,0.0,-3.4661,-3.5411,-3.5853,-3.6584,-3.7873,-3.8796,-3.8988,-3.8257,-4.02,-4.1143,-4.0527,-4.2143,-4.2412,-4.0931,-4.1604,-4.2008,-4.2008,-4.2008,-4.2374,-4.3085,-4.2354,-4.2357,-4.294,-4.1227,-4.1146,-4.2256,-4.0183,-3.9667,-4.015,-3.9123,-3.9515,-4.0616,-3.9368,-4.0065,-4.1515,-3.9588,-4.0267,-4.2011,-3.6719,-3.7062,-3.7281,-3.7034,-3.7477,-3.7333,-3.5739,-3.5508,-3.5504,-3.5493,-3.5493,-3.5456,-3.5362,-3.5198,-3.4999,-3.4774,-3.4467,-3.4423,-3.4734,-3.4714,-3.4373,-3.3617,-3.3259,-3.2836,-3.2318,-3.1676,-3.1504,-3.1834,-3.0572,-2.9953,-2.9902,-2.9753,-2.9787,-2.9916,-2.8997,-2.9099,-2.9844,-2.824,-2.8422,-2.9701,-2.8856,-2.9024,-2.9848,-2.9915,-2.9969,-2.9932,-2.9423,-2.9733,-3.0283,-2.9502,-2.9752,-3.0398,-3.0355,-3.0343,-3.0323,-3.0299,-3.0286,-3.0221,-2.9967,-3.1034,-3.2354,-3.3019,-3.3874,-3.4486,-3.4265,-3.4636,-3.5053,-3.5088,-3.6642,-3.7738,-3.6873,-3.7526,-3.8065,-3.768,-3.5911,-3.4699,-3.5064,0.0,-3.5353,-3.5474,-3.7392,-3.8527,-3.8046,-3.8796,-3.9238,-3.9104,-3.945,-3.9931,-4.0469,-4.2143,-4.2989,-4.2701,-4.2835,-4.2893,-4.2893,-4.2893,-4.297,-4.3104,-4.297,-4.279,-4.2582,-4.2255,-4.1992,-4.1679,-4.0579,-4.0055,-3.9902,-3.905,-3.8854,-3.9129,-3.9551,-3.9533,-3.9294,-3.9588,-4.0377,-4.1185,-3.5254,-3.5704,-3.6169,-3.5982,-3.6353,-3.6386,-3.5617,-3.4699,-3.4436,-3.5386,-3.4961,-3.4722,-3.5047,-3.4813,-3.4574,-3.4445,-3.3757,-3.3414,-3.3557,-3.3966,-3.3836,-3.2994,-3.2858,-3.2544,-3.2027,-3.1409,-3.131,-3.1698,-3.0557,-2.9893,-2.9677,-2.9225,-2.9244,-2.9676,-2.8941,-2.9144,-2.9942,-2.9076,-2.908,-2.9658,-2.9262,-2.9338,-2.9731,-2.9924,-2.9999,-2.9899,-2.9193,-2.9262,-2.9629,-2.9104,-2.9282,-2.9775,-3.0256,-3.0398,-3.0367,-3.0241,-3.0932,-3.17,-3.1479,-3.2458,-3.3618,-3.3832,-3.4183,-3.4423,-3.4445,-3.4813,-3.5138,-3.5289,-3.6757,-3.7738,-3.6873,-3.7411,-3.7853,-3.7373,-3.5949,-3.5199,-3.6026,-3.6161,-3.6488,-3.745,-3.8584,-3.9296,-3.9335,-3.97,-3.995,-3.995,-3.995,-4.0422,-4.1512,-4.2556,-4.3348,-4.3893,-4.379,-4.3651,-4.3484,-4.3484,-4.3714,-4.4173,-4.3516,-4.3433,-4.3855,-4.2583,-4.2104,-4.2172,-4.0711,-4.0013,-3.9827,-3.9038,-3.8964,-3.9331,-3.9276,-3.9294,-3.9386,-3.9753,-4.0414,-4.1056,-3.3667,-3.4088,-3.4645,-3.4864,-3.5007,-3.5103,-3.5089,-3.3895,-3.3451,-3.4789,-3.441,-3.4163,-3.4565,-3.4358,-3.4027,-3.3603,-3.2969,-3.2522,-3.2339,-3.2999,-3.3117,-3.2357,-3.2155,-3.189,-3.1562,-3.0894,-3.0784,-3.1238,-3.0223,-2.9604,-2.9375,-2.8785,-2.8742,-2.9158,-2.8498,-2.8807,-2.9765,-2.9383,-2.947,-2.9845,-2.9637,-2.9693,-2.988,-3.0032,-3.0089,-2.9994,-2.9153,-2.9091,-2.936,-2.8996,-2.9123,-2.9525,-3.0198,-3.0398,-3.0355,-3.015,-3.1289,-3.266,-3.2852,-3.3688,-3.4528,-3.4658,-3.4532,-3.4467,-3.4653,-3.4963,-3.5239,-3.5446,-3.6834,-3.7738,-3.6873,-3.7411,-3.7777,-3.7123,0.0,-3.6084,-3.6892,-3.718,-3.7796,-3.9142,-3.9469,-3.9815,-4.0431,-4.0489,-4.0489,-4.0489,-4.0614,-4.1128,-4.2179,-4.2814,-4.3592,-4.4568,-4.4448,-4.4267,-4.3996,-4.3996,-4.4319,-4.4966,-4.4045,-4.4033,-4.4773,-4.2968,-4.2355,-4.2581,-4.0922,-4.0065,-3.9827,-3.9038,-3.9056,-3.9551,-3.8946,-3.9074,-3.9625,-3.9625,-4.0139,-4.0799,-3.2613,-3.2838,-3.3071,-3.3083,-3.3558,-3.3922,-3.3934,-3.3513,-3.3227,-3.3355,-3.4112,-3.4256,-3.3246,-3.3776,-3.3505,-3.1753,-3.221,-3.2284,-3.1531,-3.2004,-3.2084,-3.1494,-3.0779,-3.013,-2.9619,-2.8763,-2.882,-2.9859,-2.9212,-2.8745,-2.8508,-2.8677,-2.8365,-2.7627,-2.6828,-2.7478,-2.9071,-2.7503,-2.8203,-3.0278,-2.9471,-2.9625,-3.0355,-3.0367,-3.0367,-3.0251,-2.9398,-2.961,-3.0167,-2.936,-2.961,-3.0333,-3.0379,-3.0398,-3.0398,-3.0386,-3.1032,-3.1948,-3.2699,-3.3374,-3.3991,-3.4565,-3.487,-3.4981,-3.4754,-3.5105,-3.5479,-3.5493,-3.6834,-3.7738,-3.6873,-3.7411,-3.7988,-3.7911,0.0,0.0,-3.7777,-3.8604,-3.9161,-3.9277,-3.995,-4.0431,-4.0489,-4.0489,-4.0489,-4.0489,-4.0958,-4.1283,-4.1396,-4.2602,-4.3706,-4.4587,-4.4575,-4.4581,-4.4537,-4.4537,-4.4575,-4.465,-4.4549,-4.4363,-4.4087,-4.3916,-4.328,-4.2283,-4.1387,-4.0598,-3.9827,-3.9038,-3.8726,-3.8781,-3.8726,-3.8744,-3.8799,-3.8799,-3.9294,-3.9882,-3.1268,-3.2129,-3.2865,-3.2737,-3.2556,-3.2439,-3.2438,-3.1651,-3.1241,-3.1883,-3.2274,-3.2406,-3.2266,-3.2523,-3.2418,-3.1709,-3.1589,-3.1451,-3.1229,-3.0764,-3.0327,-2.9934,-2.8968,-2.8287,-2.7848,-2.7531,-2.7711,-2.8407,-2.8002,-2.7816,-2.7827,-2.7404,-2.7298,-2.7483,-2.6783,-2.747,-2.9063,-2.8409,-2.9025,-3.0359,-3.0044,-2.9775,-2.964,-3.0198,-3.0063,-2.9544,-2.9217,-2.9313,-2.9544,-2.9198,-2.9313,-2.9698,-3.0237,-3.0398,-3.0398,-3.0398,-3.0893,-3.1665,-3.2635,-3.3331,-3.3982,-3.4772,-3.5016,-3.507,-3.4963,-3.5223,-3.5446,-3.5289,-3.6539,-3.7592,-3.7302,-3.7936,-3.8733,-3.9435,0.0,-3.7687,-3.9103,-3.8937,-3.8956,-3.9715,-4.0517,-4.1069,-4.128,-4.1566,-4.1743,-4.1743,-4.1933,-4.2189,-4.2522,-4.331,-4.3886,-4.4233,-4.4035,-4.4004,-4.4252,-4.4233,-4.4233,-4.4252,-4.4004,-4.3943,-4.3986,-4.3772,-4.2912,-4.1552,-4.124,-4.0653,-3.9863,-3.957,-3.9441,-3.9441,-3.9441,-3.9148,-3.8836,-3.9827,-4.0396,-4.0616,-2.9986,-3.1028,-3.1933,-3.1721,-3.1312,-3.1002,-3.0941,-3.049,-3.0412,-3.1163,-3.1083,-3.1121,-3.1539,-3.148,-3.1219,-3.0762,-3.0547,-3.0337,-3.0073,-2.9139,-2.8608,-2.8654,-2.7532,-2.6875,-2.6803,-2.6562,-2.6745,-2.7384,-2.7006,-2.6919,-2.7089,-2.6568,-2.6498,-2.6797,-2.6376,-2.714,-2.8717,-2.8717,-2.9371,-3.0379,-3.0102,-2.9794,-2.9544,-2.9871,-2.9794,-2.9506,-2.9506,-2.9506,-2.9506,-2.9506,-2.9506,-2.9602,-3.0217,-3.0398,-3.0398,-3.0398,-3.0881,-3.1651,-3.2635,-3.3393,-3.4098,-3.4912,-3.5105,-3.5105,-3.5105,-3.5304,-3.5432,-3.5174,-3.6365,-3.749,-3.7433,-3.8118,-3.8899,-3.9678,-3.8652,-3.8174,-3.9371,-3.905,-3.912,-4.0186,-4.0796,-4.1222,-4.1456,-4.2004,-4.2259,-4.1993,-4.2379,-4.2806,-4.3325,-4.3658,-4.3849,-4.3849,-4.3612,-4.3502,-4.3478,-4.3738,-4.3849,-4.3818,-4.3631,-4.3483,-4.3465,-4.3468,-4.2616,-4.1111,-4.1111,-4.0653,-3.99,-3.99,-3.9753,-3.9551,-3.979,-3.9405,-3.8872,-4.023,-4.0726,-4.0763,-2.8821,-2.9427,-2.9939,-2.9729,-2.9696,-2.9644,-2.9527,-3.0402,-3.1176,-3.1352,-3.0907,-3.0704,-3.1052,-3.0732,-2.9919,-2.8512,-2.9017,-2.8961,-2.7886,-2.704,-2.6969,-2.7831,-2.653,-2.6036,-2.6576,-2.5807,-2.589,-2.6879,-2.6298,-2.6062,-2.6199,-2.6469,-2.614,-2.5303,-2.5303,-2.6274,-2.789,-2.789,-2.8871,-3.0321,-2.9467,-2.9621,-3.0294,-2.9429,-2.9621,-3.0379,-3.0379,-3.0379,-3.0398,-3.0398,-3.0398,-3.0398,-3.0398,-3.0398,-3.0398,-3.0398,-3.1025,-3.1891,-3.2679,-3.3545,-3.4351,-3.4945,-3.5105,-3.5105,-3.5105,-3.5304,-3.5432,-3.5174,-3.6365,-3.7414,-3.7154,-3.7747,-3.829,-3.829,-3.8309,-3.8309,-3.8309,-3.9048,-3.9878,-4.0683,-4.0796,-4.0796,-4.0796,-4.1531,-4.1682,-4.0871,-4.2034,-4.3021,-4.3477,-4.3479,-4.3479,-4.3479,-4.3479,-4.3094,-4.2304,-4.3094,-4.3479,-4.3479,-4.3479,-4.3075,-4.2323,-4.3112,-4.2616,-4.1111,-4.1111,-4.0653,-3.99,-3.99,-3.9423,-3.8799,-3.9588,-3.9405,-3.8799,-3.9588,-3.99,-4.001,-2.7721,-2.8831,-2.9731,-2.9532,-2.9474,-2.9414,-2.9197,-2.9429,-2.9662,-2.972,-2.9569,-2.9299,-2.8838,-2.8844,-2.8726,-2.8308,-2.8662,-2.9104,-2.9594,-2.7148,-2.5706,-2.5721,-2.5059,-2.482,-2.5134,-2.4892,-2.5026,-2.557,-2.5392,-2.5392,-2.5557,-2.5648,-2.5553,-2.5303,-2.5303,-2.6274,-2.789,-2.789,-2.8871,-3.0379,-3.0121,-2.9467,-2.8679,-2.8967,-2.8909,-2.8717,-2.9294,-2.989,-3.0398,-3.0398,-3.0398,-3.0398,-3.0398,-3.0398,-3.0398,-3.0398,-3.1025,-3.1891,-3.2679,-3.3545,-3.4378,-3.5187,-3.5383,-3.5383,-3.5383,-3.5446,-3.5432,-3.5174,-3.5926,-3.6749,-3.706,-3.7747,-3.8501,-3.9104,-3.9014,-3.8864,-3.8864,-3.8933,-3.9129,-3.9567,-4.0154,-4.0615,-4.0863,-4.1398,-4.1856,-4.2193,-4.3106,-4.3472,-4.3045,-4.3534,-4.3481,-4.2671,-4.2653,-4.2658,-4.2637,-4.346,-4.3293,-4.2168,-4.3311,-4.341,-4.2637,-4.2658,-4.2084,-4.1075,-4.0506,-4.012,-3.99,-3.99,-3.9753,-3.957,-3.9808,-3.9405,-3.8799,-3.9588,-3.99,-3.9918,-2.7539,-2.8651,-2.9513,-2.9289,-2.8987,-2.8815,-2.8975,-2.9008,-2.901,-2.9006,-2.8147,-2.7359,-2.6858,-2.7414,-2.7879,-2.807,-2.7646,-2.7648,-2.8337,-2.646,-2.5152,-2.4847,-2.4576,-2.4482,-2.4607,-2.4607,-2.4737,-2.501,-2.501,-2.5099,-2.5303,-2.5303,-2.5303,-2.5322,-2.5649,-2.6601,-2.7909,-2.8236,-2.9159,-3.0359,-3.0025,-2.9275,-2.8429,-2.8909,-2.8602,-2.8044,-2.9198,-2.9737,-2.9948,-3.0294,-3.0398,-3.0398,-3.0398,-3.0398,-3.0398,-3.0398,-3.1025,-3.1891,-3.2679,-3.3276,-3.3987,-3.5199,-3.5493,-3.5411,-3.5064,-3.5257,-3.5336,-3.4716,-3.5507,-3.6369,-3.6585,-3.754,-3.8437,-3.8845,-3.9006,-3.9044,-3.8961,-3.8803,-3.8891,-3.9349,-3.9888,-4.0271,-4.0475,-4.1043,-4.1742,-4.2557,-4.3045,-4.3249,-4.3095,-4.3526,-4.3472,-4.2782,-4.2763,-4.2551,-4.2143,-4.3051,-4.288,-4.1603,-4.244,-4.2619,-4.2125,-4.1908,-4.157,-4.1075,-4.0249,-3.99,-3.99,-3.99,-3.9698,-3.946,-3.9772,-3.9405,-3.8799,-3.9588,-3.99,-3.9937,-2.7754,-2.8552,-2.9066,-2.8846,-2.8195,-2.7963,-2.8716,-2.8798,-2.8802,-2.882,-2.6775,-2.5295,-2.5302,-2.6327,-2.7197,-2.7622,-2.6227,-2.5303,-2.5303,-2.5294,-2.5187,-2.4946,-2.4885,-2.4828,-2.4828,-2.4832,-2.4896,-2.5022,-2.5022,-2.5111,-2.5303,-2.5303,-2.5284,-2.5312,-2.61,-2.6927,-2.7802,-2.8533,-2.936,-3.0121,-2.9313,-2.8986,-2.8967,-2.8909,-2.8506,-2.8198,-2.966,-2.9756,-2.9333,-3.014,-3.0398,-3.0398,-3.0398,-3.0398,-3.0398,-3.0398,-3.1025,-3.1852,-3.2583,-3.2852,-3.3276,-3.4872,-3.5276,-3.5103,-3.4449,-3.4872,-3.5105,-3.414,-3.5179,-3.6177,-3.5964,-3.7184,-3.8169,-3.7958,-3.8622,-3.9036,-3.8792,-3.875,-3.8995,-3.9698,-3.979,-3.979,-3.979,-4.0524,-4.1332,-4.2139,-4.2268,-4.2616,-4.3332,-4.3442,-4.3461,-4.3387,-4.3387,-4.2705,-4.1254,-4.2094,-4.2143,-4.1361,-4.1224,-4.1089,-4.1015,-4.1001,-4.1001,-4.0965,-4.0139,-3.979,-3.979,-3.979,-3.935,-3.8781,-3.9515,-3.935,-3.8799,-3.9515,-3.979,-3.99,-2.5982,-2.6622,-2.7235,-2.734,-2.7211,-2.7214,-2.7547,-2.7313,-2.722,-2.7557,-2.6255,-2.5291,-2.5308,-2.554,-2.5753,-2.5851,-2.5524,-2.5303,-2.5303,-2.5302,-2.5262,-2.5224,-2.5192,-2.5182,-2.5182,-2.503,-2.5053,-2.5224,-2.5224,-2.5264,-2.5303,-2.5303,-2.5214,-2.5077,-2.5268,-2.5822,-2.6663,-2.6835,-2.7501,-2.8429,-2.8236,-2.8159,-2.8082,-2.739,-2.7852,-2.8794,-2.8544,-2.9159,-3.016,-3.034,-3.0398,-3.0398,-3.0398,-3.0398,-3.0398,-3.0398,-3.1025,-3.1737,-3.191,-3.2429,-3.2987,-3.3372,-3.3468,-3.3776,-3.4949,-3.4834,-3.4609,-3.5048,-3.5417,-3.5764,-3.6157,-3.6996,-3.7791,-3.815,-3.8936,-3.9383,-3.9063,-3.9008,-3.9007,-3.8958,-3.8964,-3.8964,-3.8964,-3.968,-4.0487,-4.1313,-4.1937,-4.2378,-4.2543,-4.3149,-4.3204,-4.258,-4.2561,-4.2544,-4.2421,-4.1163,-4.0226,-3.9657,-4.0905,-4.1126,-4.0455,-4.0277,-4.0157,-4.012,-3.9313,-3.8964,-3.8964,-3.8964,-3.8854,-3.8726,-3.8891,-3.8854,-3.8726,-3.8909,-3.8964,-3.9001,-2.6114,-2.6446,-2.6801,-2.7007,-2.6725,-2.657,-2.6874,-2.6261,-2.5866,-2.6257,-2.57,-2.5299,-2.5303,-2.5303,-2.5303,-2.5303,-2.5303,-2.5303,-2.5303,-2.5303,-2.5303,-2.5303,-2.5303,-2.5303,-2.5303,-2.5203,-2.5184,-2.5303,-2.5203,-2.5152,-2.5152,-2.5084,-2.5,-2.4923,-2.5302,-2.572,-2.6189,-2.6689,-2.7236,-2.78,-2.8272,-2.8236,-2.7928,-2.8275,-2.8467,-2.8552,-2.8797,-2.9161,-2.9503,-2.9589,-2.9647,-2.9653,-2.9752,-3.0083,-3.0398,-3.0398,-3.0717,-3.1179,-3.1583,-3.2006,-3.2429,-3.2795,-3.2602,-3.2679,-3.3968,-3.4237,-3.4334,-3.4795,-3.5218,-3.5696,-3.6377,-3.7165,-3.7903,-3.8436,-3.9269,-3.9731,-3.9408,-3.9186,-3.9063,-3.8894,-3.8792,-3.8707,-3.8707,-3.9074,-3.9827,-4.102,-4.1497,-4.2066,-4.2818,-4.3259,-4.3296,-4.2892,-4.2873,-4.2772,-4.2543,-4.154,-4.0693,-4.0059,-4.0163,-4.0589,-4.1194,-3.9921,-3.9753,-4.0414,-3.9221,-3.8707,-3.8707,-3.8707,-3.8707,-3.8707,-3.8707,-3.8707,-3.8707,-3.8707,-3.8707,-3.8707,-2.6488,-2.6543,-2.6614,-2.6777,-2.6276,-2.5947,-2.6313,-2.5539,-2.4989,-2.5268,-2.5299,-2.5303,-2.5303,-2.5303,-2.5303,-2.5303,-2.5303,-2.5303,-2.5303,-2.5303,-2.5303,-2.5303,-2.5303,-2.5303,-2.5303,-2.5303,-2.5274,-2.5253,-2.5088,-2.4998,-2.4962,-2.4855,-2.479,-2.4783,-2.5458,-2.574,-2.5797,-2.6693,-2.7094,-2.7197,-2.8178,-2.8169,-2.7727,-2.9116,-2.8867,-2.7953,-2.9098,-2.9178,-2.8707,-2.873,-2.8841,-2.8946,-2.8995,-2.962,-3.0323,-3.0323,-3.0367,-3.0552,-3.1275,-3.1487,-3.1641,-3.2314,-3.2083,-3.191,-3.2718,-3.3449,-3.4064,-3.4353,-3.5103,-3.5911,-3.6584,-3.7526,-3.837,-3.8801,-3.9604,-4.0062,-3.9731,-3.9389,-3.916,-3.9125,-3.8855,-3.8707,-3.8707,-3.8707,-3.9313,-4.0781,-4.0891,-4.1552,-4.3002,-4.3075,-4.3075,-4.3075,-4.3075,-4.2763,-4.2103,-4.1956,-4.1625,-4.1093,-3.9478,-3.9827,-4.1827,-3.9827,-3.957,-4.0634,-3.9294,-3.8707,-3.8707,-3.8707,-3.8707,-3.8707,-3.8707,-3.8707,-3.8707,-3.8707,-3.8707,-3.8707,-2.5035,-2.5066,-2.5139,-2.5279,-2.5209,-2.5201,-2.5442,-2.5339,-2.5244,-2.5283,-2.5293,-2.5303,-2.5303,-2.5303,-2.5303,-2.5303,-2.5303,-2.5303,-2.5303,-2.5303,-2.5303,-2.5303,-2.5303,-2.5303,-2.5303,-2.5303,-2.5214,-2.5034,-2.5022,-2.4937,-2.4832,-2.4818,-2.47,-2.4545,-2.4638,-2.4694,-2.4694,-2.4874,-2.5023,-2.5244,-2.6076,-2.6355,-2.6275,-2.6507,-2.6919,-2.7403,-2.7532,-2.8409,-2.943,-2.8763,-2.9007,-2.9463,-2.8793,-2.9258,-3.0042,-3.0042,-3.0209,-3.0417,-3.0533,-3.0571,-3.059,-3.0706,-3.1218,-3.191,-3.2718,-3.2987,-3.3506,-3.5007,-3.5968,-3.6584,-3.668,-3.8027,-3.9161,-3.9227,-3.9919,-4.0356,-4.0062,-3.9735,-3.9414,-3.9133,-3.8855,-3.8707,-3.8707,-3.8707,-3.9074,-3.9992,-4.0065,-4.0469,-4.1387,-4.1423,-4.1423,-4.1423,-4.1423,-4.1387,-4.1277,-4.0579,-4.0524,-4.1093,-3.9478,-3.9239,-4.0212,-3.9882,-3.9478,-3.9019,-3.8799,-3.8707,-3.8707,-3.8707,-3.8707,-3.8707,-3.8707,-3.8707,-3.8707,-3.8707,-3.8707,-3.8707,-2.4972,-2.4917,-2.4968,-2.5141,-2.5163,-2.5203,-2.5293,-2.5303,-2.5244,-2.5094,-2.5198,-2.531,-2.5304,-2.5306,-2.5305,-2.5305,-2.5311,-2.5303,-2.5303,-2.5303,-2.5303,-2.5303,-2.5303,-2.5303,-2.5303,-2.5303,-2.5171,-2.4891,-2.4891,-2.4869,-2.479,-2.4559,-2.4428,-2.4321,-2.4321,-2.4321,-2.4339,-2.4444,-2.4543,-2.4714,-2.5631,-2.5997,-2.605,-2.6541,-2.7236,-2.7937,-2.7768,-2.7811,-2.7866,-2.7174,-2.747,-2.8088,-2.7851,-2.8723,-2.9861,-2.9969,-3.0075,-3.0209,-3.0355,-3.0756,-3.1006,-3.0513,-3.1391,-3.2468,-3.2814,-3.3276,-3.4103,-3.5834,-3.6328,-3.6632,-3.7108,-3.8039,-3.8747,-3.8785,-3.9471,-3.9964,-3.984,-3.9529,-3.9205,-3.8894,-3.8762,-3.8707,-3.8707,-3.8707,-3.9038,-3.9827,-3.99,-4.0249,-4.1075,-4.1111,-4.1111,-4.1111,-4.1111,-4.1111,-4.1111,-4.0763,-4.0763,-4.1111,-4.0396,-4.023,-4.0543,-3.9643,-3.9276,-3.935,-3.8909,-3.8707,-3.8707,-3.8707,-3.8707,-3.8707,-3.8707,-3.8707,-3.8707,-3.8707,-3.8707,-3.8707]}]]